<?xml version="1.0" encoding="UTF-8" standalone="no" ?>
<gpx xmlns="http://www.topografix.com/GPX/1/1" xmlns:xsi="http://www.w3.org/2001/XMLSchema-instance" xsi:schemaLocation="http://www.topografix.com/GPX/1/1 http://www.topografix.com/GPX/1/1/gpx.xsd" version="1.1" creator="VisuGPX - https://www.visugpx.com">
  <metadata>
    <name>Circuit des 25 bosses</name>
    <desc><![CDATA[Circuit des 25 bosses à Noisy sur Ecole]]></desc>
  </metadata>
  <trk>
    <name><![CDATA[2016-08-27 16:32:44 Circuit des 25 Bosses Noisy sur Ecole]]></name>
    <trkseg>
      <trkpt lat="48.37265" lon="2.5106">
        <ele>75.24</ele>
        <time>2016-08-27T06:00:19Z</time>
      </trkpt>
      <trkpt lat="48.37266" lon="2.51057">
        <ele>75</ele>
        <time>2016-08-27T06:00:20Z</time>
      </trkpt>
      <trkpt lat="48.37266" lon="2.51047">
        <ele>74.54</ele>
        <time>2016-08-27T06:00:27Z</time>
      </trkpt>
      <trkpt lat="48.37273" lon="2.5105">
        <ele>74.45</ele>
        <time>2016-08-27T06:00:39Z</time>
      </trkpt>
      <trkpt lat="48.3727" lon="2.5104">
        <ele>74.63</ele>
        <time>2016-08-27T06:00:47Z</time>
      </trkpt>
      <trkpt lat="48.37271" lon="2.51042">
        <ele>74.72</ele>
        <time>2016-08-27T06:02:01Z</time>
      </trkpt>
      <trkpt lat="48.37275" lon="2.51031">
        <ele>74.82</ele>
        <time>2016-08-27T06:02:32Z</time>
      </trkpt>
      <trkpt lat="48.37287" lon="2.51002">
        <ele>74.93</ele>
        <time>2016-08-27T06:03:05Z</time>
      </trkpt>
      <trkpt lat="48.37308" lon="2.50986">
        <ele>74.58</ele>
        <time>2016-08-27T06:03:33Z</time>
      </trkpt>
      <trkpt lat="48.37334" lon="2.50971">
        <ele>75.05</ele>
        <time>2016-08-27T06:04:04Z</time>
      </trkpt>
      <trkpt lat="48.37335" lon="2.50968">
        <ele>75.13</ele>
        <time>2016-08-27T06:04:06Z</time>
      </trkpt>
      <trkpt lat="48.37362" lon="2.5091">
        <ele>74.6</ele>
        <time>2016-08-27T06:04:40Z</time>
      </trkpt>
      <trkpt lat="48.37372" lon="2.50899">
        <ele>74.88</ele>
        <time>2016-08-27T06:04:49Z</time>
      </trkpt>
      <trkpt lat="48.37382" lon="2.50874">
        <ele>74.52</ele>
        <time>2016-08-27T06:05:07Z</time>
      </trkpt>
      <trkpt lat="48.3739" lon="2.5085">
        <ele>73.42</ele>
        <time>2016-08-27T06:05:22Z</time>
      </trkpt>
      <trkpt lat="48.37402" lon="2.50836">
        <ele>72.73</ele>
        <time>2016-08-27T06:05:35Z</time>
      </trkpt>
      <trkpt lat="48.37415" lon="2.50839">
        <ele>71.98</ele>
        <time>2016-08-27T06:05:48Z</time>
      </trkpt>
      <trkpt lat="48.37438" lon="2.50847">
        <ele>71.83</ele>
        <time>2016-08-27T06:06:06Z</time>
      </trkpt>
      <trkpt lat="48.37453" lon="2.50846">
        <ele>71.86</ele>
        <time>2016-08-27T06:06:21Z</time>
      </trkpt>
      <trkpt lat="48.37473" lon="2.50841">
        <ele>72.15</ele>
        <time>2016-08-27T06:06:39Z</time>
      </trkpt>
      <trkpt lat="48.37483" lon="2.50837">
        <ele>72.14</ele>
        <time>2016-08-27T06:06:51Z</time>
      </trkpt>
      <trkpt lat="48.37501" lon="2.50833">
        <ele>71.98</ele>
        <time>2016-08-27T06:07:08Z</time>
      </trkpt>
      <trkpt lat="48.37523" lon="2.50826">
        <ele>72.09</ele>
        <time>2016-08-27T06:07:27Z</time>
      </trkpt>
      <trkpt lat="48.37526" lon="2.50826">
        <ele>72.03</ele>
        <time>2016-08-27T06:07:29Z</time>
      </trkpt>
      <trkpt lat="48.37534" lon="2.50826">
        <ele>72.04</ele>
        <time>2016-08-27T06:07:32Z</time>
      </trkpt>
      <trkpt lat="48.37557" lon="2.5082">
        <ele>72.22</ele>
        <time>2016-08-27T06:07:50Z</time>
      </trkpt>
      <trkpt lat="48.37576" lon="2.50813">
        <ele>71.72</ele>
        <time>2016-08-27T06:08:07Z</time>
      </trkpt>
      <trkpt lat="48.37593" lon="2.50807">
        <ele>72.13</ele>
        <time>2016-08-27T06:08:24Z</time>
      </trkpt>
      <trkpt lat="48.37619" lon="2.50812">
        <ele>71.78</ele>
        <time>2016-08-27T06:08:44Z</time>
      </trkpt>
      <trkpt lat="48.3762" lon="2.50812">
        <ele>71.76</ele>
        <time>2016-08-27T06:08:45Z</time>
      </trkpt>
      <trkpt lat="48.37644" lon="2.50807">
        <ele>72.13</ele>
        <time>2016-08-27T06:09:02Z</time>
      </trkpt>
      <trkpt lat="48.37667" lon="2.50804">
        <ele>72.26</ele>
        <time>2016-08-27T06:09:22Z</time>
      </trkpt>
      <trkpt lat="48.37686" lon="2.50803">
        <ele>72.14</ele>
        <time>2016-08-27T06:09:38Z</time>
      </trkpt>
      <trkpt lat="48.37709" lon="2.50804">
        <ele>72.16</ele>
        <time>2016-08-27T06:09:54Z</time>
      </trkpt>
      <trkpt lat="48.37729" lon="2.50804">
        <ele>71.99</ele>
        <time>2016-08-27T06:10:08Z</time>
      </trkpt>
      <trkpt lat="48.37748" lon="2.50803">
        <ele>71.88</ele>
        <time>2016-08-27T06:10:27Z</time>
      </trkpt>
      <trkpt lat="48.37772" lon="2.50807">
        <ele>72.14</ele>
        <time>2016-08-27T06:10:43Z</time>
      </trkpt>
      <trkpt lat="48.37793" lon="2.50812">
        <ele>72.14</ele>
        <time>2016-08-27T06:10:56Z</time>
      </trkpt>
      <trkpt lat="48.37809" lon="2.50815">
        <ele>72.13</ele>
        <time>2016-08-27T06:11:09Z</time>
      </trkpt>
      <trkpt lat="48.37826" lon="2.50829">
        <ele>71.86</ele>
        <time>2016-08-27T06:11:24Z</time>
      </trkpt>
      <trkpt lat="48.37839" lon="2.50835">
        <ele>71.81</ele>
        <time>2016-08-27T06:11:40Z</time>
      </trkpt>
      <trkpt lat="48.37857" lon="2.50839">
        <ele>72.42</ele>
        <time>2016-08-27T06:11:55Z</time>
      </trkpt>
      <trkpt lat="48.37879" lon="2.50839">
        <ele>72.77</ele>
        <time>2016-08-27T06:12:10Z</time>
      </trkpt>
      <trkpt lat="48.37897" lon="2.50831">
        <ele>73.12</ele>
        <time>2016-08-27T06:12:27Z</time>
      </trkpt>
      <trkpt lat="48.37903" lon="2.50824">
        <ele>73.33</ele>
        <time>2016-08-27T06:12:34Z</time>
      </trkpt>
      <trkpt lat="48.37915" lon="2.50815">
        <ele>73.53</ele>
        <time>2016-08-27T06:12:48Z</time>
      </trkpt>
      <trkpt lat="48.37917" lon="2.50813">
        <ele>73.54</ele>
        <time>2016-08-27T06:12:50Z</time>
      </trkpt>
      <trkpt lat="48.37938" lon="2.50797">
        <ele>73.58</ele>
        <time>2016-08-27T06:13:06Z</time>
      </trkpt>
      <trkpt lat="48.37946" lon="2.5079">
        <ele>73.85</ele>
        <time>2016-08-27T06:13:14Z</time>
      </trkpt>
      <trkpt lat="48.37954" lon="2.50778">
        <ele>73.93</ele>
        <time>2016-08-27T06:13:23Z</time>
      </trkpt>
      <trkpt lat="48.37976" lon="2.50757">
        <ele>74.25</ele>
        <time>2016-08-27T06:13:42Z</time>
      </trkpt>
      <trkpt lat="48.37983" lon="2.50763">
        <ele>74.36</ele>
        <time>2016-08-27T06:13:54Z</time>
      </trkpt>
      <trkpt lat="48.37982" lon="2.50782">
        <ele>74.34</ele>
        <time>2016-08-27T06:14:11Z</time>
      </trkpt>
      <trkpt lat="48.37978" lon="2.50795">
        <ele>74.95</ele>
        <time>2016-08-27T06:14:24Z</time>
      </trkpt>
      <trkpt lat="48.37974" lon="2.50802">
        <ele>75.18</ele>
        <time>2016-08-27T06:14:30Z</time>
      </trkpt>
      <trkpt lat="48.37969" lon="2.5081">
        <ele>75.66</ele>
        <time>2016-08-27T06:14:34Z</time>
      </trkpt>
      <trkpt lat="48.37955" lon="2.50839">
        <ele>75.81</ele>
        <time>2016-08-27T06:14:51Z</time>
      </trkpt>
      <trkpt lat="48.37953" lon="2.50847">
        <ele>75.74</ele>
        <time>2016-08-27T06:14:55Z</time>
      </trkpt>
      <trkpt lat="48.37952" lon="2.50872">
        <ele>75.97</ele>
        <time>2016-08-27T06:15:13Z</time>
      </trkpt>
      <trkpt lat="48.37946" lon="2.50894">
        <ele>75.86</ele>
        <time>2016-08-27T06:15:27Z</time>
      </trkpt>
      <trkpt lat="48.37941" lon="2.50906">
        <ele>76.02</ele>
        <time>2016-08-27T06:15:34Z</time>
      </trkpt>
      <trkpt lat="48.37944" lon="2.50915">
        <ele>75.98</ele>
        <time>2016-08-27T06:15:38Z</time>
      </trkpt>
      <trkpt lat="48.37932" lon="2.50941">
        <ele>76.05</ele>
        <time>2016-08-27T06:15:56Z</time>
      </trkpt>
      <trkpt lat="48.37922" lon="2.50967">
        <ele>75.79</ele>
        <time>2016-08-27T06:16:13Z</time>
      </trkpt>
      <trkpt lat="48.37915" lon="2.50989">
        <ele>74.98</ele>
        <time>2016-08-27T06:16:27Z</time>
      </trkpt>
      <trkpt lat="48.37903" lon="2.51015">
        <ele>74.32</ele>
        <time>2016-08-27T06:16:44Z</time>
      </trkpt>
      <trkpt lat="48.37899" lon="2.51035">
        <ele>73.92</ele>
        <time>2016-08-27T06:16:58Z</time>
      </trkpt>
      <trkpt lat="48.37897" lon="2.51044">
        <ele>73.82</ele>
        <time>2016-08-27T06:17:03Z</time>
      </trkpt>
      <trkpt lat="48.37898" lon="2.51071">
        <ele>73.62</ele>
        <time>2016-08-27T06:17:19Z</time>
      </trkpt>
      <trkpt lat="48.37902" lon="2.51077">
        <ele>74.43</ele>
        <time>2016-08-27T06:17:34Z</time>
      </trkpt>
      <trkpt lat="48.37913" lon="2.51074">
        <ele>75.87</ele>
        <time>2016-08-27T06:17:51Z</time>
      </trkpt>
      <trkpt lat="48.37921" lon="2.51076">
        <ele>76.87</ele>
        <time>2016-08-27T06:18:04Z</time>
      </trkpt>
      <trkpt lat="48.37924" lon="2.51078">
        <ele>77.3</ele>
        <time>2016-08-27T06:18:08Z</time>
      </trkpt>
      <trkpt lat="48.37927" lon="2.51077">
        <ele>78</ele>
        <time>2016-08-27T06:18:11Z</time>
      </trkpt>
      <trkpt lat="48.37931" lon="2.51083">
        <ele>78.65</ele>
        <time>2016-08-27T06:18:16Z</time>
      </trkpt>
      <trkpt lat="48.3794" lon="2.51079">
        <ele>81.24</ele>
        <time>2016-08-27T06:18:32Z</time>
      </trkpt>
      <trkpt lat="48.37942" lon="2.51079">
        <ele>83.18</ele>
        <time>2016-08-27T06:18:45Z</time>
      </trkpt>
      <trkpt lat="48.37947" lon="2.51081">
        <ele>85.05</ele>
        <time>2016-08-27T06:18:57Z</time>
      </trkpt>
      <trkpt lat="48.37952" lon="2.51078">
        <ele>86.88</ele>
        <time>2016-08-27T06:19:08Z</time>
      </trkpt>
      <trkpt lat="48.3796" lon="2.51075">
        <ele>90.01</ele>
        <time>2016-08-27T06:19:28Z</time>
      </trkpt>
      <trkpt lat="48.37969" lon="2.51081">
        <ele>92.8</ele>
        <time>2016-08-27T06:19:46Z</time>
      </trkpt>
      <trkpt lat="48.37973" lon="2.51085">
        <ele>94.8</ele>
        <time>2016-08-27T06:20:00Z</time>
      </trkpt>
      <trkpt lat="48.37976" lon="2.51086">
        <ele>96.9</ele>
        <time>2016-08-27T06:20:12Z</time>
      </trkpt>
      <trkpt lat="48.37982" lon="2.51086">
        <ele>99</ele>
        <time>2016-08-27T06:20:26Z</time>
      </trkpt>
      <trkpt lat="48.37984" lon="2.51088">
        <ele>99.68</ele>
        <time>2016-08-27T06:20:31Z</time>
      </trkpt>
      <trkpt lat="48.37997" lon="2.51086">
        <ele>103.09</ele>
        <time>2016-08-27T06:20:51Z</time>
      </trkpt>
      <trkpt lat="48.38003" lon="2.51086">
        <ele>106.16</ele>
        <time>2016-08-27T06:21:10Z</time>
      </trkpt>
      <trkpt lat="48.38007" lon="2.51078">
        <ele>107.17</ele>
        <time>2016-08-27T06:21:35Z</time>
      </trkpt>
      <trkpt lat="48.38008" lon="2.51075">
        <ele>108.53</ele>
        <time>2016-08-27T06:21:48Z</time>
      </trkpt>
      <trkpt lat="48.38014" lon="2.51096">
        <ele>109.62</ele>
        <time>2016-08-27T06:22:10Z</time>
      </trkpt>
      <trkpt lat="48.38012" lon="2.51106">
        <ele>109.51</ele>
        <time>2016-08-27T06:22:33Z</time>
      </trkpt>
      <trkpt lat="48.3801" lon="2.51108">
        <ele>109.3</ele>
        <time>2016-08-27T06:22:53Z</time>
      </trkpt>
      <trkpt lat="48.38011" lon="2.51107">
        <ele>108.6</ele>
        <time>2016-08-27T06:23:21Z</time>
      </trkpt>
      <trkpt lat="48.38006" lon="2.51109">
        <ele>108.56</ele>
        <time>2016-08-27T06:23:45Z</time>
      </trkpt>
      <trkpt lat="48.38008" lon="2.51114">
        <ele>108.19</ele>
        <time>2016-08-27T06:23:55Z</time>
      </trkpt>
      <trkpt lat="48.38011" lon="2.51112">
        <ele>109.07</ele>
        <time>2016-08-27T06:24:11Z</time>
      </trkpt>
      <trkpt lat="48.38016" lon="2.51114">
        <ele>107.82</ele>
        <time>2016-08-27T06:24:41Z</time>
      </trkpt>
      <trkpt lat="48.38023" lon="2.5113">
        <ele>105.54</ele>
        <time>2016-08-27T06:25:01Z</time>
      </trkpt>
      <trkpt lat="48.38034" lon="2.51137">
        <ele>107.83</ele>
        <time>2016-08-27T06:25:24Z</time>
      </trkpt>
      <trkpt lat="48.38043" lon="2.51149">
        <ele>106.53</ele>
        <time>2016-08-27T06:25:48Z</time>
      </trkpt>
      <trkpt lat="48.38053" lon="2.51165">
        <ele>104.88</ele>
        <time>2016-08-27T06:26:08Z</time>
      </trkpt>
      <trkpt lat="48.38055" lon="2.51175">
        <ele>104.09</ele>
        <time>2016-08-27T06:26:20Z</time>
      </trkpt>
      <trkpt lat="48.38066" lon="2.51182">
        <ele>104.72</ele>
        <time>2016-08-27T06:26:33Z</time>
      </trkpt>
      <trkpt lat="48.38078" lon="2.51192">
        <ele>106.85</ele>
        <time>2016-08-27T06:26:55Z</time>
      </trkpt>
      <trkpt lat="48.38082" lon="2.51204">
        <ele>106.72</ele>
        <time>2016-08-27T06:27:16Z</time>
      </trkpt>
      <trkpt lat="48.38078" lon="2.51217">
        <ele>104.75</ele>
        <time>2016-08-27T06:27:35Z</time>
      </trkpt>
      <trkpt lat="48.38079" lon="2.5123">
        <ele>102.76</ele>
        <time>2016-08-27T06:28:01Z</time>
      </trkpt>
      <trkpt lat="48.38083" lon="2.5123">
        <ele>104.44</ele>
        <time>2016-08-27T06:28:10Z</time>
      </trkpt>
      <trkpt lat="48.38092" lon="2.51238">
        <ele>104.78</ele>
        <time>2016-08-27T06:28:30Z</time>
      </trkpt>
      <trkpt lat="48.38094" lon="2.51244">
        <ele>104.5</ele>
        <time>2016-08-27T06:28:38Z</time>
      </trkpt>
      <trkpt lat="48.38103" lon="2.51238">
        <ele>106.9</ele>
        <time>2016-08-27T06:29:02Z</time>
      </trkpt>
      <trkpt lat="48.38105" lon="2.51237">
        <ele>106.86</ele>
        <time>2016-08-27T06:29:09Z</time>
      </trkpt>
      <trkpt lat="48.38109" lon="2.51232">
        <ele>109.92</ele>
        <time>2016-08-27T06:29:24Z</time>
      </trkpt>
      <trkpt lat="48.38115" lon="2.51243">
        <ele>111.26</ele>
        <time>2016-08-27T06:29:48Z</time>
      </trkpt>
      <trkpt lat="48.38115" lon="2.51245">
        <ele>110.93</ele>
        <time>2016-08-27T06:29:53Z</time>
      </trkpt>
      <trkpt lat="48.38123" lon="2.51243">
        <ele>114.02</ele>
        <time>2016-08-27T06:30:16Z</time>
      </trkpt>
      <trkpt lat="48.38127" lon="2.5125">
        <ele>116.25</ele>
        <time>2016-08-27T06:30:40Z</time>
      </trkpt>
      <trkpt lat="48.38128" lon="2.5125">
        <ele>116.73</ele>
        <time>2016-08-27T06:30:50Z</time>
      </trkpt>
      <trkpt lat="48.3813" lon="2.51247">
        <ele>116.07</ele>
        <time>2016-08-27T06:31:14Z</time>
      </trkpt>
      <trkpt lat="48.38132" lon="2.51249">
        <ele>115.71</ele>
        <time>2016-08-27T06:31:46Z</time>
      </trkpt>
      <trkpt lat="48.38131" lon="2.51246">
        <ele>117.16</ele>
        <time>2016-08-27T06:32:14Z</time>
      </trkpt>
      <trkpt lat="48.38134" lon="2.51243">
        <ele>120.45</ele>
        <time>2016-08-27T06:32:33Z</time>
      </trkpt>
      <trkpt lat="48.38142" lon="2.5125">
        <ele>120.85</ele>
        <time>2016-08-27T06:32:53Z</time>
      </trkpt>
      <trkpt lat="48.38148" lon="2.51255">
        <ele>119.64</ele>
        <time>2016-08-27T06:33:19Z</time>
      </trkpt>
      <trkpt lat="48.38155" lon="2.5126">
        <ele>119.67</ele>
        <time>2016-08-27T06:33:39Z</time>
      </trkpt>
      <trkpt lat="48.38151" lon="2.5126">
        <ele>119.42</ele>
        <time>2016-08-27T06:34:06Z</time>
      </trkpt>
      <trkpt lat="48.3815" lon="2.51263">
        <ele>119.57</ele>
        <time>2016-08-27T06:34:36Z</time>
      </trkpt>
      <trkpt lat="48.3815" lon="2.51264">
        <ele>119.64</ele>
        <time>2016-08-27T06:34:57Z</time>
      </trkpt>
      <trkpt lat="48.38152" lon="2.51262">
        <ele>118.15</ele>
        <time>2016-08-27T06:35:17Z</time>
      </trkpt>
      <trkpt lat="48.38155" lon="2.51257">
        <ele>118.78</ele>
        <time>2016-08-27T06:35:26Z</time>
      </trkpt>
      <trkpt lat="48.38172" lon="2.5126">
        <ele>117.8</ele>
        <time>2016-08-27T06:35:47Z</time>
      </trkpt>
      <trkpt lat="48.38172" lon="2.51259">
        <ele>117.94</ele>
        <time>2016-08-27T06:35:49Z</time>
      </trkpt>
      <trkpt lat="48.38172" lon="2.5125">
        <ele>117.57</ele>
        <time>2016-08-27T06:36:16Z</time>
      </trkpt>
      <trkpt lat="48.38172" lon="2.51249">
        <ele>117.17</ele>
        <time>2016-08-27T06:36:20Z</time>
      </trkpt>
      <trkpt lat="48.3818" lon="2.51247">
        <ele>113.93</ele>
        <time>2016-08-27T06:36:38Z</time>
      </trkpt>
      <trkpt lat="48.38184" lon="2.51247">
        <ele>112.58</ele>
        <time>2016-08-27T06:37:03Z</time>
      </trkpt>
      <trkpt lat="48.38191" lon="2.51251">
        <ele>109.38</ele>
        <time>2016-08-27T06:37:22Z</time>
      </trkpt>
      <trkpt lat="48.38198" lon="2.51247">
        <ele>106.3</ele>
        <time>2016-08-27T06:37:38Z</time>
      </trkpt>
      <trkpt lat="48.38207" lon="2.51244">
        <ele>103.15</ele>
        <time>2016-08-27T06:38:00Z</time>
      </trkpt>
      <trkpt lat="48.38213" lon="2.51246">
        <ele>100.03</ele>
        <time>2016-08-27T06:38:18Z</time>
      </trkpt>
      <trkpt lat="48.38218" lon="2.51252">
        <ele>96.96</ele>
        <time>2016-08-27T06:38:39Z</time>
      </trkpt>
      <trkpt lat="48.38231" lon="2.51251">
        <ele>93.88</ele>
        <time>2016-08-27T06:39:01Z</time>
      </trkpt>
      <trkpt lat="48.38233" lon="2.5126">
        <ele>92.5</ele>
        <time>2016-08-27T06:39:26Z</time>
      </trkpt>
      <trkpt lat="48.38243" lon="2.51265">
        <ele>90.83</ele>
        <time>2016-08-27T06:39:39Z</time>
      </trkpt>
      <trkpt lat="48.38265" lon="2.51285">
        <ele>89.62</ele>
        <time>2016-08-27T06:40:03Z</time>
      </trkpt>
      <trkpt lat="48.38269" lon="2.51303">
        <ele>89.53</ele>
        <time>2016-08-27T06:40:24Z</time>
      </trkpt>
      <trkpt lat="48.38277" lon="2.51314">
        <ele>87.81</ele>
        <time>2016-08-27T06:40:50Z</time>
      </trkpt>
      <trkpt lat="48.38278" lon="2.51314">
        <ele>87.37</ele>
        <time>2016-08-27T06:40:52Z</time>
      </trkpt>
      <trkpt lat="48.38285" lon="2.51318">
        <ele>85.9</ele>
        <time>2016-08-27T06:41:01Z</time>
      </trkpt>
      <trkpt lat="48.383" lon="2.5133">
        <ele>85.63</ele>
        <time>2016-08-27T06:41:23Z</time>
      </trkpt>
      <trkpt lat="48.38303" lon="2.5134">
        <ele>85.51</ele>
        <time>2016-08-27T06:41:30Z</time>
      </trkpt>
      <trkpt lat="48.38299" lon="2.51367">
        <ele>86.9</ele>
        <time>2016-08-27T06:41:55Z</time>
      </trkpt>
      <trkpt lat="48.38308" lon="2.51376">
        <ele>89.34</ele>
        <time>2016-08-27T06:42:22Z</time>
      </trkpt>
      <trkpt lat="48.38317" lon="2.51383">
        <ele>92.38</ele>
        <time>2016-08-27T06:42:37Z</time>
      </trkpt>
      <trkpt lat="48.38324" lon="2.51387">
        <ele>95.51</ele>
        <time>2016-08-27T06:42:53Z</time>
      </trkpt>
      <trkpt lat="48.38332" lon="2.51402">
        <ele>98.52</ele>
        <time>2016-08-27T06:43:14Z</time>
      </trkpt>
      <trkpt lat="48.3834" lon="2.51431">
        <ele>101.5</ele>
        <time>2016-08-27T06:43:42Z</time>
      </trkpt>
      <trkpt lat="48.38346" lon="2.5146">
        <ele>102.11</ele>
        <time>2016-08-27T06:44:07Z</time>
      </trkpt>
      <trkpt lat="48.38358" lon="2.51497">
        <ele>103.33</ele>
        <time>2016-08-27T06:44:36Z</time>
      </trkpt>
      <trkpt lat="48.38358" lon="2.51507">
        <ele>102.29</ele>
        <time>2016-08-27T06:45:00Z</time>
      </trkpt>
      <trkpt lat="48.38354" lon="2.51506">
        <ele>101.36</ele>
        <time>2016-08-27T06:45:35Z</time>
      </trkpt>
      <trkpt lat="48.38351" lon="2.51513">
        <ele>100.16</ele>
        <time>2016-08-27T06:45:53Z</time>
      </trkpt>
      <trkpt lat="48.38353" lon="2.51508">
        <ele>100.77</ele>
        <time>2016-08-27T06:46:08Z</time>
      </trkpt>
      <trkpt lat="48.38351" lon="2.51532">
        <ele>97.4</ele>
        <time>2016-08-27T06:46:33Z</time>
      </trkpt>
      <trkpt lat="48.38349" lon="2.51545">
        <ele>94.38</ele>
        <time>2016-08-27T06:46:50Z</time>
      </trkpt>
      <trkpt lat="48.38345" lon="2.51556">
        <ele>91.24</ele>
        <time>2016-08-27T06:47:15Z</time>
      </trkpt>
      <trkpt lat="48.38342" lon="2.5159">
        <ele>89.01</ele>
        <time>2016-08-27T06:47:44Z</time>
      </trkpt>
      <trkpt lat="48.38333" lon="2.5162">
        <ele>92.1</ele>
        <time>2016-08-27T06:48:12Z</time>
      </trkpt>
      <trkpt lat="48.38334" lon="2.51629">
        <ele>95.27</ele>
        <time>2016-08-27T06:48:29Z</time>
      </trkpt>
      <trkpt lat="48.38322" lon="2.51651">
        <ele>98.33</ele>
        <time>2016-08-27T06:48:57Z</time>
      </trkpt>
      <trkpt lat="48.38317" lon="2.51665">
        <ele>101.52</ele>
        <time>2016-08-27T06:49:14Z</time>
      </trkpt>
      <trkpt lat="48.38317" lon="2.51681">
        <ele>103.75</ele>
        <time>2016-08-27T06:49:41Z</time>
      </trkpt>
      <trkpt lat="48.38308" lon="2.51689">
        <ele>105.93</ele>
        <time>2016-08-27T06:50:05Z</time>
      </trkpt>
      <trkpt lat="48.38304" lon="2.51701">
        <ele>109.07</ele>
        <time>2016-08-27T06:50:25Z</time>
      </trkpt>
      <trkpt lat="48.38302" lon="2.51716">
        <ele>112.18</ele>
        <time>2016-08-27T06:50:48Z</time>
      </trkpt>
      <trkpt lat="48.38305" lon="2.5172">
        <ele>115.21</ele>
        <time>2016-08-27T06:51:11Z</time>
      </trkpt>
      <trkpt lat="48.38302" lon="2.51725">
        <ele>115.29</ele>
        <time>2016-08-27T06:51:29Z</time>
      </trkpt>
      <trkpt lat="48.38302" lon="2.51733">
        <ele>116.71</ele>
        <time>2016-08-27T06:51:51Z</time>
      </trkpt>
      <trkpt lat="48.38307" lon="2.51735">
        <ele>116.25</ele>
        <time>2016-08-27T06:52:19Z</time>
      </trkpt>
      <trkpt lat="48.38308" lon="2.51731">
        <ele>118.47</ele>
        <time>2016-08-27T06:52:47Z</time>
      </trkpt>
      <trkpt lat="48.3831" lon="2.51734">
        <ele>118.19</ele>
        <time>2016-08-27T06:53:13Z</time>
      </trkpt>
      <trkpt lat="48.38312" lon="2.51733">
        <ele>118.05</ele>
        <time>2016-08-27T06:53:16Z</time>
      </trkpt>
      <trkpt lat="48.38333" lon="2.51734">
        <ele>117.87</ele>
        <time>2016-08-27T06:53:42Z</time>
      </trkpt>
      <trkpt lat="48.3833" lon="2.51742">
        <ele>114.85</ele>
        <time>2016-08-27T06:54:02Z</time>
      </trkpt>
      <trkpt lat="48.38333" lon="2.51748">
        <ele>111.8</ele>
        <time>2016-08-27T06:54:17Z</time>
      </trkpt>
      <trkpt lat="48.38336" lon="2.51757">
        <ele>108.68</ele>
        <time>2016-08-27T06:54:35Z</time>
      </trkpt>
      <trkpt lat="48.38338" lon="2.51758">
        <ele>108.13</ele>
        <time>2016-08-27T06:54:40Z</time>
      </trkpt>
      <trkpt lat="48.38343" lon="2.51764">
        <ele>104.77</ele>
        <time>2016-08-27T06:55:01Z</time>
      </trkpt>
      <trkpt lat="48.38344" lon="2.51764">
        <ele>104.37</ele>
        <time>2016-08-27T06:55:22Z</time>
      </trkpt>
      <trkpt lat="48.38346" lon="2.51762">
        <ele>104.58</ele>
        <time>2016-08-27T06:55:48Z</time>
      </trkpt>
      <trkpt lat="48.38353" lon="2.51757">
        <ele>103.68</ele>
        <time>2016-08-27T06:56:18Z</time>
      </trkpt>
      <trkpt lat="48.38359" lon="2.51764">
        <ele>100.47</ele>
        <time>2016-08-27T06:56:31Z</time>
      </trkpt>
      <trkpt lat="48.38369" lon="2.51776">
        <ele>97.32</ele>
        <time>2016-08-27T06:56:46Z</time>
      </trkpt>
      <trkpt lat="48.38371" lon="2.51781">
        <ele>95.08</ele>
        <time>2016-08-27T06:57:13Z</time>
      </trkpt>
      <trkpt lat="48.38379" lon="2.51773">
        <ele>92.81</ele>
        <time>2016-08-27T06:57:36Z</time>
      </trkpt>
      <trkpt lat="48.38384" lon="2.51765">
        <ele>91.35</ele>
        <time>2016-08-27T06:58:01Z</time>
      </trkpt>
      <trkpt lat="48.38387" lon="2.51767">
        <ele>89.12</ele>
        <time>2016-08-27T06:58:27Z</time>
      </trkpt>
      <trkpt lat="48.38385" lon="2.51767">
        <ele>87.42</ele>
        <time>2016-08-27T06:58:57Z</time>
      </trkpt>
      <trkpt lat="48.38389" lon="2.51768">
        <ele>87.1</ele>
        <time>2016-08-27T06:59:06Z</time>
      </trkpt>
      <trkpt lat="48.38398" lon="2.51772">
        <ele>83.77</ele>
        <time>2016-08-27T06:59:28Z</time>
      </trkpt>
      <trkpt lat="48.38409" lon="2.51781">
        <ele>80.72</ele>
        <time>2016-08-27T06:59:47Z</time>
      </trkpt>
      <trkpt lat="48.38418" lon="2.51793">
        <ele>78.9</ele>
        <time>2016-08-27T07:00:12Z</time>
      </trkpt>
      <trkpt lat="48.38429" lon="2.51809">
        <ele>80.01</ele>
        <time>2016-08-27T07:00:41Z</time>
      </trkpt>
      <trkpt lat="48.38442" lon="2.51824">
        <ele>83.14</ele>
        <time>2016-08-27T07:01:04Z</time>
      </trkpt>
      <trkpt lat="48.38462" lon="2.51825">
        <ele>85.6</ele>
        <time>2016-08-27T07:01:29Z</time>
      </trkpt>
      <trkpt lat="48.3847" lon="2.51844">
        <ele>88.62</ele>
        <time>2016-08-27T07:01:50Z</time>
      </trkpt>
      <trkpt lat="48.38471" lon="2.51861">
        <ele>91.66</ele>
        <time>2016-08-27T07:02:10Z</time>
      </trkpt>
      <trkpt lat="48.38481" lon="2.51876">
        <ele>94.71</ele>
        <time>2016-08-27T07:02:29Z</time>
      </trkpt>
      <trkpt lat="48.38479" lon="2.51899">
        <ele>97.78</ele>
        <time>2016-08-27T07:02:54Z</time>
      </trkpt>
      <trkpt lat="48.38481" lon="2.51921">
        <ele>100.24</ele>
        <time>2016-08-27T07:03:19Z</time>
      </trkpt>
      <trkpt lat="48.38487" lon="2.51935">
        <ele>100.43</ele>
        <time>2016-08-27T07:03:47Z</time>
      </trkpt>
      <trkpt lat="48.38486" lon="2.51934">
        <ele>100.48</ele>
        <time>2016-08-27T07:03:49Z</time>
      </trkpt>
      <trkpt lat="48.38483" lon="2.51945">
        <ele>98.27</ele>
        <time>2016-08-27T07:04:13Z</time>
      </trkpt>
      <trkpt lat="48.38479" lon="2.51954">
        <ele>95.17</ele>
        <time>2016-08-27T07:04:30Z</time>
      </trkpt>
      <trkpt lat="48.38474" lon="2.51977">
        <ele>93.18</ele>
        <time>2016-08-27T07:04:54Z</time>
      </trkpt>
      <trkpt lat="48.38472" lon="2.5198">
        <ele>93.12</ele>
        <time>2016-08-27T07:04:57Z</time>
      </trkpt>
      <trkpt lat="48.38462" lon="2.51991">
        <ele>93.39</ele>
        <time>2016-08-27T07:05:12Z</time>
      </trkpt>
      <trkpt lat="48.38456" lon="2.52003">
        <ele>94.34</ele>
        <time>2016-08-27T07:05:23Z</time>
      </trkpt>
      <trkpt lat="48.38459" lon="2.52009">
        <ele>94.45</ele>
        <time>2016-08-27T07:05:41Z</time>
      </trkpt>
      <trkpt lat="48.38453" lon="2.52013">
        <ele>94.59</ele>
        <time>2016-08-27T07:05:58Z</time>
      </trkpt>
      <trkpt lat="48.38446" lon="2.52021">
        <ele>96.06</ele>
        <time>2016-08-27T07:06:13Z</time>
      </trkpt>
      <trkpt lat="48.38438" lon="2.52031">
        <ele>97.26</ele>
        <time>2016-08-27T07:06:25Z</time>
      </trkpt>
      <trkpt lat="48.38429" lon="2.52041">
        <ele>99.12</ele>
        <time>2016-08-27T07:06:41Z</time>
      </trkpt>
      <trkpt lat="48.38425" lon="2.52053">
        <ele>100.98</ele>
        <time>2016-08-27T07:06:56Z</time>
      </trkpt>
      <trkpt lat="48.38418" lon="2.52061">
        <ele>103.73</ele>
        <time>2016-08-27T07:07:11Z</time>
      </trkpt>
      <trkpt lat="48.38416" lon="2.52064">
        <ele>104.15</ele>
        <time>2016-08-27T07:07:13Z</time>
      </trkpt>
      <trkpt lat="48.38408" lon="2.52073">
        <ele>106.67</ele>
        <time>2016-08-27T07:07:28Z</time>
      </trkpt>
      <trkpt lat="48.38411" lon="2.52074">
        <ele>109.64</ele>
        <time>2016-08-27T07:07:44Z</time>
      </trkpt>
      <trkpt lat="48.384" lon="2.5208">
        <ele>112.1</ele>
        <time>2016-08-27T07:08:00Z</time>
      </trkpt>
      <trkpt lat="48.38402" lon="2.52083">
        <ele>113.21</ele>
        <time>2016-08-27T07:08:08Z</time>
      </trkpt>
      <trkpt lat="48.38399" lon="2.52096">
        <ele>115.6</ele>
        <time>2016-08-27T07:08:23Z</time>
      </trkpt>
      <trkpt lat="48.38398" lon="2.52096">
        <ele>115.83</ele>
        <time>2016-08-27T07:08:25Z</time>
      </trkpt>
      <trkpt lat="48.38394" lon="2.52105">
        <ele>118.4</ele>
        <time>2016-08-27T07:08:38Z</time>
      </trkpt>
      <trkpt lat="48.38387" lon="2.5211">
        <ele>121.46</ele>
        <time>2016-08-27T07:08:53Z</time>
      </trkpt>
      <trkpt lat="48.38379" lon="2.52114">
        <ele>123.35</ele>
        <time>2016-08-27T07:09:08Z</time>
      </trkpt>
      <trkpt lat="48.38379" lon="2.52116">
        <ele>123.23</ele>
        <time>2016-08-27T07:09:21Z</time>
      </trkpt>
      <trkpt lat="48.38383" lon="2.52115">
        <ele>123.36</ele>
        <time>2016-08-27T07:09:38Z</time>
      </trkpt>
      <trkpt lat="48.38384" lon="2.52115">
        <ele>123.48</ele>
        <time>2016-08-27T07:09:48Z</time>
      </trkpt>
      <trkpt lat="48.3838" lon="2.52116">
        <ele>123.83</ele>
        <time>2016-08-27T07:10:01Z</time>
      </trkpt>
      <trkpt lat="48.38382" lon="2.52115">
        <ele>123.97</ele>
        <time>2016-08-27T07:10:15Z</time>
      </trkpt>
      <trkpt lat="48.38382" lon="2.52114">
        <ele>123.72</ele>
        <time>2016-08-27T07:10:30Z</time>
      </trkpt>
      <trkpt lat="48.3838" lon="2.52112">
        <ele>124.12</ele>
        <time>2016-08-27T07:11:03Z</time>
      </trkpt>
      <trkpt lat="48.38381" lon="2.52128">
        <ele>123.54</ele>
        <time>2016-08-27T07:11:25Z</time>
      </trkpt>
      <trkpt lat="48.38373" lon="2.52156">
        <ele>121.96</ele>
        <time>2016-08-27T07:11:51Z</time>
      </trkpt>
      <trkpt lat="48.3837" lon="2.52188">
        <ele>121.85</ele>
        <time>2016-08-27T07:12:19Z</time>
      </trkpt>
      <trkpt lat="48.38371" lon="2.52197">
        <ele>121.78</ele>
        <time>2016-08-27T07:12:42Z</time>
      </trkpt>
      <trkpt lat="48.3838" lon="2.52193">
        <ele>121.99</ele>
        <time>2016-08-27T07:12:57Z</time>
      </trkpt>
      <trkpt lat="48.38384" lon="2.52203">
        <ele>120.63</ele>
        <time>2016-08-27T07:13:16Z</time>
      </trkpt>
      <trkpt lat="48.3839" lon="2.52195">
        <ele>122.54</ele>
        <time>2016-08-27T07:13:37Z</time>
      </trkpt>
      <trkpt lat="48.38395" lon="2.52205">
        <ele>119.52</ele>
        <time>2016-08-27T07:13:56Z</time>
      </trkpt>
      <trkpt lat="48.38399" lon="2.52211">
        <ele>116.41</ele>
        <time>2016-08-27T07:14:10Z</time>
      </trkpt>
      <trkpt lat="48.38402" lon="2.52219">
        <ele>113.6</ele>
        <time>2016-08-27T07:14:25Z</time>
      </trkpt>
      <trkpt lat="48.38405" lon="2.52227">
        <ele>110.42</ele>
        <time>2016-08-27T07:14:42Z</time>
      </trkpt>
      <trkpt lat="48.38403" lon="2.52239">
        <ele>107.76</ele>
        <time>2016-08-27T07:15:08Z</time>
      </trkpt>
      <trkpt lat="48.38403" lon="2.52241">
        <ele>106.53</ele>
        <time>2016-08-27T07:15:41Z</time>
      </trkpt>
      <trkpt lat="48.38395" lon="2.5225">
        <ele>104.77</ele>
        <time>2016-08-27T07:16:09Z</time>
      </trkpt>
      <trkpt lat="48.38385" lon="2.52263">
        <ele>101.39</ele>
        <time>2016-08-27T07:16:27Z</time>
      </trkpt>
      <trkpt lat="48.38381" lon="2.52267">
        <ele>100.22</ele>
        <time>2016-08-27T07:16:39Z</time>
      </trkpt>
      <trkpt lat="48.38388" lon="2.52272">
        <ele>97.04</ele>
        <time>2016-08-27T07:17:00Z</time>
      </trkpt>
      <trkpt lat="48.38388" lon="2.52273">
        <ele>96.61</ele>
        <time>2016-08-27T07:17:01Z</time>
      </trkpt>
      <trkpt lat="48.38408" lon="2.52279">
        <ele>93.24</ele>
        <time>2016-08-27T07:17:16Z</time>
      </trkpt>
      <trkpt lat="48.38413" lon="2.5229">
        <ele>91.61</ele>
        <time>2016-08-27T07:17:38Z</time>
      </trkpt>
      <trkpt lat="48.38416" lon="2.52301">
        <ele>94.11</ele>
        <time>2016-08-27T07:17:59Z</time>
      </trkpt>
      <trkpt lat="48.38426" lon="2.523">
        <ele>95.81</ele>
        <time>2016-08-27T07:18:23Z</time>
      </trkpt>
      <trkpt lat="48.38424" lon="2.52296">
        <ele>95.99</ele>
        <time>2016-08-27T07:18:54Z</time>
      </trkpt>
      <trkpt lat="48.38425" lon="2.52298">
        <ele>98.65</ele>
        <time>2016-08-27T07:19:15Z</time>
      </trkpt>
      <trkpt lat="48.38437" lon="2.52291">
        <ele>100.72</ele>
        <time>2016-08-27T07:19:43Z</time>
      </trkpt>
      <trkpt lat="48.38443" lon="2.52297">
        <ele>103.69</ele>
        <time>2016-08-27T07:20:06Z</time>
      </trkpt>
      <trkpt lat="48.38446" lon="2.523">
        <ele>106.82</ele>
        <time>2016-08-27T07:20:26Z</time>
      </trkpt>
      <trkpt lat="48.38449" lon="2.52308">
        <ele>107.93</ele>
        <time>2016-08-27T07:20:42Z</time>
      </trkpt>
      <trkpt lat="48.38459" lon="2.52315">
        <ele>111.03</ele>
        <time>2016-08-27T07:21:07Z</time>
      </trkpt>
      <trkpt lat="48.3846" lon="2.52315">
        <ele>111.67</ele>
        <time>2016-08-27T07:21:12Z</time>
      </trkpt>
      <trkpt lat="48.38469" lon="2.52317">
        <ele>114.35</ele>
        <time>2016-08-27T07:21:39Z</time>
      </trkpt>
      <trkpt lat="48.3847" lon="2.52326">
        <ele>115.73</ele>
        <time>2016-08-27T07:22:00Z</time>
      </trkpt>
      <trkpt lat="48.38478" lon="2.52327">
        <ele>118.62</ele>
        <time>2016-08-27T07:22:25Z</time>
      </trkpt>
      <trkpt lat="48.38483" lon="2.52329">
        <ele>118.99</ele>
        <time>2016-08-27T07:22:54Z</time>
      </trkpt>
      <trkpt lat="48.38495" lon="2.52326">
        <ele>118.7</ele>
        <time>2016-08-27T07:23:18Z</time>
      </trkpt>
      <trkpt lat="48.38513" lon="2.52317">
        <ele>116.63</ele>
        <time>2016-08-27T07:23:44Z</time>
      </trkpt>
      <trkpt lat="48.38521" lon="2.52311">
        <ele>113.61</ele>
        <time>2016-08-27T07:24:00Z</time>
      </trkpt>
      <trkpt lat="48.38527" lon="2.52313">
        <ele>110.51</ele>
        <time>2016-08-27T07:24:16Z</time>
      </trkpt>
      <trkpt lat="48.38529" lon="2.52305">
        <ele>107.5</ele>
        <time>2016-08-27T07:24:31Z</time>
      </trkpt>
      <trkpt lat="48.38538" lon="2.52306">
        <ele>104.43</ele>
        <time>2016-08-27T07:24:43Z</time>
      </trkpt>
      <trkpt lat="48.38546" lon="2.52316">
        <ele>101.39</ele>
        <time>2016-08-27T07:25:01Z</time>
      </trkpt>
      <trkpt lat="48.38552" lon="2.52304">
        <ele>101.27</ele>
        <time>2016-08-27T07:25:26Z</time>
      </trkpt>
      <trkpt lat="48.38561" lon="2.52289">
        <ele>98.23</ele>
        <time>2016-08-27T07:25:49Z</time>
      </trkpt>
      <trkpt lat="48.38568" lon="2.52285">
        <ele>96.27</ele>
        <time>2016-08-27T07:26:06Z</time>
      </trkpt>
      <trkpt lat="48.38583" lon="2.52295">
        <ele>93.04</ele>
        <time>2016-08-27T07:26:31Z</time>
      </trkpt>
      <trkpt lat="48.38595" lon="2.52304">
        <ele>91.83</ele>
        <time>2016-08-27T07:26:54Z</time>
      </trkpt>
      <trkpt lat="48.38609" lon="2.52315">
        <ele>88.83</ele>
        <time>2016-08-27T07:27:17Z</time>
      </trkpt>
      <trkpt lat="48.38619" lon="2.52307">
        <ele>85.67</ele>
        <time>2016-08-27T07:27:42Z</time>
      </trkpt>
      <trkpt lat="48.38627" lon="2.52309">
        <ele>82.57</ele>
        <time>2016-08-27T07:28:00Z</time>
      </trkpt>
      <trkpt lat="48.38634" lon="2.52306">
        <ele>79.54</ele>
        <time>2016-08-27T07:28:17Z</time>
      </trkpt>
      <trkpt lat="48.38646" lon="2.52309">
        <ele>76.25</ele>
        <time>2016-08-27T07:28:36Z</time>
      </trkpt>
      <trkpt lat="48.38653" lon="2.52307">
        <ele>75.5</ele>
        <time>2016-08-27T07:28:43Z</time>
      </trkpt>
      <trkpt lat="48.38671" lon="2.52303">
        <ele>72.95</ele>
        <time>2016-08-27T07:29:15Z</time>
      </trkpt>
      <trkpt lat="48.38677" lon="2.52317">
        <ele>72.91</ele>
        <time>2016-08-27T07:29:44Z</time>
      </trkpt>
      <trkpt lat="48.38671" lon="2.52325">
        <ele>72.92</ele>
        <time>2016-08-27T07:29:58Z</time>
      </trkpt>
      <trkpt lat="48.38675" lon="2.52321">
        <ele>72.84</ele>
        <time>2016-08-27T07:30:06Z</time>
      </trkpt>
      <trkpt lat="48.38682" lon="2.52316">
        <ele>72.94</ele>
        <time>2016-08-27T07:30:13Z</time>
      </trkpt>
      <trkpt lat="48.38692" lon="2.52316">
        <ele>72.64</ele>
        <time>2016-08-27T07:30:48Z</time>
      </trkpt>
      <trkpt lat="48.38693" lon="2.52318">
        <ele>72.42</ele>
        <time>2016-08-27T07:31:16Z</time>
      </trkpt>
      <trkpt lat="48.38712" lon="2.5232">
        <ele>73.68</ele>
        <time>2016-08-27T07:31:48Z</time>
      </trkpt>
      <trkpt lat="48.38735" lon="2.52319">
        <ele>76.45</ele>
        <time>2016-08-27T07:32:20Z</time>
      </trkpt>
      <trkpt lat="48.38757" lon="2.52295">
        <ele>79.09</ele>
        <time>2016-08-27T07:32:52Z</time>
      </trkpt>
      <trkpt lat="48.38772" lon="2.52273">
        <ele>82.3</ele>
        <time>2016-08-27T07:33:11Z</time>
      </trkpt>
      <trkpt lat="48.38784" lon="2.52255">
        <ele>85.44</ele>
        <time>2016-08-27T07:33:29Z</time>
      </trkpt>
      <trkpt lat="48.38796" lon="2.52257">
        <ele>88.51</ele>
        <time>2016-08-27T07:33:46Z</time>
      </trkpt>
      <trkpt lat="48.38805" lon="2.52265">
        <ele>91.58</ele>
        <time>2016-08-27T07:34:00Z</time>
      </trkpt>
      <trkpt lat="48.38814" lon="2.5227">
        <ele>94.72</ele>
        <time>2016-08-27T07:34:15Z</time>
      </trkpt>
      <trkpt lat="48.38826" lon="2.52279">
        <ele>97.72</ele>
        <time>2016-08-27T07:34:31Z</time>
      </trkpt>
      <trkpt lat="48.38832" lon="2.52283">
        <ele>100.76</ele>
        <time>2016-08-27T07:34:45Z</time>
      </trkpt>
      <trkpt lat="48.38844" lon="2.52274">
        <ele>103.95</ele>
        <time>2016-08-27T07:35:09Z</time>
      </trkpt>
      <trkpt lat="48.38853" lon="2.5227">
        <ele>106.96</ele>
        <time>2016-08-27T07:35:24Z</time>
      </trkpt>
      <trkpt lat="48.38858" lon="2.52264">
        <ele>109.15</ele>
        <time>2016-08-27T07:35:39Z</time>
      </trkpt>
      <trkpt lat="48.38865" lon="2.52267">
        <ele>111.9</ele>
        <time>2016-08-27T07:35:56Z</time>
      </trkpt>
      <trkpt lat="48.38866" lon="2.52268">
        <ele>112.95</ele>
        <time>2016-08-27T07:36:12Z</time>
      </trkpt>
      <trkpt lat="48.38875" lon="2.52273">
        <ele>116.16</ele>
        <time>2016-08-27T07:36:28Z</time>
      </trkpt>
      <trkpt lat="48.38876" lon="2.5228">
        <ele>119.34</ele>
        <time>2016-08-27T07:36:42Z</time>
      </trkpt>
      <trkpt lat="48.38886" lon="2.52283">
        <ele>120.48</ele>
        <time>2016-08-27T07:37:06Z</time>
      </trkpt>
      <trkpt lat="48.38888" lon="2.52275">
        <ele>120.24</ele>
        <time>2016-08-27T07:37:33Z</time>
      </trkpt>
      <trkpt lat="48.3889" lon="2.52275">
        <ele>120.64</ele>
        <time>2016-08-27T07:37:53Z</time>
      </trkpt>
      <trkpt lat="48.38895" lon="2.5228">
        <ele>120.59</ele>
        <time>2016-08-27T07:38:18Z</time>
      </trkpt>
      <trkpt lat="48.38911" lon="2.52283">
        <ele>120.27</ele>
        <time>2016-08-27T07:38:46Z</time>
      </trkpt>
      <trkpt lat="48.38925" lon="2.52273">
        <ele>118.71</ele>
        <time>2016-08-27T07:39:11Z</time>
      </trkpt>
      <trkpt lat="48.38929" lon="2.52264">
        <ele>116.05</ele>
        <time>2016-08-27T07:39:40Z</time>
      </trkpt>
      <trkpt lat="48.38933" lon="2.52252">
        <ele>112.94</ele>
        <time>2016-08-27T07:40:01Z</time>
      </trkpt>
      <trkpt lat="48.38933" lon="2.52236">
        <ele>109.86</ele>
        <time>2016-08-27T07:40:14Z</time>
      </trkpt>
      <trkpt lat="48.38935" lon="2.52226">
        <ele>106.86</ele>
        <time>2016-08-27T07:40:32Z</time>
      </trkpt>
      <trkpt lat="48.38939" lon="2.52214">
        <ele>103.7</ele>
        <time>2016-08-27T07:40:51Z</time>
      </trkpt>
      <trkpt lat="48.38941" lon="2.52201">
        <ele>100.5</ele>
        <time>2016-08-27T07:41:05Z</time>
      </trkpt>
      <trkpt lat="48.38935" lon="2.52187">
        <ele>97.47</ele>
        <time>2016-08-27T07:41:19Z</time>
      </trkpt>
      <trkpt lat="48.38936" lon="2.52174">
        <ele>94.34</ele>
        <time>2016-08-27T07:41:34Z</time>
      </trkpt>
      <trkpt lat="48.38939" lon="2.52161">
        <ele>91.15</ele>
        <time>2016-08-27T07:41:45Z</time>
      </trkpt>
      <trkpt lat="48.38945" lon="2.52154">
        <ele>90.23</ele>
        <time>2016-08-27T07:41:53Z</time>
      </trkpt>
      <trkpt lat="48.38951" lon="2.52144">
        <ele>87.93</ele>
        <time>2016-08-27T07:42:07Z</time>
      </trkpt>
      <trkpt lat="48.38954" lon="2.52133">
        <ele>86.5</ele>
        <time>2016-08-27T07:42:15Z</time>
      </trkpt>
      <trkpt lat="48.38963" lon="2.5211">
        <ele>83.34</ele>
        <time>2016-08-27T07:42:30Z</time>
      </trkpt>
      <trkpt lat="48.38966" lon="2.52107">
        <ele>82.85</ele>
        <time>2016-08-27T07:42:34Z</time>
      </trkpt>
      <trkpt lat="48.38975" lon="2.52092">
        <ele>80.09</ele>
        <time>2016-08-27T07:42:49Z</time>
      </trkpt>
      <trkpt lat="48.38977" lon="2.52073">
        <ele>78.45</ele>
        <time>2016-08-27T07:43:03Z</time>
      </trkpt>
      <trkpt lat="48.38984" lon="2.52056">
        <ele>76.43</ele>
        <time>2016-08-27T07:43:19Z</time>
      </trkpt>
      <trkpt lat="48.38996" lon="2.52051">
        <ele>74.86</ele>
        <time>2016-08-27T07:43:34Z</time>
      </trkpt>
      <trkpt lat="48.39005" lon="2.52046">
        <ele>74.24</ele>
        <time>2016-08-27T07:43:44Z</time>
      </trkpt>
      <trkpt lat="48.39014" lon="2.52041">
        <ele>73.82</ele>
        <time>2016-08-27T07:43:57Z</time>
      </trkpt>
      <trkpt lat="48.39033" lon="2.52041">
        <ele>73.13</ele>
        <time>2016-08-27T07:44:16Z</time>
      </trkpt>
      <trkpt lat="48.39049" lon="2.52035">
        <ele>73.15</ele>
        <time>2016-08-27T07:44:30Z</time>
      </trkpt>
      <trkpt lat="48.39059" lon="2.52039">
        <ele>73.47</ele>
        <time>2016-08-27T07:44:48Z</time>
      </trkpt>
      <trkpt lat="48.39062" lon="2.5204">
        <ele>73.51</ele>
        <time>2016-08-27T07:44:51Z</time>
      </trkpt>
      <trkpt lat="48.39073" lon="2.52047">
        <ele>73.8</ele>
        <time>2016-08-27T07:45:02Z</time>
      </trkpt>
      <trkpt lat="48.39082" lon="2.52053">
        <ele>73.96</ele>
        <time>2016-08-27T07:45:13Z</time>
      </trkpt>
      <trkpt lat="48.39096" lon="2.52053">
        <ele>74.28</ele>
        <time>2016-08-27T07:45:30Z</time>
      </trkpt>
      <trkpt lat="48.39109" lon="2.52051">
        <ele>74.56</ele>
        <time>2016-08-27T07:45:47Z</time>
      </trkpt>
      <trkpt lat="48.39124" lon="2.52057">
        <ele>74.95</ele>
        <time>2016-08-27T07:46:03Z</time>
      </trkpt>
      <trkpt lat="48.39134" lon="2.52068">
        <ele>75.13</ele>
        <time>2016-08-27T07:46:19Z</time>
      </trkpt>
      <trkpt lat="48.39141" lon="2.52075">
        <ele>75.64</ele>
        <time>2016-08-27T07:46:37Z</time>
      </trkpt>
      <trkpt lat="48.39145" lon="2.52077">
        <ele>75.71</ele>
        <time>2016-08-27T07:46:51Z</time>
      </trkpt>
      <trkpt lat="48.39147" lon="2.5208">
        <ele>75.79</ele>
        <time>2016-08-27T07:47:08Z</time>
      </trkpt>
      <trkpt lat="48.39154" lon="2.52082">
        <ele>76.12</ele>
        <time>2016-08-27T07:47:16Z</time>
      </trkpt>
      <trkpt lat="48.39162" lon="2.52096">
        <ele>76.94</ele>
        <time>2016-08-27T07:47:29Z</time>
      </trkpt>
      <trkpt lat="48.39176" lon="2.52105">
        <ele>77.72</ele>
        <time>2016-08-27T07:47:44Z</time>
      </trkpt>
      <trkpt lat="48.39188" lon="2.52112">
        <ele>78.49</ele>
        <time>2016-08-27T07:48:02Z</time>
      </trkpt>
      <trkpt lat="48.39197" lon="2.52107">
        <ele>79.1</ele>
        <time>2016-08-27T07:48:13Z</time>
      </trkpt>
      <trkpt lat="48.3921" lon="2.52095">
        <ele>80.33</ele>
        <time>2016-08-27T07:48:33Z</time>
      </trkpt>
      <trkpt lat="48.3922" lon="2.52085">
        <ele>81</ele>
        <time>2016-08-27T07:48:48Z</time>
      </trkpt>
      <trkpt lat="48.39242" lon="2.52077">
        <ele>82.73</ele>
        <time>2016-08-27T07:49:08Z</time>
      </trkpt>
      <trkpt lat="48.39247" lon="2.52067">
        <ele>84</ele>
        <time>2016-08-27T07:49:21Z</time>
      </trkpt>
      <trkpt lat="48.39244" lon="2.52045">
        <ele>84.46</ele>
        <time>2016-08-27T07:49:37Z</time>
      </trkpt>
      <trkpt lat="48.39247" lon="2.52027">
        <ele>85.48</ele>
        <time>2016-08-27T07:49:52Z</time>
      </trkpt>
      <trkpt lat="48.39255" lon="2.52012">
        <ele>85.81</ele>
        <time>2016-08-27T07:50:02Z</time>
      </trkpt>
      <trkpt lat="48.39262" lon="2.51985">
        <ele>86.79</ele>
        <time>2016-08-27T07:50:19Z</time>
      </trkpt>
      <trkpt lat="48.39271" lon="2.51963">
        <ele>88.5</ele>
        <time>2016-08-27T07:50:35Z</time>
      </trkpt>
      <trkpt lat="48.39272" lon="2.51942">
        <ele>89.66</ele>
        <time>2016-08-27T07:50:51Z</time>
      </trkpt>
      <trkpt lat="48.3928" lon="2.51929">
        <ele>90.6</ele>
        <time>2016-08-27T07:50:59Z</time>
      </trkpt>
      <trkpt lat="48.393" lon="2.51907">
        <ele>91.81</ele>
        <time>2016-08-27T07:51:14Z</time>
      </trkpt>
      <trkpt lat="48.39315" lon="2.51899">
        <ele>93.18</ele>
        <time>2016-08-27T07:51:31Z</time>
      </trkpt>
      <trkpt lat="48.39318" lon="2.51899">
        <ele>93.39</ele>
        <time>2016-08-27T07:51:33Z</time>
      </trkpt>
      <trkpt lat="48.39338" lon="2.51888">
        <ele>95.4</ele>
        <time>2016-08-27T07:51:50Z</time>
      </trkpt>
      <trkpt lat="48.39355" lon="2.51882">
        <ele>96.57</ele>
        <time>2016-08-27T07:52:03Z</time>
      </trkpt>
      <trkpt lat="48.39362" lon="2.51866">
        <ele>97.83</ele>
        <time>2016-08-27T07:52:17Z</time>
      </trkpt>
      <trkpt lat="48.39362" lon="2.51856">
        <ele>98.09</ele>
        <time>2016-08-27T07:52:23Z</time>
      </trkpt>
      <trkpt lat="48.39361" lon="2.51837">
        <ele>98.9</ele>
        <time>2016-08-27T07:52:38Z</time>
      </trkpt>
      <trkpt lat="48.3937" lon="2.5182">
        <ele>98.12</ele>
        <time>2016-08-27T07:52:52Z</time>
      </trkpt>
      <trkpt lat="48.39375" lon="2.51807">
        <ele>99.82</ele>
        <time>2016-08-27T07:53:08Z</time>
      </trkpt>
      <trkpt lat="48.39387" lon="2.51791">
        <ele>100.86</ele>
        <time>2016-08-27T07:53:24Z</time>
      </trkpt>
      <trkpt lat="48.394" lon="2.51779">
        <ele>99.5</ele>
        <time>2016-08-27T07:53:38Z</time>
      </trkpt>
      <trkpt lat="48.394" lon="2.51779">
        <ele>99.53</ele>
        <time>2016-08-27T07:53:56Z</time>
      </trkpt>
      <trkpt lat="48.39407" lon="2.5177">
        <ele>98.2</ele>
        <time>2016-08-27T07:54:12Z</time>
      </trkpt>
      <trkpt lat="48.39405" lon="2.5176">
        <ele>95.4</ele>
        <time>2016-08-27T07:54:26Z</time>
      </trkpt>
      <trkpt lat="48.39402" lon="2.51747">
        <ele>92.64</ele>
        <time>2016-08-27T07:54:39Z</time>
      </trkpt>
      <trkpt lat="48.39406" lon="2.51728">
        <ele>93.04</ele>
        <time>2016-08-27T07:54:52Z</time>
      </trkpt>
      <trkpt lat="48.39421" lon="2.51712">
        <ele>94.86</ele>
        <time>2016-08-27T07:55:08Z</time>
      </trkpt>
      <trkpt lat="48.3944" lon="2.51701">
        <ele>96.74</ele>
        <time>2016-08-27T07:55:28Z</time>
      </trkpt>
      <trkpt lat="48.39451" lon="2.51699">
        <ele>99.84</ele>
        <time>2016-08-27T07:55:45Z</time>
      </trkpt>
      <trkpt lat="48.39456" lon="2.51693">
        <ele>101.5</ele>
        <time>2016-08-27T07:55:54Z</time>
      </trkpt>
      <trkpt lat="48.39456" lon="2.51674">
        <ele>101.83</ele>
        <time>2016-08-27T07:56:10Z</time>
      </trkpt>
      <trkpt lat="48.39448" lon="2.51668">
        <ele>104.92</ele>
        <time>2016-08-27T07:56:26Z</time>
      </trkpt>
      <trkpt lat="48.39443" lon="2.51662">
        <ele>108.06</ele>
        <time>2016-08-27T07:56:41Z</time>
      </trkpt>
      <trkpt lat="48.3944" lon="2.51655">
        <ele>111.12</ele>
        <time>2016-08-27T07:56:59Z</time>
      </trkpt>
      <trkpt lat="48.39435" lon="2.5165">
        <ele>113.66</ele>
        <time>2016-08-27T07:57:15Z</time>
      </trkpt>
      <trkpt lat="48.39434" lon="2.51638">
        <ele>114.84</ele>
        <time>2016-08-27T07:57:29Z</time>
      </trkpt>
      <trkpt lat="48.39434" lon="2.51624">
        <ele>116.07</ele>
        <time>2016-08-27T07:57:41Z</time>
      </trkpt>
      <trkpt lat="48.39431" lon="2.51614">
        <ele>116.45</ele>
        <time>2016-08-27T07:57:56Z</time>
      </trkpt>
      <trkpt lat="48.39427" lon="2.51614">
        <ele>116.54</ele>
        <time>2016-08-27T07:58:21Z</time>
      </trkpt>
      <trkpt lat="48.3943" lon="2.51612">
        <ele>116.2</ele>
        <time>2016-08-27T07:58:49Z</time>
      </trkpt>
      <trkpt lat="48.39437" lon="2.51601">
        <ele>114.08</ele>
        <time>2016-08-27T07:59:09Z</time>
      </trkpt>
      <trkpt lat="48.39435" lon="2.51596">
        <ele>113.59</ele>
        <time>2016-08-27T07:59:24Z</time>
      </trkpt>
      <trkpt lat="48.3944" lon="2.51597">
        <ele>113.64</ele>
        <time>2016-08-27T07:59:44Z</time>
      </trkpt>
      <trkpt lat="48.39439" lon="2.51596">
        <ele>113.6</ele>
        <time>2016-08-27T08:00:03Z</time>
      </trkpt>
      <trkpt lat="48.39442" lon="2.51599">
        <ele>113.72</ele>
        <time>2016-08-27T08:00:18Z</time>
      </trkpt>
      <trkpt lat="48.3944" lon="2.51602">
        <ele>113.73</ele>
        <time>2016-08-27T08:00:21Z</time>
      </trkpt>
      <trkpt lat="48.39438" lon="2.51604">
        <ele>113.8</ele>
        <time>2016-08-27T08:00:25Z</time>
      </trkpt>
      <trkpt lat="48.39431" lon="2.51613">
        <ele>115.83</ele>
        <time>2016-08-27T08:00:41Z</time>
      </trkpt>
      <trkpt lat="48.39429" lon="2.51636">
        <ele>114.38</ele>
        <time>2016-08-27T08:01:10Z</time>
      </trkpt>
      <trkpt lat="48.39427" lon="2.51657">
        <ele>111.3</ele>
        <time>2016-08-27T08:01:39Z</time>
      </trkpt>
      <trkpt lat="48.39442" lon="2.51665">
        <ele>108.05</ele>
        <time>2016-08-27T08:01:58Z</time>
      </trkpt>
      <trkpt lat="48.39451" lon="2.51665">
        <ele>105.04</ele>
        <time>2016-08-27T08:02:14Z</time>
      </trkpt>
      <trkpt lat="48.39457" lon="2.51672">
        <ele>102</ele>
        <time>2016-08-27T08:02:24Z</time>
      </trkpt>
      <trkpt lat="48.39467" lon="2.51684">
        <ele>100.29</ele>
        <time>2016-08-27T08:02:36Z</time>
      </trkpt>
      <trkpt lat="48.39461" lon="2.51702">
        <ele>99.25</ele>
        <time>2016-08-27T08:02:58Z</time>
      </trkpt>
      <trkpt lat="48.39447" lon="2.51739">
        <ele>100.67</ele>
        <time>2016-08-27T08:03:27Z</time>
      </trkpt>
      <trkpt lat="48.39442" lon="2.51761">
        <ele>102.45</ele>
        <time>2016-08-27T08:03:55Z</time>
      </trkpt>
      <trkpt lat="48.39432" lon="2.51789">
        <ele>104.43</ele>
        <time>2016-08-27T08:04:21Z</time>
      </trkpt>
      <trkpt lat="48.39426" lon="2.51806">
        <ele>107.4</ele>
        <time>2016-08-27T08:04:42Z</time>
      </trkpt>
      <trkpt lat="48.39428" lon="2.51814">
        <ele>108.69</ele>
        <time>2016-08-27T08:04:54Z</time>
      </trkpt>
      <trkpt lat="48.39431" lon="2.51823">
        <ele>110.86</ele>
        <time>2016-08-27T08:05:14Z</time>
      </trkpt>
      <trkpt lat="48.39434" lon="2.51826">
        <ele>111.37</ele>
        <time>2016-08-27T08:05:18Z</time>
      </trkpt>
      <trkpt lat="48.39428" lon="2.51845">
        <ele>113.8</ele>
        <time>2016-08-27T08:05:35Z</time>
      </trkpt>
      <trkpt lat="48.39422" lon="2.51868">
        <ele>113.79</ele>
        <time>2016-08-27T08:05:52Z</time>
      </trkpt>
      <trkpt lat="48.39417" lon="2.51887">
        <ele>114.55</ele>
        <time>2016-08-27T08:06:07Z</time>
      </trkpt>
      <trkpt lat="48.39416" lon="2.51897">
        <ele>114.16</ele>
        <time>2016-08-27T08:06:17Z</time>
      </trkpt>
      <trkpt lat="48.39412" lon="2.51914">
        <ele>114.62</ele>
        <time>2016-08-27T08:06:33Z</time>
      </trkpt>
      <trkpt lat="48.39411" lon="2.51915">
        <ele>114.71</ele>
        <time>2016-08-27T08:06:34Z</time>
      </trkpt>
      <trkpt lat="48.39404" lon="2.51926">
        <ele>114.53</ele>
        <time>2016-08-27T08:06:50Z</time>
      </trkpt>
      <trkpt lat="48.39402" lon="2.5193">
        <ele>114.63</ele>
        <time>2016-08-27T08:06:53Z</time>
      </trkpt>
      <trkpt lat="48.39398" lon="2.5197">
        <ele>114.38</ele>
        <time>2016-08-27T08:07:15Z</time>
      </trkpt>
      <trkpt lat="48.39396" lon="2.51995">
        <ele>114.11</ele>
        <time>2016-08-27T08:07:31Z</time>
      </trkpt>
      <trkpt lat="48.39393" lon="2.52016">
        <ele>114.15</ele>
        <time>2016-08-27T08:07:47Z</time>
      </trkpt>
      <trkpt lat="48.39393" lon="2.52024">
        <ele>114.12</ele>
        <time>2016-08-27T08:07:51Z</time>
      </trkpt>
      <trkpt lat="48.39379" lon="2.52053">
        <ele>113.74</ele>
        <time>2016-08-27T08:08:10Z</time>
      </trkpt>
      <trkpt lat="48.3937" lon="2.52072">
        <ele>110.61</ele>
        <time>2016-08-27T08:08:28Z</time>
      </trkpt>
      <trkpt lat="48.39372" lon="2.52085">
        <ele>108.96</ele>
        <time>2016-08-27T08:08:36Z</time>
      </trkpt>
      <trkpt lat="48.39372" lon="2.52091">
        <ele>108.52</ele>
        <time>2016-08-27T08:08:39Z</time>
      </trkpt>
      <trkpt lat="48.39373" lon="2.52095">
        <ele>108.06</ele>
        <time>2016-08-27T08:08:42Z</time>
      </trkpt>
      <trkpt lat="48.39363" lon="2.52108">
        <ele>106.27</ele>
        <time>2016-08-27T08:08:57Z</time>
      </trkpt>
      <trkpt lat="48.3936" lon="2.5212">
        <ele>104.69</ele>
        <time>2016-08-27T08:09:12Z</time>
      </trkpt>
      <trkpt lat="48.39357" lon="2.52136">
        <ele>102.97</ele>
        <time>2016-08-27T08:09:29Z</time>
      </trkpt>
      <trkpt lat="48.3935" lon="2.5214">
        <ele>100.03</ele>
        <time>2016-08-27T08:09:45Z</time>
      </trkpt>
      <trkpt lat="48.39349" lon="2.52156">
        <ele>100.46</ele>
        <time>2016-08-27T08:10:02Z</time>
      </trkpt>
      <trkpt lat="48.39348" lon="2.52159">
        <ele>101.1</ele>
        <time>2016-08-27T08:10:08Z</time>
      </trkpt>
      <trkpt lat="48.3935" lon="2.52163">
        <ele>101.19</ele>
        <time>2016-08-27T08:10:11Z</time>
      </trkpt>
      <trkpt lat="48.39348" lon="2.52175">
        <ele>101.5</ele>
        <time>2016-08-27T08:10:19Z</time>
      </trkpt>
      <trkpt lat="48.39352" lon="2.52179">
        <ele>101.27</ele>
        <time>2016-08-27T08:10:35Z</time>
      </trkpt>
      <trkpt lat="48.39353" lon="2.52181">
        <ele>101.55</ele>
        <time>2016-08-27T08:10:37Z</time>
      </trkpt>
      <trkpt lat="48.39347" lon="2.52188">
        <ele>100.11</ele>
        <time>2016-08-27T08:10:47Z</time>
      </trkpt>
      <trkpt lat="48.39338" lon="2.52191">
        <ele>99.47</ele>
        <time>2016-08-27T08:10:59Z</time>
      </trkpt>
      <trkpt lat="48.39329" lon="2.52203">
        <ele>97.21</ele>
        <time>2016-08-27T08:11:15Z</time>
      </trkpt>
      <trkpt lat="48.39329" lon="2.52204">
        <ele>97.02</ele>
        <time>2016-08-27T08:11:16Z</time>
      </trkpt>
      <trkpt lat="48.3932" lon="2.52207">
        <ele>94.46</ele>
        <time>2016-08-27T08:11:29Z</time>
      </trkpt>
      <trkpt lat="48.39315" lon="2.52214">
        <ele>92.14</ele>
        <time>2016-08-27T08:11:42Z</time>
      </trkpt>
      <trkpt lat="48.3931" lon="2.52217">
        <ele>90.61</ele>
        <time>2016-08-27T08:11:52Z</time>
      </trkpt>
      <trkpt lat="48.39303" lon="2.52225">
        <ele>88.01</ele>
        <time>2016-08-27T08:12:10Z</time>
      </trkpt>
      <trkpt lat="48.39296" lon="2.52216">
        <ele>87.04</ele>
        <time>2016-08-27T08:12:25Z</time>
      </trkpt>
      <trkpt lat="48.39294" lon="2.52215">
        <ele>87.06</ele>
        <time>2016-08-27T08:12:27Z</time>
      </trkpt>
      <trkpt lat="48.39277" lon="2.52217">
        <ele>83.96</ele>
        <time>2016-08-27T08:12:45Z</time>
      </trkpt>
      <trkpt lat="48.39276" lon="2.52222">
        <ele>82.44</ele>
        <time>2016-08-27T08:12:58Z</time>
      </trkpt>
      <trkpt lat="48.39272" lon="2.52228">
        <ele>82.22</ele>
        <time>2016-08-27T08:13:03Z</time>
      </trkpt>
      <trkpt lat="48.3926" lon="2.52222">
        <ele>81.2</ele>
        <time>2016-08-27T08:13:19Z</time>
      </trkpt>
      <trkpt lat="48.39254" lon="2.52229">
        <ele>82.21</ele>
        <time>2016-08-27T08:13:34Z</time>
      </trkpt>
      <trkpt lat="48.39248" lon="2.5224">
        <ele>84.23</ele>
        <time>2016-08-27T08:13:52Z</time>
      </trkpt>
      <trkpt lat="48.39248" lon="2.52248">
        <ele>86.34</ele>
        <time>2016-08-27T08:14:06Z</time>
      </trkpt>
      <trkpt lat="48.39253" lon="2.52249">
        <ele>88.05</ele>
        <time>2016-08-27T08:14:20Z</time>
      </trkpt>
      <trkpt lat="48.39247" lon="2.52261">
        <ele>90.09</ele>
        <time>2016-08-27T08:14:34Z</time>
      </trkpt>
      <trkpt lat="48.39247" lon="2.52275">
        <ele>92.33</ele>
        <time>2016-08-27T08:14:51Z</time>
      </trkpt>
      <trkpt lat="48.39242" lon="2.52279">
        <ele>93.98</ele>
        <time>2016-08-27T08:15:07Z</time>
      </trkpt>
      <trkpt lat="48.39238" lon="2.52288">
        <ele>95.2</ele>
        <time>2016-08-27T08:15:20Z</time>
      </trkpt>
      <trkpt lat="48.39241" lon="2.52296">
        <ele>96.32</ele>
        <time>2016-08-27T08:15:33Z</time>
      </trkpt>
      <trkpt lat="48.39237" lon="2.52306">
        <ele>97.21</ele>
        <time>2016-08-27T08:15:48Z</time>
      </trkpt>
      <trkpt lat="48.39231" lon="2.52325">
        <ele>99.23</ele>
        <time>2016-08-27T08:16:07Z</time>
      </trkpt>
      <trkpt lat="48.39232" lon="2.52329">
        <ele>100.06</ele>
        <time>2016-08-27T08:16:17Z</time>
      </trkpt>
      <trkpt lat="48.39223" lon="2.52341">
        <ele>101.45</ele>
        <time>2016-08-27T08:16:38Z</time>
      </trkpt>
      <trkpt lat="48.39223" lon="2.52341">
        <ele>101.6</ele>
        <time>2016-08-27T08:16:48Z</time>
      </trkpt>
      <trkpt lat="48.39213" lon="2.52347">
        <ele>104.02</ele>
        <time>2016-08-27T08:17:05Z</time>
      </trkpt>
      <trkpt lat="48.39212" lon="2.52349">
        <ele>104.98</ele>
        <time>2016-08-27T08:17:15Z</time>
      </trkpt>
      <trkpt lat="48.39211" lon="2.52353">
        <ele>105.09</ele>
        <time>2016-08-27T08:17:32Z</time>
      </trkpt>
      <trkpt lat="48.39206" lon="2.52356">
        <ele>105.07</ele>
        <time>2016-08-27T08:17:47Z</time>
      </trkpt>
      <trkpt lat="48.39207" lon="2.52352">
        <ele>105.46</ele>
        <time>2016-08-27T08:18:04Z</time>
      </trkpt>
      <trkpt lat="48.39204" lon="2.52353">
        <ele>106.56</ele>
        <time>2016-08-27T08:18:19Z</time>
      </trkpt>
      <trkpt lat="48.39201" lon="2.52351">
        <ele>107.67</ele>
        <time>2016-08-27T08:18:24Z</time>
      </trkpt>
      <trkpt lat="48.39192" lon="2.52356">
        <ele>110.84</ele>
        <time>2016-08-27T08:18:37Z</time>
      </trkpt>
      <trkpt lat="48.3919" lon="2.52367">
        <ele>112.48</ele>
        <time>2016-08-27T08:18:48Z</time>
      </trkpt>
      <trkpt lat="48.39178" lon="2.52374">
        <ele>113.69</ele>
        <time>2016-08-27T08:19:06Z</time>
      </trkpt>
      <trkpt lat="48.39174" lon="2.52377">
        <ele>114.21</ele>
        <time>2016-08-27T08:19:19Z</time>
      </trkpt>
      <trkpt lat="48.39168" lon="2.52377">
        <ele>115.07</ele>
        <time>2016-08-27T08:19:36Z</time>
      </trkpt>
      <trkpt lat="48.39158" lon="2.52396">
        <ele>115.8</ele>
        <time>2016-08-27T08:19:52Z</time>
      </trkpt>
      <trkpt lat="48.39156" lon="2.52396">
        <ele>115.86</ele>
        <time>2016-08-27T08:19:54Z</time>
      </trkpt>
      <trkpt lat="48.39146" lon="2.52398">
        <ele>116.16</ele>
        <time>2016-08-27T08:20:02Z</time>
      </trkpt>
      <trkpt lat="48.39131" lon="2.52396">
        <ele>116.6</ele>
        <time>2016-08-27T08:20:20Z</time>
      </trkpt>
      <trkpt lat="48.39118" lon="2.5239">
        <ele>116.83</ele>
        <time>2016-08-27T08:20:37Z</time>
      </trkpt>
      <trkpt lat="48.39112" lon="2.5239">
        <ele>117.58</ele>
        <time>2016-08-27T08:20:54Z</time>
      </trkpt>
      <trkpt lat="48.39111" lon="2.52386">
        <ele>117.36</ele>
        <time>2016-08-27T08:20:59Z</time>
      </trkpt>
      <trkpt lat="48.39098" lon="2.52374">
        <ele>117.87</ele>
        <time>2016-08-27T08:21:15Z</time>
      </trkpt>
      <trkpt lat="48.39088" lon="2.52366">
        <ele>117.56</ele>
        <time>2016-08-27T08:21:30Z</time>
      </trkpt>
      <trkpt lat="48.39078" lon="2.52373">
        <ele>117.3</ele>
        <time>2016-08-27T08:21:46Z</time>
      </trkpt>
      <trkpt lat="48.39077" lon="2.52378">
        <ele>117.1</ele>
        <time>2016-08-27T08:21:50Z</time>
      </trkpt>
      <trkpt lat="48.39065" lon="2.52404">
        <ele>116.75</ele>
        <time>2016-08-27T08:22:07Z</time>
      </trkpt>
      <trkpt lat="48.39058" lon="2.52412">
        <ele>115.66</ele>
        <time>2016-08-27T08:22:17Z</time>
      </trkpt>
      <trkpt lat="48.39051" lon="2.52421">
        <ele>116.19</ele>
        <time>2016-08-27T08:22:28Z</time>
      </trkpt>
      <trkpt lat="48.39031" lon="2.52423">
        <ele>117.13</ele>
        <time>2016-08-27T08:22:47Z</time>
      </trkpt>
      <trkpt lat="48.3903" lon="2.52424">
        <ele>117.04</ele>
        <time>2016-08-27T08:22:48Z</time>
      </trkpt>
      <trkpt lat="48.39026" lon="2.52436">
        <ele>117.27</ele>
        <time>2016-08-27T08:23:03Z</time>
      </trkpt>
      <trkpt lat="48.39033" lon="2.52449">
        <ele>117.19</ele>
        <time>2016-08-27T08:23:14Z</time>
      </trkpt>
      <trkpt lat="48.39039" lon="2.52469">
        <ele>117.18</ele>
        <time>2016-08-27T08:23:27Z</time>
      </trkpt>
      <trkpt lat="48.39043" lon="2.52511">
        <ele>116.58</ele>
        <time>2016-08-27T08:23:56Z</time>
      </trkpt>
      <trkpt lat="48.39043" lon="2.52545">
        <ele>117.88</ele>
        <time>2016-08-27T08:24:18Z</time>
      </trkpt>
      <trkpt lat="48.39036" lon="2.5256">
        <ele>117.85</ele>
        <time>2016-08-27T08:24:31Z</time>
      </trkpt>
      <trkpt lat="48.39029" lon="2.52575">
        <ele>118.2</ele>
        <time>2016-08-27T08:24:41Z</time>
      </trkpt>
      <trkpt lat="48.39024" lon="2.5259">
        <ele>118.6</ele>
        <time>2016-08-27T08:24:50Z</time>
      </trkpt>
      <trkpt lat="48.39023" lon="2.52593">
        <ele>118.67</ele>
        <time>2016-08-27T08:24:53Z</time>
      </trkpt>
      <trkpt lat="48.39018" lon="2.52613">
        <ele>118.85</ele>
        <time>2016-08-27T08:25:04Z</time>
      </trkpt>
      <trkpt lat="48.39016" lon="2.52623">
        <ele>118.54</ele>
        <time>2016-08-27T08:25:12Z</time>
      </trkpt>
      <trkpt lat="48.39015" lon="2.52633">
        <ele>118.57</ele>
        <time>2016-08-27T08:25:19Z</time>
      </trkpt>
      <trkpt lat="48.39014" lon="2.52656">
        <ele>118.21</ele>
        <time>2016-08-27T08:25:33Z</time>
      </trkpt>
      <trkpt lat="48.39015" lon="2.52659">
        <ele>118.29</ele>
        <time>2016-08-27T08:25:35Z</time>
      </trkpt>
      <trkpt lat="48.39024" lon="2.52689">
        <ele>118.36</ele>
        <time>2016-08-27T08:25:53Z</time>
      </trkpt>
      <trkpt lat="48.39025" lon="2.52693">
        <ele>118.35</ele>
        <time>2016-08-27T08:25:56Z</time>
      </trkpt>
      <trkpt lat="48.39026" lon="2.52697">
        <ele>118.39</ele>
        <time>2016-08-27T08:25:59Z</time>
      </trkpt>
      <trkpt lat="48.39022" lon="2.52715">
        <ele>116.87</ele>
        <time>2016-08-27T08:26:13Z</time>
      </trkpt>
      <trkpt lat="48.39022" lon="2.52716">
        <ele>116.71</ele>
        <time>2016-08-27T08:26:17Z</time>
      </trkpt>
      <trkpt lat="48.39027" lon="2.52731">
        <ele>113.5</ele>
        <time>2016-08-27T08:26:38Z</time>
      </trkpt>
      <trkpt lat="48.39032" lon="2.52745">
        <ele>110.24</ele>
        <time>2016-08-27T08:26:53Z</time>
      </trkpt>
      <trkpt lat="48.39035" lon="2.52761">
        <ele>107.14</ele>
        <time>2016-08-27T08:27:09Z</time>
      </trkpt>
      <trkpt lat="48.3903" lon="2.52778">
        <ele>103.94</ele>
        <time>2016-08-27T08:27:27Z</time>
      </trkpt>
      <trkpt lat="48.39036" lon="2.52793">
        <ele>101.54</ele>
        <time>2016-08-27T08:27:49Z</time>
      </trkpt>
      <trkpt lat="48.39037" lon="2.52789">
        <ele>101.45</ele>
        <time>2016-08-27T08:28:05Z</time>
      </trkpt>
      <trkpt lat="48.39036" lon="2.52785">
        <ele>101.17</ele>
        <time>2016-08-27T08:28:42Z</time>
      </trkpt>
      <trkpt lat="48.39042" lon="2.5279">
        <ele>101.36</ele>
        <time>2016-08-27T08:29:17Z</time>
      </trkpt>
      <trkpt lat="48.39043" lon="2.52791">
        <ele>101.28</ele>
        <time>2016-08-27T08:29:26Z</time>
      </trkpt>
      <trkpt lat="48.39037" lon="2.52808">
        <ele>99.32</ele>
        <time>2016-08-27T08:29:51Z</time>
      </trkpt>
      <trkpt lat="48.39022" lon="2.5283">
        <ele>96.88</ele>
        <time>2016-08-27T08:30:18Z</time>
      </trkpt>
      <trkpt lat="48.39011" lon="2.52846">
        <ele>93.74</ele>
        <time>2016-08-27T08:30:40Z</time>
      </trkpt>
      <trkpt lat="48.39005" lon="2.52868">
        <ele>91.21</ele>
        <time>2016-08-27T08:30:56Z</time>
      </trkpt>
      <trkpt lat="48.39004" lon="2.5287">
        <ele>91.1</ele>
        <time>2016-08-27T08:30:57Z</time>
      </trkpt>
      <trkpt lat="48.38995" lon="2.5288">
        <ele>91.38</ele>
        <time>2016-08-27T08:31:12Z</time>
      </trkpt>
      <trkpt lat="48.38992" lon="2.52893">
        <ele>89.86</ele>
        <time>2016-08-27T08:31:28Z</time>
      </trkpt>
      <trkpt lat="48.38986" lon="2.52895">
        <ele>89.11</ele>
        <time>2016-08-27T08:31:37Z</time>
      </trkpt>
      <trkpt lat="48.38973" lon="2.52891">
        <ele>91.06</ele>
        <time>2016-08-27T08:31:56Z</time>
      </trkpt>
      <trkpt lat="48.38962" lon="2.52897">
        <ele>89.89</ele>
        <time>2016-08-27T08:32:11Z</time>
      </trkpt>
      <trkpt lat="48.38951" lon="2.52897">
        <ele>88.7</ele>
        <time>2016-08-27T08:32:22Z</time>
      </trkpt>
      <trkpt lat="48.38945" lon="2.52898">
        <ele>89.02</ele>
        <time>2016-08-27T08:32:28Z</time>
      </trkpt>
      <trkpt lat="48.38936" lon="2.52905">
        <ele>87.45</ele>
        <time>2016-08-27T08:32:44Z</time>
      </trkpt>
      <trkpt lat="48.38927" lon="2.52911">
        <ele>86.5</ele>
        <time>2016-08-27T08:32:57Z</time>
      </trkpt>
      <trkpt lat="48.38914" lon="2.52921">
        <ele>85.47</ele>
        <time>2016-08-27T08:33:11Z</time>
      </trkpt>
      <trkpt lat="48.38909" lon="2.52923">
        <ele>85.48</ele>
        <time>2016-08-27T08:33:15Z</time>
      </trkpt>
      <trkpt lat="48.38902" lon="2.52938">
        <ele>86.34</ele>
        <time>2016-08-27T08:33:31Z</time>
      </trkpt>
      <trkpt lat="48.38906" lon="2.52954">
        <ele>88.23</ele>
        <time>2016-08-27T08:33:48Z</time>
      </trkpt>
      <trkpt lat="48.38907" lon="2.52953">
        <ele>88.36</ele>
        <time>2016-08-27T08:33:53Z</time>
      </trkpt>
      <trkpt lat="48.38903" lon="2.52959">
        <ele>91.61</ele>
        <time>2016-08-27T08:34:11Z</time>
      </trkpt>
      <trkpt lat="48.38902" lon="2.52965">
        <ele>94.08</ele>
        <time>2016-08-27T08:34:27Z</time>
      </trkpt>
      <trkpt lat="48.38895" lon="2.52963">
        <ele>96.34</ele>
        <time>2016-08-27T08:34:43Z</time>
      </trkpt>
      <trkpt lat="48.38893" lon="2.52964">
        <ele>96.6</ele>
        <time>2016-08-27T08:34:59Z</time>
      </trkpt>
      <trkpt lat="48.38888" lon="2.52965">
        <ele>97.15</ele>
        <time>2016-08-27T08:35:18Z</time>
      </trkpt>
      <trkpt lat="48.38886" lon="2.52966">
        <ele>98.38</ele>
        <time>2016-08-27T08:35:32Z</time>
      </trkpt>
      <trkpt lat="48.3889" lon="2.52966">
        <ele>98.81</ele>
        <time>2016-08-27T08:35:48Z</time>
      </trkpt>
      <trkpt lat="48.38888" lon="2.5297">
        <ele>99.69</ele>
        <time>2016-08-27T08:36:04Z</time>
      </trkpt>
      <trkpt lat="48.38877" lon="2.52968">
        <ele>102.22</ele>
        <time>2016-08-27T08:36:19Z</time>
      </trkpt>
      <trkpt lat="48.38873" lon="2.5297">
        <ele>104.35</ele>
        <time>2016-08-27T08:36:31Z</time>
      </trkpt>
      <trkpt lat="48.38874" lon="2.52975">
        <ele>105.39</ele>
        <time>2016-08-27T08:36:37Z</time>
      </trkpt>
      <trkpt lat="48.38874" lon="2.5298">
        <ele>105.74</ele>
        <time>2016-08-27T08:36:40Z</time>
      </trkpt>
      <trkpt lat="48.38876" lon="2.52991">
        <ele>106.64</ele>
        <time>2016-08-27T08:36:55Z</time>
      </trkpt>
      <trkpt lat="48.38874" lon="2.53006">
        <ele>108.29</ele>
        <time>2016-08-27T08:37:15Z</time>
      </trkpt>
      <trkpt lat="48.3887" lon="2.53005">
        <ele>109.64</ele>
        <time>2016-08-27T08:37:40Z</time>
      </trkpt>
      <trkpt lat="48.38867" lon="2.53006">
        <ele>110.78</ele>
        <time>2016-08-27T08:38:08Z</time>
      </trkpt>
      <trkpt lat="48.38869" lon="2.53006">
        <ele>110.96</ele>
        <time>2016-08-27T08:38:27Z</time>
      </trkpt>
      <trkpt lat="48.3887" lon="2.53009">
        <ele>110.98</ele>
        <time>2016-08-27T08:38:52Z</time>
      </trkpt>
      <trkpt lat="48.38872" lon="2.5301">
        <ele>110.22</ele>
        <time>2016-08-27T08:39:18Z</time>
      </trkpt>
      <trkpt lat="48.38872" lon="2.53011">
        <ele>110.25</ele>
        <time>2016-08-27T08:39:45Z</time>
      </trkpt>
      <trkpt lat="48.38867" lon="2.52998">
        <ele>111.05</ele>
        <time>2016-08-27T08:40:07Z</time>
      </trkpt>
      <trkpt lat="48.38863" lon="2.52991">
        <ele>111.12</ele>
        <time>2016-08-27T08:40:34Z</time>
      </trkpt>
      <trkpt lat="48.38863" lon="2.52994">
        <ele>110.9</ele>
        <time>2016-08-27T08:40:58Z</time>
      </trkpt>
      <trkpt lat="48.38865" lon="2.52978">
        <ele>109.51</ele>
        <time>2016-08-27T08:41:26Z</time>
      </trkpt>
      <trkpt lat="48.38866" lon="2.52979">
        <ele>109.52</ele>
        <time>2016-08-27T08:42:10Z</time>
      </trkpt>
      <trkpt lat="48.38864" lon="2.52975">
        <ele>109.71</ele>
        <time>2016-08-27T08:42:41Z</time>
      </trkpt>
      <trkpt lat="48.38865" lon="2.52991">
        <ele>110.96</ele>
        <time>2016-08-27T08:43:05Z</time>
      </trkpt>
      <trkpt lat="48.38864" lon="2.52992">
        <ele>110.79</ele>
        <time>2016-08-27T08:43:33Z</time>
      </trkpt>
      <trkpt lat="48.38862" lon="2.52998">
        <ele>110.76</ele>
        <time>2016-08-27T08:44:09Z</time>
      </trkpt>
      <trkpt lat="48.38863" lon="2.52997">
        <ele>111.02</ele>
        <time>2016-08-27T08:44:41Z</time>
      </trkpt>
      <trkpt lat="48.38863" lon="2.52996">
        <ele>111.11</ele>
        <time>2016-08-27T08:44:54Z</time>
      </trkpt>
      <trkpt lat="48.38861" lon="2.52994">
        <ele>110.74</ele>
        <time>2016-08-27T08:45:28Z</time>
      </trkpt>
      <trkpt lat="48.38862" lon="2.52992">
        <ele>110.67</ele>
        <time>2016-08-27T08:45:57Z</time>
      </trkpt>
      <trkpt lat="48.38861" lon="2.52994">
        <ele>111.02</ele>
        <time>2016-08-27T08:46:29Z</time>
      </trkpt>
      <trkpt lat="48.38861" lon="2.52994">
        <ele>110.72</ele>
        <time>2016-08-27T08:47:02Z</time>
      </trkpt>
      <trkpt lat="48.38861" lon="2.52994">
        <ele>110.67</ele>
        <time>2016-08-27T08:47:33Z</time>
      </trkpt>
      <trkpt lat="48.38862" lon="2.52992">
        <ele>111.25</ele>
        <time>2016-08-27T08:48:04Z</time>
      </trkpt>
      <trkpt lat="48.38861" lon="2.52994">
        <ele>111.14</ele>
        <time>2016-08-27T08:48:36Z</time>
      </trkpt>
      <trkpt lat="48.38861" lon="2.52996">
        <ele>110.82</ele>
        <time>2016-08-27T08:49:11Z</time>
      </trkpt>
      <trkpt lat="48.38862" lon="2.52996">
        <ele>110.9</ele>
        <time>2016-08-27T08:49:27Z</time>
      </trkpt>
      <trkpt lat="48.38862" lon="2.52996">
        <ele>111.07</ele>
        <time>2016-08-27T08:50:01Z</time>
      </trkpt>
      <trkpt lat="48.38867" lon="2.53001">
        <ele>111.25</ele>
        <time>2016-08-27T08:50:27Z</time>
      </trkpt>
      <trkpt lat="48.38871" lon="2.52999">
        <ele>110</ele>
        <time>2016-08-27T08:50:48Z</time>
      </trkpt>
      <trkpt lat="48.38873" lon="2.53">
        <ele>110.48</ele>
        <time>2016-08-27T08:51:15Z</time>
      </trkpt>
      <trkpt lat="48.38875" lon="2.53004">
        <ele>109.46</ele>
        <time>2016-08-27T08:51:40Z</time>
      </trkpt>
      <trkpt lat="48.38877" lon="2.53008">
        <ele>108.67</ele>
        <time>2016-08-27T08:52:12Z</time>
      </trkpt>
      <trkpt lat="48.38878" lon="2.53012">
        <ele>107.39</ele>
        <time>2016-08-27T08:52:38Z</time>
      </trkpt>
      <trkpt lat="48.3888" lon="2.53007">
        <ele>105.71</ele>
        <time>2016-08-27T08:53:07Z</time>
      </trkpt>
      <trkpt lat="48.38884" lon="2.53017">
        <ele>102.54</ele>
        <time>2016-08-27T08:53:32Z</time>
      </trkpt>
      <trkpt lat="48.38885" lon="2.53029">
        <ele>99.36</ele>
        <time>2016-08-27T08:53:55Z</time>
      </trkpt>
      <trkpt lat="48.38887" lon="2.53039">
        <ele>96.19</ele>
        <time>2016-08-27T08:54:14Z</time>
      </trkpt>
      <trkpt lat="48.38893" lon="2.53042">
        <ele>93.15</ele>
        <time>2016-08-27T08:54:33Z</time>
      </trkpt>
      <trkpt lat="48.38903" lon="2.53045">
        <ele>90.12</ele>
        <time>2016-08-27T08:54:50Z</time>
      </trkpt>
      <trkpt lat="48.38902" lon="2.53047">
        <ele>88.83</ele>
        <time>2016-08-27T08:54:59Z</time>
      </trkpt>
      <trkpt lat="48.38906" lon="2.53056">
        <ele>85.53</ele>
        <time>2016-08-27T08:55:17Z</time>
      </trkpt>
      <trkpt lat="48.38913" lon="2.53064">
        <ele>82.47</ele>
        <time>2016-08-27T08:55:29Z</time>
      </trkpt>
      <trkpt lat="48.38933" lon="2.53093">
        <ele>80.7</ele>
        <time>2016-08-27T08:55:56Z</time>
      </trkpt>
      <trkpt lat="48.38943" lon="2.5311">
        <ele>83.83</ele>
        <time>2016-08-27T08:56:15Z</time>
      </trkpt>
      <trkpt lat="48.38942" lon="2.53124">
        <ele>87.09</ele>
        <time>2016-08-27T08:56:31Z</time>
      </trkpt>
      <trkpt lat="48.38939" lon="2.53127">
        <ele>88.65</ele>
        <time>2016-08-27T08:56:39Z</time>
      </trkpt>
      <trkpt lat="48.3894" lon="2.53128">
        <ele>89.02</ele>
        <time>2016-08-27T08:56:42Z</time>
      </trkpt>
      <trkpt lat="48.38943" lon="2.53137">
        <ele>92.15</ele>
        <time>2016-08-27T08:56:56Z</time>
      </trkpt>
      <trkpt lat="48.38941" lon="2.53139">
        <ele>93.75</ele>
        <time>2016-08-27T08:57:08Z</time>
      </trkpt>
      <trkpt lat="48.3894" lon="2.53142">
        <ele>94.22</ele>
        <time>2016-08-27T08:57:11Z</time>
      </trkpt>
      <trkpt lat="48.38938" lon="2.53155">
        <ele>97.55</ele>
        <time>2016-08-27T08:57:29Z</time>
      </trkpt>
      <trkpt lat="48.38939" lon="2.53165">
        <ele>100.66</ele>
        <time>2016-08-27T08:57:47Z</time>
      </trkpt>
      <trkpt lat="48.38938" lon="2.53177">
        <ele>103.71</ele>
        <time>2016-08-27T08:58:04Z</time>
      </trkpt>
      <trkpt lat="48.38943" lon="2.53182">
        <ele>104.86</ele>
        <time>2016-08-27T08:58:30Z</time>
      </trkpt>
      <trkpt lat="48.38947" lon="2.5319">
        <ele>107.94</ele>
        <time>2016-08-27T08:58:46Z</time>
      </trkpt>
      <trkpt lat="48.38951" lon="2.53192">
        <ele>108.65</ele>
        <time>2016-08-27T08:59:09Z</time>
      </trkpt>
      <trkpt lat="48.38952" lon="2.5319">
        <ele>109.47</ele>
        <time>2016-08-27T08:59:36Z</time>
      </trkpt>
      <trkpt lat="48.38955" lon="2.53205">
        <ele>107.2</ele>
        <time>2016-08-27T08:59:58Z</time>
      </trkpt>
      <trkpt lat="48.3897" lon="2.53228">
        <ele>105.78</ele>
        <time>2016-08-27T09:00:22Z</time>
      </trkpt>
      <trkpt lat="48.38976" lon="2.53253">
        <ele>102.77</ele>
        <time>2016-08-27T09:00:42Z</time>
      </trkpt>
      <trkpt lat="48.38982" lon="2.53273">
        <ele>99.56</ele>
        <time>2016-08-27T09:01:01Z</time>
      </trkpt>
      <trkpt lat="48.38983" lon="2.53278">
        <ele>98.53</ele>
        <time>2016-08-27T09:01:06Z</time>
      </trkpt>
      <trkpt lat="48.3899" lon="2.5328">
        <ele>97.25</ele>
        <time>2016-08-27T09:01:30Z</time>
      </trkpt>
      <trkpt lat="48.3899" lon="2.53279">
        <ele>97.87</ele>
        <time>2016-08-27T09:01:36Z</time>
      </trkpt>
      <trkpt lat="48.38997" lon="2.5327">
        <ele>99.97</ele>
        <time>2016-08-27T09:02:01Z</time>
      </trkpt>
      <trkpt lat="48.39002" lon="2.53268">
        <ele>100.34</ele>
        <time>2016-08-27T09:02:14Z</time>
      </trkpt>
      <trkpt lat="48.39007" lon="2.53276">
        <ele>102.26</ele>
        <time>2016-08-27T09:02:28Z</time>
      </trkpt>
      <trkpt lat="48.39007" lon="2.53287">
        <ele>104.42</ele>
        <time>2016-08-27T09:02:47Z</time>
      </trkpt>
      <trkpt lat="48.39006" lon="2.53289">
        <ele>104.42</ele>
        <time>2016-08-27T09:03:03Z</time>
      </trkpt>
      <trkpt lat="48.39004" lon="2.53298">
        <ele>106.06</ele>
        <time>2016-08-27T09:03:35Z</time>
      </trkpt>
      <trkpt lat="48.39004" lon="2.53298">
        <ele>106.29</ele>
        <time>2016-08-27T09:03:38Z</time>
      </trkpt>
      <trkpt lat="48.39016" lon="2.53306">
        <ele>109.22</ele>
        <time>2016-08-27T09:04:07Z</time>
      </trkpt>
      <trkpt lat="48.3902" lon="2.53308">
        <ele>110.14</ele>
        <time>2016-08-27T09:04:17Z</time>
      </trkpt>
      <trkpt lat="48.39018" lon="2.5331">
        <ele>110.6</ele>
        <time>2016-08-27T09:04:27Z</time>
      </trkpt>
      <trkpt lat="48.39017" lon="2.53319">
        <ele>112.54</ele>
        <time>2016-08-27T09:04:52Z</time>
      </trkpt>
      <trkpt lat="48.39024" lon="2.53327">
        <ele>113.91</ele>
        <time>2016-08-27T09:05:15Z</time>
      </trkpt>
      <trkpt lat="48.39027" lon="2.53334">
        <ele>116.94</ele>
        <time>2016-08-27T09:05:33Z</time>
      </trkpt>
      <trkpt lat="48.39023" lon="2.53357">
        <ele>117.69</ele>
        <time>2016-08-27T09:05:57Z</time>
      </trkpt>
      <trkpt lat="48.39014" lon="2.53378">
        <ele>117.55</ele>
        <time>2016-08-27T09:06:21Z</time>
      </trkpt>
      <trkpt lat="48.39019" lon="2.5341">
        <ele>118.44</ele>
        <time>2016-08-27T09:06:47Z</time>
      </trkpt>
      <trkpt lat="48.39033" lon="2.53423">
        <ele>117.41</ele>
        <time>2016-08-27T09:07:13Z</time>
      </trkpt>
      <trkpt lat="48.39041" lon="2.53443">
        <ele>117.25</ele>
        <time>2016-08-27T09:07:29Z</time>
      </trkpt>
      <trkpt lat="48.39043" lon="2.5348">
        <ele>116.4</ele>
        <time>2016-08-27T09:07:56Z</time>
      </trkpt>
      <trkpt lat="48.39024" lon="2.53512">
        <ele>115.62</ele>
        <time>2016-08-27T09:08:26Z</time>
      </trkpt>
      <trkpt lat="48.39017" lon="2.53532">
        <ele>117.43</ele>
        <time>2016-08-27T09:08:54Z</time>
      </trkpt>
      <trkpt lat="48.39009" lon="2.5354">
        <ele>116.23</ele>
        <time>2016-08-27T09:09:20Z</time>
      </trkpt>
      <trkpt lat="48.38992" lon="2.53541">
        <ele>113.27</ele>
        <time>2016-08-27T09:09:44Z</time>
      </trkpt>
      <trkpt lat="48.38982" lon="2.53543">
        <ele>110.24</ele>
        <time>2016-08-27T09:10:06Z</time>
      </trkpt>
      <trkpt lat="48.38981" lon="2.53546">
        <ele>110.62</ele>
        <time>2016-08-27T09:10:35Z</time>
      </trkpt>
      <trkpt lat="48.3898" lon="2.53559">
        <ele>113.83</ele>
        <time>2016-08-27T09:10:55Z</time>
      </trkpt>
      <trkpt lat="48.38976" lon="2.53579">
        <ele>115.02</ele>
        <time>2016-08-27T09:11:24Z</time>
      </trkpt>
      <trkpt lat="48.38976" lon="2.53578">
        <ele>114.73</ele>
        <time>2016-08-27T09:11:26Z</time>
      </trkpt>
      <trkpt lat="48.38953" lon="2.53593">
        <ele>117.62</ele>
        <time>2016-08-27T09:11:54Z</time>
      </trkpt>
      <trkpt lat="48.38934" lon="2.53605">
        <ele>116.06</ele>
        <time>2016-08-27T09:12:21Z</time>
      </trkpt>
      <trkpt lat="48.38911" lon="2.53614">
        <ele>114.27</ele>
        <time>2016-08-27T09:12:51Z</time>
      </trkpt>
      <trkpt lat="48.38903" lon="2.53621">
        <ele>116.58</ele>
        <time>2016-08-27T09:13:18Z</time>
      </trkpt>
      <trkpt lat="48.38902" lon="2.53621">
        <ele>116.55</ele>
        <time>2016-08-27T09:13:20Z</time>
      </trkpt>
      <trkpt lat="48.38896" lon="2.5362">
        <ele>116.78</ele>
        <time>2016-08-27T09:13:56Z</time>
      </trkpt>
      <trkpt lat="48.38898" lon="2.53624">
        <ele>116.79</ele>
        <time>2016-08-27T09:14:14Z</time>
      </trkpt>
      <trkpt lat="48.38902" lon="2.53628">
        <ele>116.44</ele>
        <time>2016-08-27T09:14:47Z</time>
      </trkpt>
      <trkpt lat="48.38885" lon="2.5363">
        <ele>116.2</ele>
        <time>2016-08-27T09:15:17Z</time>
      </trkpt>
      <trkpt lat="48.38882" lon="2.53626">
        <ele>114.49</ele>
        <time>2016-08-27T09:15:39Z</time>
      </trkpt>
      <trkpt lat="48.38865" lon="2.53644">
        <ele>114.68</ele>
        <time>2016-08-27T09:16:09Z</time>
      </trkpt>
      <trkpt lat="48.38844" lon="2.53661">
        <ele>117.87</ele>
        <time>2016-08-27T09:16:38Z</time>
      </trkpt>
      <trkpt lat="48.38817" lon="2.53645">
        <ele>117.45</ele>
        <time>2016-08-27T09:17:06Z</time>
      </trkpt>
      <trkpt lat="48.38801" lon="2.53629">
        <ele>115.92</ele>
        <time>2016-08-27T09:17:32Z</time>
      </trkpt>
      <trkpt lat="48.38799" lon="2.53622">
        <ele>115.03</ele>
        <time>2016-08-27T09:17:44Z</time>
      </trkpt>
      <trkpt lat="48.38798" lon="2.53617">
        <ele>114.62</ele>
        <time>2016-08-27T09:17:48Z</time>
      </trkpt>
      <trkpt lat="48.38789" lon="2.53613">
        <ele>112.93</ele>
        <time>2016-08-27T09:18:16Z</time>
      </trkpt>
      <trkpt lat="48.38786" lon="2.53604">
        <ele>112.43</ele>
        <time>2016-08-27T09:18:36Z</time>
      </trkpt>
      <trkpt lat="48.38785" lon="2.53608">
        <ele>111.85</ele>
        <time>2016-08-27T09:18:58Z</time>
      </trkpt>
      <trkpt lat="48.38787" lon="2.53618">
        <ele>111.91</ele>
        <time>2016-08-27T09:19:35Z</time>
      </trkpt>
      <trkpt lat="48.38786" lon="2.5362">
        <ele>112.17</ele>
        <time>2016-08-27T09:19:43Z</time>
      </trkpt>
      <trkpt lat="48.38779" lon="2.5362">
        <ele>111.6</ele>
        <time>2016-08-27T09:20:01Z</time>
      </trkpt>
      <trkpt lat="48.38772" lon="2.53635">
        <ele>108.35</ele>
        <time>2016-08-27T09:20:20Z</time>
      </trkpt>
      <trkpt lat="48.38769" lon="2.53642">
        <ele>105.32</ele>
        <time>2016-08-27T09:20:32Z</time>
      </trkpt>
      <trkpt lat="48.38769" lon="2.53641">
        <ele>105.15</ele>
        <time>2016-08-27T09:20:33Z</time>
      </trkpt>
      <trkpt lat="48.38762" lon="2.53639">
        <ele>101.64</ele>
        <time>2016-08-27T09:20:53Z</time>
      </trkpt>
      <trkpt lat="48.3876" lon="2.53635">
        <ele>100.55</ele>
        <time>2016-08-27T09:21:09Z</time>
      </trkpt>
      <trkpt lat="48.38752" lon="2.53638">
        <ele>97.3</ele>
        <time>2016-08-27T09:21:27Z</time>
      </trkpt>
      <trkpt lat="48.38744" lon="2.53643">
        <ele>94.11</ele>
        <time>2016-08-27T09:21:40Z</time>
      </trkpt>
      <trkpt lat="48.38737" lon="2.5365">
        <ele>91.08</ele>
        <time>2016-08-27T09:21:54Z</time>
      </trkpt>
      <trkpt lat="48.38727" lon="2.53647">
        <ele>88.06</ele>
        <time>2016-08-27T09:22:08Z</time>
      </trkpt>
      <trkpt lat="48.38716" lon="2.53642">
        <ele>85</ele>
        <time>2016-08-27T09:22:29Z</time>
      </trkpt>
      <trkpt lat="48.38711" lon="2.53639">
        <ele>84.01</ele>
        <time>2016-08-27T09:22:51Z</time>
      </trkpt>
      <trkpt lat="48.38702" lon="2.53633">
        <ele>83.76</ele>
        <time>2016-08-27T09:23:21Z</time>
      </trkpt>
      <trkpt lat="48.38703" lon="2.53633">
        <ele>83.76</ele>
        <time>2016-08-27T09:23:24Z</time>
      </trkpt>
      <trkpt lat="48.38706" lon="2.53639">
        <ele>83.92</ele>
        <time>2016-08-27T09:23:56Z</time>
      </trkpt>
      <trkpt lat="48.38701" lon="2.53642">
        <ele>84.83</ele>
        <time>2016-08-27T09:24:06Z</time>
      </trkpt>
      <trkpt lat="48.38701" lon="2.53645">
        <ele>85.31</ele>
        <time>2016-08-27T09:24:09Z</time>
      </trkpt>
      <trkpt lat="48.387" lon="2.53647">
        <ele>85.67</ele>
        <time>2016-08-27T09:24:11Z</time>
      </trkpt>
      <trkpt lat="48.38685" lon="2.53671">
        <ele>88.6</ele>
        <time>2016-08-27T09:24:38Z</time>
      </trkpt>
      <trkpt lat="48.38683" lon="2.53685">
        <ele>91.75</ele>
        <time>2016-08-27T09:25:03Z</time>
      </trkpt>
      <trkpt lat="48.38681" lon="2.53687">
        <ele>94.81</ele>
        <time>2016-08-27T09:25:17Z</time>
      </trkpt>
      <trkpt lat="48.38676" lon="2.53686">
        <ele>97.82</ele>
        <time>2016-08-27T09:25:40Z</time>
      </trkpt>
      <trkpt lat="48.38656" lon="2.53696">
        <ele>100.2</ele>
        <time>2016-08-27T09:26:10Z</time>
      </trkpt>
      <trkpt lat="48.38663" lon="2.53714">
        <ele>103.23</ele>
        <time>2016-08-27T09:26:33Z</time>
      </trkpt>
      <trkpt lat="48.38651" lon="2.53726">
        <ele>106.3</ele>
        <time>2016-08-27T09:27:00Z</time>
      </trkpt>
      <trkpt lat="48.38648" lon="2.53734">
        <ele>107.93</ele>
        <time>2016-08-27T09:27:33Z</time>
      </trkpt>
      <trkpt lat="48.38648" lon="2.53734">
        <ele>107.96</ele>
        <time>2016-08-27T09:27:34Z</time>
      </trkpt>
      <trkpt lat="48.38646" lon="2.53734">
        <ele>108</ele>
        <time>2016-08-27T09:27:36Z</time>
      </trkpt>
      <trkpt lat="48.38634" lon="2.53735">
        <ele>111.18</ele>
        <time>2016-08-27T09:28:12Z</time>
      </trkpt>
      <trkpt lat="48.38633" lon="2.53739">
        <ele>112.3</ele>
        <time>2016-08-27T09:28:24Z</time>
      </trkpt>
      <trkpt lat="48.38624" lon="2.53752">
        <ele>113.18</ele>
        <time>2016-08-27T09:28:53Z</time>
      </trkpt>
      <trkpt lat="48.38621" lon="2.53757">
        <ele>111.4</ele>
        <time>2016-08-27T09:29:23Z</time>
      </trkpt>
      <trkpt lat="48.38615" lon="2.53757">
        <ele>111.63</ele>
        <time>2016-08-27T09:29:55Z</time>
      </trkpt>
      <trkpt lat="48.3861" lon="2.53754">
        <ele>111.47</ele>
        <time>2016-08-27T09:30:20Z</time>
      </trkpt>
      <trkpt lat="48.38613" lon="2.53751">
        <ele>110.85</ele>
        <time>2016-08-27T09:30:42Z</time>
      </trkpt>
      <trkpt lat="48.3861" lon="2.53751">
        <ele>110.24</ele>
        <time>2016-08-27T09:30:49Z</time>
      </trkpt>
      <trkpt lat="48.38597" lon="2.53777">
        <ele>112.14</ele>
        <time>2016-08-27T09:31:18Z</time>
      </trkpt>
      <trkpt lat="48.38587" lon="2.53787">
        <ele>115.25</ele>
        <time>2016-08-27T09:31:40Z</time>
      </trkpt>
      <trkpt lat="48.38571" lon="2.53806">
        <ele>116.89</ele>
        <time>2016-08-27T09:32:13Z</time>
      </trkpt>
      <trkpt lat="48.38552" lon="2.53824">
        <ele>116.89</ele>
        <time>2016-08-27T09:32:44Z</time>
      </trkpt>
      <trkpt lat="48.38549" lon="2.53835">
        <ele>117.96</ele>
        <time>2016-08-27T09:33:17Z</time>
      </trkpt>
      <trkpt lat="48.38547" lon="2.53835">
        <ele>117.95</ele>
        <time>2016-08-27T09:33:19Z</time>
      </trkpt>
      <trkpt lat="48.38533" lon="2.53839">
        <ele>116.3</ele>
        <time>2016-08-27T09:33:45Z</time>
      </trkpt>
      <trkpt lat="48.3851" lon="2.53826">
        <ele>116.75</ele>
        <time>2016-08-27T09:34:17Z</time>
      </trkpt>
      <trkpt lat="48.38497" lon="2.53823">
        <ele>115.59</ele>
        <time>2016-08-27T09:34:45Z</time>
      </trkpt>
      <trkpt lat="48.38485" lon="2.53828">
        <ele>114.2</ele>
        <time>2016-08-27T09:35:13Z</time>
      </trkpt>
      <trkpt lat="48.38478" lon="2.53843">
        <ele>116.31</ele>
        <time>2016-08-27T09:35:35Z</time>
      </trkpt>
      <trkpt lat="48.38479" lon="2.53857">
        <ele>115.05</ele>
        <time>2016-08-27T09:35:57Z</time>
      </trkpt>
      <trkpt lat="48.38474" lon="2.53861">
        <ele>114.52</ele>
        <time>2016-08-27T09:36:26Z</time>
      </trkpt>
      <trkpt lat="48.38476" lon="2.53861">
        <ele>114.43</ele>
        <time>2016-08-27T09:36:45Z</time>
      </trkpt>
      <trkpt lat="48.38468" lon="2.53861">
        <ele>111.86</ele>
        <time>2016-08-27T09:37:11Z</time>
      </trkpt>
      <trkpt lat="48.38452" lon="2.53878">
        <ele>109.71</ele>
        <time>2016-08-27T09:37:41Z</time>
      </trkpt>
      <trkpt lat="48.38451" lon="2.53884">
        <ele>109.6</ele>
        <time>2016-08-27T09:38:02Z</time>
      </trkpt>
      <trkpt lat="48.38453" lon="2.53885">
        <ele>109.46</ele>
        <time>2016-08-27T09:38:04Z</time>
      </trkpt>
      <trkpt lat="48.3846" lon="2.53901">
        <ele>106.75</ele>
        <time>2016-08-27T09:38:28Z</time>
      </trkpt>
      <trkpt lat="48.38463" lon="2.53916">
        <ele>107.9</ele>
        <time>2016-08-27T09:38:48Z</time>
      </trkpt>
      <trkpt lat="48.38452" lon="2.53933">
        <ele>109.89</ele>
        <time>2016-08-27T09:39:15Z</time>
      </trkpt>
      <trkpt lat="48.38456" lon="2.53939">
        <ele>111.51</ele>
        <time>2016-08-27T09:39:27Z</time>
      </trkpt>
      <trkpt lat="48.38459" lon="2.53934">
        <ele>111.73</ele>
        <time>2016-08-27T09:39:29Z</time>
      </trkpt>
      <trkpt lat="48.38464" lon="2.53935">
        <ele>113.58</ele>
        <time>2016-08-27T09:39:56Z</time>
      </trkpt>
      <trkpt lat="48.38463" lon="2.53956">
        <ele>113.72</ele>
        <time>2016-08-27T09:40:23Z</time>
      </trkpt>
      <trkpt lat="48.38452" lon="2.53961">
        <ele>112.96</ele>
        <time>2016-08-27T09:40:46Z</time>
      </trkpt>
      <trkpt lat="48.38452" lon="2.53959">
        <ele>113.47</ele>
        <time>2016-08-27T09:40:50Z</time>
      </trkpt>
      <trkpt lat="48.38446" lon="2.5397">
        <ele>115.28</ele>
        <time>2016-08-27T09:41:14Z</time>
      </trkpt>
      <trkpt lat="48.38449" lon="2.53981">
        <ele>115.78</ele>
        <time>2016-08-27T09:41:35Z</time>
      </trkpt>
      <trkpt lat="48.38451" lon="2.53976">
        <ele>115.98</ele>
        <time>2016-08-27T09:42:06Z</time>
      </trkpt>
      <trkpt lat="48.38449" lon="2.53983">
        <ele>116.56</ele>
        <time>2016-08-27T09:42:39Z</time>
      </trkpt>
      <trkpt lat="48.38453" lon="2.53981">
        <ele>116.18</ele>
        <time>2016-08-27T09:42:49Z</time>
      </trkpt>
      <trkpt lat="48.38453" lon="2.53979">
        <ele>116.24</ele>
        <time>2016-08-27T09:42:56Z</time>
      </trkpt>
      <trkpt lat="48.38452" lon="2.54004">
        <ele>117.35</ele>
        <time>2016-08-27T09:43:24Z</time>
      </trkpt>
      <trkpt lat="48.38435" lon="2.54016">
        <ele>117.31</ele>
        <time>2016-08-27T09:43:48Z</time>
      </trkpt>
      <trkpt lat="48.38444" lon="2.54043">
        <ele>115.88</ele>
        <time>2016-08-27T09:44:12Z</time>
      </trkpt>
      <trkpt lat="48.38452" lon="2.54069">
        <ele>116.03</ele>
        <time>2016-08-27T09:44:36Z</time>
      </trkpt>
      <trkpt lat="48.38445" lon="2.54102">
        <ele>114.5</ele>
        <time>2016-08-27T09:45:03Z</time>
      </trkpt>
      <trkpt lat="48.38449" lon="2.54115">
        <ele>113</ele>
        <time>2016-08-27T09:45:24Z</time>
      </trkpt>
      <trkpt lat="48.38448" lon="2.54135">
        <ele>109.78</ele>
        <time>2016-08-27T09:45:46Z</time>
      </trkpt>
      <trkpt lat="48.38451" lon="2.54158">
        <ele>106.65</ele>
        <time>2016-08-27T09:46:12Z</time>
      </trkpt>
      <trkpt lat="48.38449" lon="2.54158">
        <ele>105.76</ele>
        <time>2016-08-27T09:46:17Z</time>
      </trkpt>
      <trkpt lat="48.38436" lon="2.5416">
        <ele>102.68</ele>
        <time>2016-08-27T09:46:31Z</time>
      </trkpt>
      <trkpt lat="48.3843" lon="2.5416">
        <ele>99.47</ele>
        <time>2016-08-27T09:46:44Z</time>
      </trkpt>
      <trkpt lat="48.38424" lon="2.54174">
        <ele>96.58</ele>
        <time>2016-08-27T09:47:07Z</time>
      </trkpt>
      <trkpt lat="48.38427" lon="2.5418">
        <ele>96.41</ele>
        <time>2016-08-27T09:47:30Z</time>
      </trkpt>
      <trkpt lat="48.38424" lon="2.54184">
        <ele>96.34</ele>
        <time>2016-08-27T09:48:04Z</time>
      </trkpt>
      <trkpt lat="48.38424" lon="2.54181">
        <ele>94.2</ele>
        <time>2016-08-27T09:48:34Z</time>
      </trkpt>
      <trkpt lat="48.38424" lon="2.54181">
        <ele>93.98</ele>
        <time>2016-08-27T09:48:35Z</time>
      </trkpt>
      <trkpt lat="48.38402" lon="2.54197">
        <ele>90.63</ele>
        <time>2016-08-27T09:49:02Z</time>
      </trkpt>
      <trkpt lat="48.38398" lon="2.54214">
        <ele>90.43</ele>
        <time>2016-08-27T09:49:13Z</time>
      </trkpt>
      <trkpt lat="48.38391" lon="2.54255">
        <ele>93.45</ele>
        <time>2016-08-27T09:49:42Z</time>
      </trkpt>
      <trkpt lat="48.38389" lon="2.54268">
        <ele>96.69</ele>
        <time>2016-08-27T09:49:57Z</time>
      </trkpt>
      <trkpt lat="48.38384" lon="2.54277">
        <ele>99.74</ele>
        <time>2016-08-27T09:50:12Z</time>
      </trkpt>
      <trkpt lat="48.38379" lon="2.54278">
        <ele>102.95</ele>
        <time>2016-08-27T09:50:24Z</time>
      </trkpt>
      <trkpt lat="48.38375" lon="2.54277">
        <ele>106.09</ele>
        <time>2016-08-27T09:50:37Z</time>
      </trkpt>
      <trkpt lat="48.38367" lon="2.54285">
        <ele>109.1</ele>
        <time>2016-08-27T09:50:52Z</time>
      </trkpt>
      <trkpt lat="48.38369" lon="2.54306">
        <ele>112.31</ele>
        <time>2016-08-27T09:51:18Z</time>
      </trkpt>
      <trkpt lat="48.38358" lon="2.54301">
        <ele>114.77</ele>
        <time>2016-08-27T09:51:40Z</time>
      </trkpt>
      <trkpt lat="48.38362" lon="2.5429">
        <ele>113.87</ele>
        <time>2016-08-27T09:52:02Z</time>
      </trkpt>
      <trkpt lat="48.38364" lon="2.54292">
        <ele>114.64</ele>
        <time>2016-08-27T09:52:15Z</time>
      </trkpt>
      <trkpt lat="48.38353" lon="2.54293">
        <ele>113.67</ele>
        <time>2016-08-27T09:52:37Z</time>
      </trkpt>
      <trkpt lat="48.38365" lon="2.54306">
        <ele>114.53</ele>
        <time>2016-08-27T09:52:59Z</time>
      </trkpt>
      <trkpt lat="48.38355" lon="2.54331">
        <ele>113.18</ele>
        <time>2016-08-27T09:53:19Z</time>
      </trkpt>
      <trkpt lat="48.3835" lon="2.54351">
        <ele>112.64</ele>
        <time>2016-08-27T09:53:40Z</time>
      </trkpt>
      <trkpt lat="48.38342" lon="2.54357">
        <ele>110.23</ele>
        <time>2016-08-27T09:54:03Z</time>
      </trkpt>
      <trkpt lat="48.38329" lon="2.54385">
        <ele>111.5</ele>
        <time>2016-08-27T09:54:29Z</time>
      </trkpt>
      <trkpt lat="48.38325" lon="2.54394">
        <ele>112.31</ele>
        <time>2016-08-27T09:54:55Z</time>
      </trkpt>
      <trkpt lat="48.38316" lon="2.54402">
        <ele>111.98</ele>
        <time>2016-08-27T09:55:17Z</time>
      </trkpt>
      <trkpt lat="48.38316" lon="2.54403">
        <ele>112.16</ele>
        <time>2016-08-27T09:55:24Z</time>
      </trkpt>
      <trkpt lat="48.38316" lon="2.54425">
        <ele>110.9</ele>
        <time>2016-08-27T09:55:59Z</time>
      </trkpt>
      <trkpt lat="48.38315" lon="2.54425">
        <ele>111.02</ele>
        <time>2016-08-27T09:56:00Z</time>
      </trkpt>
      <trkpt lat="48.38315" lon="2.54426">
        <ele>111.13</ele>
        <time>2016-08-27T09:56:16Z</time>
      </trkpt>
      <trkpt lat="48.38316" lon="2.54433">
        <ele>110.61</ele>
        <time>2016-08-27T09:56:38Z</time>
      </trkpt>
      <trkpt lat="48.38318" lon="2.54435">
        <ele>110.61</ele>
        <time>2016-08-27T09:56:51Z</time>
      </trkpt>
      <trkpt lat="48.38316" lon="2.54436">
        <ele>110.31</ele>
        <time>2016-08-27T09:56:59Z</time>
      </trkpt>
      <trkpt lat="48.38315" lon="2.5445">
        <ele>107.52</ele>
        <time>2016-08-27T09:57:17Z</time>
      </trkpt>
      <trkpt lat="48.38312" lon="2.5446">
        <ele>104.35</ele>
        <time>2016-08-27T09:57:40Z</time>
      </trkpt>
      <trkpt lat="48.38307" lon="2.54472">
        <ele>101.12</ele>
        <time>2016-08-27T09:57:54Z</time>
      </trkpt>
      <trkpt lat="48.383" lon="2.54492">
        <ele>98.8</ele>
        <time>2016-08-27T09:58:19Z</time>
      </trkpt>
      <trkpt lat="48.38299" lon="2.54503">
        <ele>99.28</ele>
        <time>2016-08-27T09:58:29Z</time>
      </trkpt>
      <trkpt lat="48.38296" lon="2.54508">
        <ele>98.95</ele>
        <time>2016-08-27T09:58:38Z</time>
      </trkpt>
      <trkpt lat="48.38311" lon="2.54505">
        <ele>99.15</ele>
        <time>2016-08-27T09:59:08Z</time>
      </trkpt>
      <trkpt lat="48.38301" lon="2.54509">
        <ele>99.42</ele>
        <time>2016-08-27T09:59:47Z</time>
      </trkpt>
      <trkpt lat="48.38298" lon="2.5452">
        <ele>100.09</ele>
        <time>2016-08-27T10:00:14Z</time>
      </trkpt>
      <trkpt lat="48.38298" lon="2.54524">
        <ele>103.22</ele>
        <time>2016-08-27T10:00:35Z</time>
      </trkpt>
      <trkpt lat="48.38297" lon="2.54527">
        <ele>106.28</ele>
        <time>2016-08-27T10:00:56Z</time>
      </trkpt>
      <trkpt lat="48.38291" lon="2.54535">
        <ele>109.29</ele>
        <time>2016-08-27T10:01:18Z</time>
      </trkpt>
      <trkpt lat="48.38289" lon="2.54544">
        <ele>111.6</ele>
        <time>2016-08-27T10:01:32Z</time>
      </trkpt>
      <trkpt lat="48.38287" lon="2.54546">
        <ele>112.28</ele>
        <time>2016-08-27T10:01:36Z</time>
      </trkpt>
      <trkpt lat="48.38284" lon="2.54551">
        <ele>112.73</ele>
        <time>2016-08-27T10:01:46Z</time>
      </trkpt>
      <trkpt lat="48.3828" lon="2.54577">
        <ele>115.26</ele>
        <time>2016-08-27T10:02:16Z</time>
      </trkpt>
      <trkpt lat="48.38265" lon="2.54571">
        <ele>114.15</ele>
        <time>2016-08-27T10:02:47Z</time>
      </trkpt>
      <trkpt lat="48.38251" lon="2.54573">
        <ele>114.29</ele>
        <time>2016-08-27T10:03:16Z</time>
      </trkpt>
      <trkpt lat="48.3825" lon="2.54569">
        <ele>115.64</ele>
        <time>2016-08-27T10:03:43Z</time>
      </trkpt>
      <trkpt lat="48.38247" lon="2.5457">
        <ele>115.33</ele>
        <time>2016-08-27T10:03:47Z</time>
      </trkpt>
      <trkpt lat="48.38238" lon="2.54562">
        <ele>115.18</ele>
        <time>2016-08-27T10:04:10Z</time>
      </trkpt>
      <trkpt lat="48.38238" lon="2.5456">
        <ele>115.4</ele>
        <time>2016-08-27T10:04:36Z</time>
      </trkpt>
      <trkpt lat="48.38239" lon="2.54561">
        <ele>115.08</ele>
        <time>2016-08-27T10:05:05Z</time>
      </trkpt>
      <trkpt lat="48.38235" lon="2.54565">
        <ele>115.35</ele>
        <time>2016-08-27T10:05:36Z</time>
      </trkpt>
      <trkpt lat="48.38236" lon="2.54562">
        <ele>115.29</ele>
        <time>2016-08-27T10:06:06Z</time>
      </trkpt>
      <trkpt lat="48.38237" lon="2.54566">
        <ele>115.22</ele>
        <time>2016-08-27T10:06:41Z</time>
      </trkpt>
      <trkpt lat="48.38242" lon="2.54564">
        <ele>114.67</ele>
        <time>2016-08-27T10:07:12Z</time>
      </trkpt>
      <trkpt lat="48.38237" lon="2.54575">
        <ele>114.32</ele>
        <time>2016-08-27T10:07:38Z</time>
      </trkpt>
      <trkpt lat="48.38234" lon="2.54574">
        <ele>115.31</ele>
        <time>2016-08-27T10:08:02Z</time>
      </trkpt>
      <trkpt lat="48.38232" lon="2.54573">
        <ele>115.34</ele>
        <time>2016-08-27T10:08:09Z</time>
      </trkpt>
      <trkpt lat="48.38227" lon="2.5457">
        <ele>112.3</ele>
        <time>2016-08-27T10:08:33Z</time>
      </trkpt>
      <trkpt lat="48.38217" lon="2.54566">
        <ele>109.21</ele>
        <time>2016-08-27T10:08:54Z</time>
      </trkpt>
      <trkpt lat="48.38203" lon="2.54569">
        <ele>109.66</ele>
        <time>2016-08-27T10:09:17Z</time>
      </trkpt>
      <trkpt lat="48.382" lon="2.54571">
        <ele>109.91</ele>
        <time>2016-08-27T10:09:48Z</time>
      </trkpt>
      <trkpt lat="48.38201" lon="2.54577">
        <ele>109.96</ele>
        <time>2016-08-27T10:10:27Z</time>
      </trkpt>
      <trkpt lat="48.38205" lon="2.54576">
        <ele>110.09</ele>
        <time>2016-08-27T10:11:01Z</time>
      </trkpt>
      <trkpt lat="48.38199" lon="2.54577">
        <ele>110.44</ele>
        <time>2016-08-27T10:11:29Z</time>
      </trkpt>
      <trkpt lat="48.38197" lon="2.54577">
        <ele>111.44</ele>
        <time>2016-08-27T10:11:32Z</time>
      </trkpt>
      <trkpt lat="48.38187" lon="2.54586">
        <ele>114.32</ele>
        <time>2016-08-27T10:11:58Z</time>
      </trkpt>
      <trkpt lat="48.38182" lon="2.54605">
        <ele>116.34</ele>
        <time>2016-08-27T10:12:23Z</time>
      </trkpt>
      <trkpt lat="48.38179" lon="2.54615">
        <ele>117.44</ele>
        <time>2016-08-27T10:12:38Z</time>
      </trkpt>
      <trkpt lat="48.38176" lon="2.5463">
        <ele>117.38</ele>
        <time>2016-08-27T10:12:55Z</time>
      </trkpt>
      <trkpt lat="48.38171" lon="2.54652">
        <ele>115.33</ele>
        <time>2016-08-27T10:13:20Z</time>
      </trkpt>
      <trkpt lat="48.38168" lon="2.54657">
        <ele>115.78</ele>
        <time>2016-08-27T10:13:45Z</time>
      </trkpt>
      <trkpt lat="48.38168" lon="2.54658">
        <ele>115.98</ele>
        <time>2016-08-27T10:13:54Z</time>
      </trkpt>
      <trkpt lat="48.38168" lon="2.54662">
        <ele>116.39</ele>
        <time>2016-08-27T10:14:28Z</time>
      </trkpt>
      <trkpt lat="48.38164" lon="2.54671">
        <ele>116.21</ele>
        <time>2016-08-27T10:14:53Z</time>
      </trkpt>
      <trkpt lat="48.38157" lon="2.5467">
        <ele>115.02</ele>
        <time>2016-08-27T10:15:15Z</time>
      </trkpt>
      <trkpt lat="48.38156" lon="2.54669">
        <ele>114.43</ele>
        <time>2016-08-27T10:15:25Z</time>
      </trkpt>
      <trkpt lat="48.3815" lon="2.54671">
        <ele>113.06</ele>
        <time>2016-08-27T10:15:34Z</time>
      </trkpt>
      <trkpt lat="48.38149" lon="2.54689">
        <ele>110.51</ele>
        <time>2016-08-27T10:15:56Z</time>
      </trkpt>
      <trkpt lat="48.38147" lon="2.54693">
        <ele>107.56</ele>
        <time>2016-08-27T10:16:22Z</time>
      </trkpt>
      <trkpt lat="48.3814" lon="2.54697">
        <ele>105.18</ele>
        <time>2016-08-27T10:16:48Z</time>
      </trkpt>
      <trkpt lat="48.38139" lon="2.54697">
        <ele>104.24</ele>
        <time>2016-08-27T10:16:54Z</time>
      </trkpt>
      <trkpt lat="48.3812" lon="2.5471">
        <ele>105.61</ele>
        <time>2016-08-27T10:17:21Z</time>
      </trkpt>
      <trkpt lat="48.38112" lon="2.5471">
        <ele>108.7</ele>
        <time>2016-08-27T10:17:38Z</time>
      </trkpt>
      <trkpt lat="48.38105" lon="2.54712">
        <ele>110.62</ele>
        <time>2016-08-27T10:17:49Z</time>
      </trkpt>
      <trkpt lat="48.38098" lon="2.54719">
        <ele>113.79</ele>
        <time>2016-08-27T10:18:08Z</time>
      </trkpt>
      <trkpt lat="48.3809" lon="2.54705">
        <ele>116.96</ele>
        <time>2016-08-27T10:18:39Z</time>
      </trkpt>
      <trkpt lat="48.38074" lon="2.54694">
        <ele>118.72</ele>
        <time>2016-08-27T10:19:02Z</time>
      </trkpt>
      <trkpt lat="48.38063" lon="2.54687">
        <ele>116.41</ele>
        <time>2016-08-27T10:19:26Z</time>
      </trkpt>
      <trkpt lat="48.38058" lon="2.54683">
        <ele>114.34</ele>
        <time>2016-08-27T10:19:38Z</time>
      </trkpt>
      <trkpt lat="48.38055" lon="2.54675">
        <ele>111.01</ele>
        <time>2016-08-27T10:19:58Z</time>
      </trkpt>
      <trkpt lat="48.38051" lon="2.54668">
        <ele>107.85</ele>
        <time>2016-08-27T10:20:13Z</time>
      </trkpt>
      <trkpt lat="48.38042" lon="2.54664">
        <ele>104.83</ele>
        <time>2016-08-27T10:20:28Z</time>
      </trkpt>
      <trkpt lat="48.3804" lon="2.54661">
        <ele>104.14</ele>
        <time>2016-08-27T10:20:45Z</time>
      </trkpt>
      <trkpt lat="48.38032" lon="2.54644">
        <ele>101.05</ele>
        <time>2016-08-27T10:21:08Z</time>
      </trkpt>
      <trkpt lat="48.38026" lon="2.54639">
        <ele>97.77</ele>
        <time>2016-08-27T10:21:22Z</time>
      </trkpt>
      <trkpt lat="48.38021" lon="2.5464">
        <ele>94.68</ele>
        <time>2016-08-27T10:21:42Z</time>
      </trkpt>
      <trkpt lat="48.38006" lon="2.54642">
        <ele>96.7</ele>
        <time>2016-08-27T10:22:09Z</time>
      </trkpt>
      <trkpt lat="48.37992" lon="2.54645">
        <ele>99.39</ele>
        <time>2016-08-27T10:22:27Z</time>
      </trkpt>
      <trkpt lat="48.37989" lon="2.54642">
        <ele>102.16</ele>
        <time>2016-08-27T10:22:41Z</time>
      </trkpt>
      <trkpt lat="48.37984" lon="2.5464">
        <ele>104.97</ele>
        <time>2016-08-27T10:22:53Z</time>
      </trkpt>
      <trkpt lat="48.37978" lon="2.54639">
        <ele>108.01</ele>
        <time>2016-08-27T10:23:08Z</time>
      </trkpt>
      <trkpt lat="48.37973" lon="2.54637">
        <ele>109.99</ele>
        <time>2016-08-27T10:23:20Z</time>
      </trkpt>
      <trkpt lat="48.37965" lon="2.54637">
        <ele>111.9</ele>
        <time>2016-08-27T10:23:31Z</time>
      </trkpt>
      <trkpt lat="48.37959" lon="2.54638">
        <ele>115.09</ele>
        <time>2016-08-27T10:23:46Z</time>
      </trkpt>
      <trkpt lat="48.3796" lon="2.54635">
        <ele>116.87</ele>
        <time>2016-08-27T10:23:53Z</time>
      </trkpt>
      <trkpt lat="48.3796" lon="2.54632">
        <ele>117.28</ele>
        <time>2016-08-27T10:23:55Z</time>
      </trkpt>
      <trkpt lat="48.37942" lon="2.5463">
        <ele>118.37</ele>
        <time>2016-08-27T10:24:11Z</time>
      </trkpt>
      <trkpt lat="48.37938" lon="2.54629">
        <ele>118.21</ele>
        <time>2016-08-27T10:24:15Z</time>
      </trkpt>
      <trkpt lat="48.37928" lon="2.54621">
        <ele>117.81</ele>
        <time>2016-08-27T10:24:25Z</time>
      </trkpt>
      <trkpt lat="48.37923" lon="2.54603">
        <ele>117.38</ele>
        <time>2016-08-27T10:24:41Z</time>
      </trkpt>
      <trkpt lat="48.37916" lon="2.54588">
        <ele>117.53</ele>
        <time>2016-08-27T10:24:57Z</time>
      </trkpt>
      <trkpt lat="48.37917" lon="2.54588">
        <ele>117.62</ele>
        <time>2016-08-27T10:25:12Z</time>
      </trkpt>
      <trkpt lat="48.37912" lon="2.54579">
        <ele>117.85</ele>
        <time>2016-08-27T10:25:25Z</time>
      </trkpt>
      <trkpt lat="48.37908" lon="2.54579">
        <ele>118.72</ele>
        <time>2016-08-27T10:25:41Z</time>
      </trkpt>
      <trkpt lat="48.37908" lon="2.54577">
        <ele>117.76</ele>
        <time>2016-08-27T10:25:55Z</time>
      </trkpt>
      <trkpt lat="48.37906" lon="2.54578">
        <ele>118.15</ele>
        <time>2016-08-27T10:26:20Z</time>
      </trkpt>
      <trkpt lat="48.37927" lon="2.54538">
        <ele>114.8</ele>
        <time>2016-08-27T11:04:12Z</time>
      </trkpt>
      <trkpt lat="48.37921" lon="2.54547">
        <ele>114.8</ele>
        <time>2016-08-27T11:04:13Z</time>
      </trkpt>
      <trkpt lat="48.37909" lon="2.54574">
        <ele>115.16</ele>
        <time>2016-08-27T11:04:25Z</time>
      </trkpt>
      <trkpt lat="48.37907" lon="2.54571">
        <ele>114.94</ele>
        <time>2016-08-27T11:04:26Z</time>
      </trkpt>
      <trkpt lat="48.37908" lon="2.54577">
        <ele>113.38</ele>
        <time>2016-08-27T11:04:36Z</time>
      </trkpt>
      <trkpt lat="48.37897" lon="2.54566">
        <ele>110.32</ele>
        <time>2016-08-27T11:04:55Z</time>
      </trkpt>
      <trkpt lat="48.37892" lon="2.54578">
        <ele>108.41</ele>
        <time>2016-08-27T11:05:20Z</time>
      </trkpt>
      <trkpt lat="48.37887" lon="2.54589">
        <ele>105.29</ele>
        <time>2016-08-27T11:05:41Z</time>
      </trkpt>
      <trkpt lat="48.37877" lon="2.54607">
        <ele>103.22</ele>
        <time>2016-08-27T11:06:04Z</time>
      </trkpt>
      <trkpt lat="48.37864" lon="2.54618">
        <ele>106.25</ele>
        <time>2016-08-27T11:06:22Z</time>
      </trkpt>
      <trkpt lat="48.37846" lon="2.54631">
        <ele>109.25</ele>
        <time>2016-08-27T11:06:45Z</time>
      </trkpt>
      <trkpt lat="48.37841" lon="2.54639">
        <ele>112.26</ele>
        <time>2016-08-27T11:06:57Z</time>
      </trkpt>
      <trkpt lat="48.37826" lon="2.54635">
        <ele>113.84</ele>
        <time>2016-08-27T11:07:23Z</time>
      </trkpt>
      <trkpt lat="48.37818" lon="2.54637">
        <ele>114.16</ele>
        <time>2016-08-27T11:07:46Z</time>
      </trkpt>
      <trkpt lat="48.37803" lon="2.54641">
        <ele>112.35</ele>
        <time>2016-08-27T11:08:12Z</time>
      </trkpt>
      <trkpt lat="48.37779" lon="2.5462">
        <ele>112.99</ele>
        <time>2016-08-27T11:08:38Z</time>
      </trkpt>
      <trkpt lat="48.37779" lon="2.54616">
        <ele>112.87</ele>
        <time>2016-08-27T11:09:08Z</time>
      </trkpt>
      <trkpt lat="48.37778" lon="2.54617">
        <ele>113.54</ele>
        <time>2016-08-27T11:09:16Z</time>
      </trkpt>
      <trkpt lat="48.37766" lon="2.54624">
        <ele>115.89</ele>
        <time>2016-08-27T11:09:39Z</time>
      </trkpt>
      <trkpt lat="48.37758" lon="2.54625">
        <ele>112.77</ele>
        <time>2016-08-27T11:09:49Z</time>
      </trkpt>
      <trkpt lat="48.37746" lon="2.54627">
        <ele>109.68</ele>
        <time>2016-08-27T11:10:08Z</time>
      </trkpt>
      <trkpt lat="48.37743" lon="2.54625">
        <ele>106.58</ele>
        <time>2016-08-27T11:10:19Z</time>
      </trkpt>
      <trkpt lat="48.37738" lon="2.54625">
        <ele>103.53</ele>
        <time>2016-08-27T11:10:36Z</time>
      </trkpt>
      <trkpt lat="48.37731" lon="2.54629">
        <ele>100.48</ele>
        <time>2016-08-27T11:10:53Z</time>
      </trkpt>
      <trkpt lat="48.37731" lon="2.54629">
        <ele>100.31</ele>
        <time>2016-08-27T11:10:54Z</time>
      </trkpt>
      <trkpt lat="48.3772" lon="2.54622">
        <ele>97.05</ele>
        <time>2016-08-27T11:11:13Z</time>
      </trkpt>
      <trkpt lat="48.37705" lon="2.54626">
        <ele>95.34</ele>
        <time>2016-08-27T11:11:36Z</time>
      </trkpt>
      <trkpt lat="48.37698" lon="2.54643">
        <ele>92</ele>
        <time>2016-08-27T11:11:59Z</time>
      </trkpt>
      <trkpt lat="48.37685" lon="2.54643">
        <ele>88.94</ele>
        <time>2016-08-27T11:12:13Z</time>
      </trkpt>
      <trkpt lat="48.3768" lon="2.54645">
        <ele>88.18</ele>
        <time>2016-08-27T11:12:18Z</time>
      </trkpt>
      <trkpt lat="48.37665" lon="2.54671">
        <ele>89.66</ele>
        <time>2016-08-27T11:12:44Z</time>
      </trkpt>
      <trkpt lat="48.37653" lon="2.5469">
        <ele>92.94</ele>
        <time>2016-08-27T11:13:03Z</time>
      </trkpt>
      <trkpt lat="48.37654" lon="2.54693">
        <ele>92.72</ele>
        <time>2016-08-27T11:13:35Z</time>
      </trkpt>
      <trkpt lat="48.37653" lon="2.54692">
        <ele>92.52</ele>
        <time>2016-08-27T11:14:01Z</time>
      </trkpt>
      <trkpt lat="48.37653" lon="2.54693">
        <ele>92.84</ele>
        <time>2016-08-27T11:14:08Z</time>
      </trkpt>
      <trkpt lat="48.37638" lon="2.54696">
        <ele>96.02</ele>
        <time>2016-08-27T11:14:24Z</time>
      </trkpt>
      <trkpt lat="48.37635" lon="2.54693">
        <ele>97.37</ele>
        <time>2016-08-27T11:14:31Z</time>
      </trkpt>
      <trkpt lat="48.37628" lon="2.54681">
        <ele>98.78</ele>
        <time>2016-08-27T11:14:44Z</time>
      </trkpt>
      <trkpt lat="48.37626" lon="2.54653">
        <ele>99.01</ele>
        <time>2016-08-27T11:15:02Z</time>
      </trkpt>
      <trkpt lat="48.37627" lon="2.54631">
        <ele>101.21</ele>
        <time>2016-08-27T11:15:16Z</time>
      </trkpt>
      <trkpt lat="48.37627" lon="2.5463">
        <ele>101.3</ele>
        <time>2016-08-27T11:15:17Z</time>
      </trkpt>
      <trkpt lat="48.37621" lon="2.54621">
        <ele>101.73</ele>
        <time>2016-08-27T11:15:24Z</time>
      </trkpt>
      <trkpt lat="48.37618" lon="2.54599">
        <ele>104.48</ele>
        <time>2016-08-27T11:15:43Z</time>
      </trkpt>
      <trkpt lat="48.37619" lon="2.54586">
        <ele>106.77</ele>
        <time>2016-08-27T11:15:58Z</time>
      </trkpt>
      <trkpt lat="48.37614" lon="2.54592">
        <ele>106.36</ele>
        <time>2016-08-27T11:16:11Z</time>
      </trkpt>
      <trkpt lat="48.37609" lon="2.54583">
        <ele>108.46</ele>
        <time>2016-08-27T11:16:25Z</time>
      </trkpt>
      <trkpt lat="48.37607" lon="2.54575">
        <ele>111.64</ele>
        <time>2016-08-27T11:16:40Z</time>
      </trkpt>
      <trkpt lat="48.37608" lon="2.54572">
        <ele>112.48</ele>
        <time>2016-08-27T11:16:44Z</time>
      </trkpt>
      <trkpt lat="48.37611" lon="2.5456">
        <ele>114.46</ele>
        <time>2016-08-27T11:16:56Z</time>
      </trkpt>
      <trkpt lat="48.37613" lon="2.54548">
        <ele>114.4</ele>
        <time>2016-08-27T11:17:04Z</time>
      </trkpt>
      <trkpt lat="48.37613" lon="2.54545">
        <ele>114.29</ele>
        <time>2016-08-27T11:17:06Z</time>
      </trkpt>
      <trkpt lat="48.37607" lon="2.54534">
        <ele>113.55</ele>
        <time>2016-08-27T11:17:22Z</time>
      </trkpt>
      <trkpt lat="48.37609" lon="2.54532">
        <ele>111.32</ele>
        <time>2016-08-27T11:17:37Z</time>
      </trkpt>
      <trkpt lat="48.37612" lon="2.54524">
        <ele>108.23</ele>
        <time>2016-08-27T11:17:50Z</time>
      </trkpt>
      <trkpt lat="48.3761" lon="2.54513">
        <ele>106.16</ele>
        <time>2016-08-27T11:18:01Z</time>
      </trkpt>
      <trkpt lat="48.37609" lon="2.54491">
        <ele>103.23</ele>
        <time>2016-08-27T11:18:16Z</time>
      </trkpt>
      <trkpt lat="48.37612" lon="2.54477">
        <ele>100.05</ele>
        <time>2016-08-27T11:18:27Z</time>
      </trkpt>
      <trkpt lat="48.37613" lon="2.54457">
        <ele>100.15</ele>
        <time>2016-08-27T11:18:39Z</time>
      </trkpt>
      <trkpt lat="48.37612" lon="2.54454">
        <ele>100.44</ele>
        <time>2016-08-27T11:18:41Z</time>
      </trkpt>
      <trkpt lat="48.37608" lon="2.5445">
        <ele>101.02</ele>
        <time>2016-08-27T11:18:45Z</time>
      </trkpt>
      <trkpt lat="48.37604" lon="2.54434">
        <ele>103.92</ele>
        <time>2016-08-27T11:19:02Z</time>
      </trkpt>
      <trkpt lat="48.37606" lon="2.54422">
        <ele>106.67</ele>
        <time>2016-08-27T11:19:18Z</time>
      </trkpt>
      <trkpt lat="48.37607" lon="2.54413">
        <ele>108.62</ele>
        <time>2016-08-27T11:19:31Z</time>
      </trkpt>
      <trkpt lat="48.37606" lon="2.54402">
        <ele>110.62</ele>
        <time>2016-08-27T11:19:45Z</time>
      </trkpt>
      <trkpt lat="48.376" lon="2.54393">
        <ele>112.27</ele>
        <time>2016-08-27T11:19:58Z</time>
      </trkpt>
      <trkpt lat="48.37596" lon="2.54387">
        <ele>114.3</ele>
        <time>2016-08-27T11:20:14Z</time>
      </trkpt>
      <trkpt lat="48.37585" lon="2.54379">
        <ele>114.32</ele>
        <time>2016-08-27T11:20:26Z</time>
      </trkpt>
      <trkpt lat="48.37587" lon="2.5437">
        <ele>114.67</ele>
        <time>2016-08-27T11:20:42Z</time>
      </trkpt>
      <trkpt lat="48.37588" lon="2.54377">
        <ele>114.18</ele>
        <time>2016-08-27T11:21:00Z</time>
      </trkpt>
      <trkpt lat="48.37593" lon="2.54375">
        <ele>113.89</ele>
        <time>2016-08-27T11:21:18Z</time>
      </trkpt>
      <trkpt lat="48.37596" lon="2.54373">
        <ele>113.51</ele>
        <time>2016-08-27T11:21:33Z</time>
      </trkpt>
      <trkpt lat="48.37593" lon="2.54366">
        <ele>113.03</ele>
        <time>2016-08-27T11:21:40Z</time>
      </trkpt>
      <trkpt lat="48.37596" lon="2.54351">
        <ele>113.04</ele>
        <time>2016-08-27T11:21:51Z</time>
      </trkpt>
      <trkpt lat="48.37596" lon="2.54338">
        <ele>113</ele>
        <time>2016-08-27T11:22:00Z</time>
      </trkpt>
      <trkpt lat="48.37598" lon="2.54321">
        <ele>111.92</ele>
        <time>2016-08-27T11:22:15Z</time>
      </trkpt>
      <trkpt lat="48.37598" lon="2.54316">
        <ele>111.78</ele>
        <time>2016-08-27T11:22:28Z</time>
      </trkpt>
      <trkpt lat="48.37596" lon="2.54312">
        <ele>111.55</ele>
        <time>2016-08-27T11:22:32Z</time>
      </trkpt>
      <trkpt lat="48.37586" lon="2.5431">
        <ele>112.7</ele>
        <time>2016-08-27T11:22:46Z</time>
      </trkpt>
      <trkpt lat="48.37583" lon="2.54302">
        <ele>112.41</ele>
        <time>2016-08-27T11:22:54Z</time>
      </trkpt>
      <trkpt lat="48.37577" lon="2.54283">
        <ele>112.85</ele>
        <time>2016-08-27T11:23:08Z</time>
      </trkpt>
      <trkpt lat="48.37577" lon="2.54281">
        <ele>112.82</ele>
        <time>2016-08-27T11:23:09Z</time>
      </trkpt>
      <trkpt lat="48.37578" lon="2.54275">
        <ele>112.85</ele>
        <time>2016-08-27T11:23:14Z</time>
      </trkpt>
      <trkpt lat="48.37578" lon="2.54264">
        <ele>113.26</ele>
        <time>2016-08-27T11:23:25Z</time>
      </trkpt>
      <trkpt lat="48.3757" lon="2.54254">
        <ele>111.82</ele>
        <time>2016-08-27T11:23:40Z</time>
      </trkpt>
      <trkpt lat="48.3757" lon="2.54251">
        <ele>109.96</ele>
        <time>2016-08-27T11:23:54Z</time>
      </trkpt>
      <trkpt lat="48.37572" lon="2.54234">
        <ele>108.35</ele>
        <time>2016-08-27T11:24:08Z</time>
      </trkpt>
      <trkpt lat="48.37574" lon="2.54223">
        <ele>107.13</ele>
        <time>2016-08-27T11:24:19Z</time>
      </trkpt>
      <trkpt lat="48.37577" lon="2.54208">
        <ele>104.99</ele>
        <time>2016-08-27T11:24:34Z</time>
      </trkpt>
      <trkpt lat="48.37576" lon="2.54207">
        <ele>105.21</ele>
        <time>2016-08-27T11:24:43Z</time>
      </trkpt>
      <trkpt lat="48.37584" lon="2.54208">
        <ele>104.91</ele>
        <time>2016-08-27T11:24:51Z</time>
      </trkpt>
      <trkpt lat="48.37588" lon="2.54203">
        <ele>104.46</ele>
        <time>2016-08-27T11:25:01Z</time>
      </trkpt>
      <trkpt lat="48.37588" lon="2.54201">
        <ele>104.42</ele>
        <time>2016-08-27T11:25:07Z</time>
      </trkpt>
      <trkpt lat="48.37589" lon="2.54201">
        <ele>103.59</ele>
        <time>2016-08-27T11:25:22Z</time>
      </trkpt>
      <trkpt lat="48.37584" lon="2.54195">
        <ele>102.02</ele>
        <time>2016-08-27T11:25:49Z</time>
      </trkpt>
      <trkpt lat="48.37583" lon="2.54193">
        <ele>102.53</ele>
        <time>2016-08-27T11:25:54Z</time>
      </trkpt>
      <trkpt lat="48.37583" lon="2.54172">
        <ele>101.31</ele>
        <time>2016-08-27T11:26:19Z</time>
      </trkpt>
      <trkpt lat="48.37589" lon="2.54153">
        <ele>98.04</ele>
        <time>2016-08-27T11:26:36Z</time>
      </trkpt>
      <trkpt lat="48.3759" lon="2.54137">
        <ele>94.99</ele>
        <time>2016-08-27T11:26:49Z</time>
      </trkpt>
      <trkpt lat="48.37581" lon="2.54109">
        <ele>92.99</ele>
        <time>2016-08-27T11:27:15Z</time>
      </trkpt>
      <trkpt lat="48.37577" lon="2.541">
        <ele>93.01</ele>
        <time>2016-08-27T11:27:21Z</time>
      </trkpt>
      <trkpt lat="48.37567" lon="2.54056">
        <ele>91.35</ele>
        <time>2016-08-27T11:27:49Z</time>
      </trkpt>
      <trkpt lat="48.37564" lon="2.54039">
        <ele>90.27</ele>
        <time>2016-08-27T11:28:13Z</time>
      </trkpt>
      <trkpt lat="48.37573" lon="2.54044">
        <ele>90.15</ele>
        <time>2016-08-27T11:28:29Z</time>
      </trkpt>
      <trkpt lat="48.3757" lon="2.54041">
        <ele>89.98</ele>
        <time>2016-08-27T11:28:32Z</time>
      </trkpt>
      <trkpt lat="48.3756" lon="2.54003">
        <ele>87.96</ele>
        <time>2016-08-27T11:28:59Z</time>
      </trkpt>
      <trkpt lat="48.37538" lon="2.53997">
        <ele>87.22</ele>
        <time>2016-08-27T11:29:21Z</time>
      </trkpt>
      <trkpt lat="48.37519" lon="2.54008">
        <ele>84.12</ele>
        <time>2016-08-27T11:29:45Z</time>
      </trkpt>
      <trkpt lat="48.37503" lon="2.54006">
        <ele>81.09</ele>
        <time>2016-08-27T11:30:01Z</time>
      </trkpt>
      <trkpt lat="48.37491" lon="2.53998">
        <ele>80.89</ele>
        <time>2016-08-27T11:30:25Z</time>
      </trkpt>
      <trkpt lat="48.37493" lon="2.53999">
        <ele>81.02</ele>
        <time>2016-08-27T11:30:54Z</time>
      </trkpt>
      <trkpt lat="48.37492" lon="2.54002">
        <ele>81.65</ele>
        <time>2016-08-27T11:31:05Z</time>
      </trkpt>
      <trkpt lat="48.37477" lon="2.54005">
        <ele>78.42</ele>
        <time>2016-08-27T11:31:27Z</time>
      </trkpt>
      <trkpt lat="48.37475" lon="2.54007">
        <ele>77.67</ele>
        <time>2016-08-27T11:31:30Z</time>
      </trkpt>
      <trkpt lat="48.37454" lon="2.54037">
        <ele>75.88</ele>
        <time>2016-08-27T11:31:55Z</time>
      </trkpt>
      <trkpt lat="48.37441" lon="2.54052">
        <ele>76.15</ele>
        <time>2016-08-27T11:32:10Z</time>
      </trkpt>
      <trkpt lat="48.37432" lon="2.5407">
        <ele>76.13</ele>
        <time>2016-08-27T11:32:23Z</time>
      </trkpt>
      <trkpt lat="48.37431" lon="2.54071">
        <ele>76.09</ele>
        <time>2016-08-27T11:32:24Z</time>
      </trkpt>
      <trkpt lat="48.37419" lon="2.54088">
        <ele>76.12</ele>
        <time>2016-08-27T11:32:39Z</time>
      </trkpt>
      <trkpt lat="48.37413" lon="2.54092">
        <ele>76.35</ele>
        <time>2016-08-27T11:32:46Z</time>
      </trkpt>
      <trkpt lat="48.37409" lon="2.54095">
        <ele>76.65</ele>
        <time>2016-08-27T11:32:51Z</time>
      </trkpt>
      <trkpt lat="48.37386" lon="2.5409">
        <ele>78.43</ele>
        <time>2016-08-27T11:33:11Z</time>
      </trkpt>
      <trkpt lat="48.37373" lon="2.54085">
        <ele>80.54</ele>
        <time>2016-08-27T11:33:24Z</time>
      </trkpt>
      <trkpt lat="48.3737" lon="2.54086">
        <ele>81.16</ele>
        <time>2016-08-27T11:33:27Z</time>
      </trkpt>
      <trkpt lat="48.37362" lon="2.54092">
        <ele>82.44</ele>
        <time>2016-08-27T11:33:38Z</time>
      </trkpt>
      <trkpt lat="48.37347" lon="2.54093">
        <ele>83.76</ele>
        <time>2016-08-27T11:33:52Z</time>
      </trkpt>
      <trkpt lat="48.37335" lon="2.54082">
        <ele>83.71</ele>
        <time>2016-08-27T11:34:04Z</time>
      </trkpt>
      <trkpt lat="48.37325" lon="2.54084">
        <ele>84.69</ele>
        <time>2016-08-27T11:34:17Z</time>
      </trkpt>
      <trkpt lat="48.37318" lon="2.54085">
        <ele>85.32</ele>
        <time>2016-08-27T11:34:25Z</time>
      </trkpt>
      <trkpt lat="48.37315" lon="2.5408">
        <ele>85.36</ele>
        <time>2016-08-27T11:34:28Z</time>
      </trkpt>
      <trkpt lat="48.37296" lon="2.54064">
        <ele>86.25</ele>
        <time>2016-08-27T11:34:45Z</time>
      </trkpt>
      <trkpt lat="48.37287" lon="2.54063">
        <ele>86.96</ele>
        <time>2016-08-27T11:34:53Z</time>
      </trkpt>
      <trkpt lat="48.37263" lon="2.54069">
        <ele>89.33</ele>
        <time>2016-08-27T11:35:10Z</time>
      </trkpt>
      <trkpt lat="48.37259" lon="2.54071">
        <ele>90.22</ele>
        <time>2016-08-27T11:35:16Z</time>
      </trkpt>
      <trkpt lat="48.37251" lon="2.54069">
        <ele>90.83</ele>
        <time>2016-08-27T11:35:25Z</time>
      </trkpt>
      <trkpt lat="48.37246" lon="2.54068">
        <ele>89.99</ele>
        <time>2016-08-27T11:35:29Z</time>
      </trkpt>
      <trkpt lat="48.37241" lon="2.54066">
        <ele>89.34</ele>
        <time>2016-08-27T11:35:33Z</time>
      </trkpt>
      <trkpt lat="48.37236" lon="2.54068">
        <ele>88.12</ele>
        <time>2016-08-27T11:35:39Z</time>
      </trkpt>
      <trkpt lat="48.37228" lon="2.54049">
        <ele>86.6</ele>
        <time>2016-08-27T11:35:54Z</time>
      </trkpt>
      <trkpt lat="48.37225" lon="2.54045">
        <ele>86.38</ele>
        <time>2016-08-27T11:35:58Z</time>
      </trkpt>
      <trkpt lat="48.37218" lon="2.54029">
        <ele>85.59</ele>
        <time>2016-08-27T11:36:15Z</time>
      </trkpt>
      <trkpt lat="48.37212" lon="2.54034">
        <ele>85.68</ele>
        <time>2016-08-27T11:36:34Z</time>
      </trkpt>
      <trkpt lat="48.37216" lon="2.5403">
        <ele>85.85</ele>
        <time>2016-08-27T11:36:52Z</time>
      </trkpt>
      <trkpt lat="48.37219" lon="2.54031">
        <ele>85.56</ele>
        <time>2016-08-27T11:37:08Z</time>
      </trkpt>
      <trkpt lat="48.37217" lon="2.54038">
        <ele>85.44</ele>
        <time>2016-08-27T11:37:11Z</time>
      </trkpt>
      <trkpt lat="48.37216" lon="2.5404">
        <ele>85.77</ele>
        <time>2016-08-27T11:37:28Z</time>
      </trkpt>
      <trkpt lat="48.37219" lon="2.54039">
        <ele>85.68</ele>
        <time>2016-08-27T11:37:43Z</time>
      </trkpt>
      <trkpt lat="48.37219" lon="2.54037">
        <ele>85.68</ele>
        <time>2016-08-27T11:38:01Z</time>
      </trkpt>
      <trkpt lat="48.37218" lon="2.54039">
        <ele>85.7</ele>
        <time>2016-08-27T11:38:26Z</time>
      </trkpt>
      <trkpt lat="48.37218" lon="2.54023">
        <ele>85.3</ele>
        <time>2016-08-27T11:38:37Z</time>
      </trkpt>
      <trkpt lat="48.37217" lon="2.53991">
        <ele>85.83</ele>
        <time>2016-08-27T11:39:01Z</time>
      </trkpt>
      <trkpt lat="48.37212" lon="2.53969">
        <ele>86.18</ele>
        <time>2016-08-27T11:39:26Z</time>
      </trkpt>
      <trkpt lat="48.372" lon="2.53952">
        <ele>86.32</ele>
        <time>2016-08-27T11:39:48Z</time>
      </trkpt>
      <trkpt lat="48.37186" lon="2.5395">
        <ele>87.99</ele>
        <time>2016-08-27T11:40:11Z</time>
      </trkpt>
      <trkpt lat="48.37161" lon="2.53932">
        <ele>90.76</ele>
        <time>2016-08-27T11:40:41Z</time>
      </trkpt>
      <trkpt lat="48.37157" lon="2.53932">
        <ele>91.1</ele>
        <time>2016-08-27T11:40:43Z</time>
      </trkpt>
      <trkpt lat="48.37135" lon="2.53925">
        <ele>94.36</ele>
        <time>2016-08-27T11:41:04Z</time>
      </trkpt>
      <trkpt lat="48.37123" lon="2.53901">
        <ele>96.82</ele>
        <time>2016-08-27T11:41:28Z</time>
      </trkpt>
      <trkpt lat="48.37116" lon="2.53885">
        <ele>98.54</ele>
        <time>2016-08-27T11:41:51Z</time>
      </trkpt>
      <trkpt lat="48.37109" lon="2.53886">
        <ele>101.59</ele>
        <time>2016-08-27T11:42:09Z</time>
      </trkpt>
      <trkpt lat="48.37098" lon="2.5388">
        <ele>104.63</ele>
        <time>2016-08-27T11:42:30Z</time>
      </trkpt>
      <trkpt lat="48.37097" lon="2.53877">
        <ele>104.74</ele>
        <time>2016-08-27T11:42:35Z</time>
      </trkpt>
      <trkpt lat="48.37101" lon="2.53874">
        <ele>104.48</ele>
        <time>2016-08-27T11:42:52Z</time>
      </trkpt>
      <trkpt lat="48.371" lon="2.53874">
        <ele>104.45</ele>
        <time>2016-08-27T11:42:53Z</time>
      </trkpt>
      <trkpt lat="48.37094" lon="2.53869">
        <ele>105.32</ele>
        <time>2016-08-27T11:43:16Z</time>
      </trkpt>
      <trkpt lat="48.37081" lon="2.53862">
        <ele>102.31</ele>
        <time>2016-08-27T11:43:37Z</time>
      </trkpt>
      <trkpt lat="48.3707" lon="2.53843">
        <ele>101.29</ele>
        <time>2016-08-27T11:44:00Z</time>
      </trkpt>
      <trkpt lat="48.37068" lon="2.53843">
        <ele>101.22</ele>
        <time>2016-08-27T11:44:04Z</time>
      </trkpt>
      <trkpt lat="48.37062" lon="2.53843">
        <ele>101.16</ele>
        <time>2016-08-27T11:44:20Z</time>
      </trkpt>
      <trkpt lat="48.37048" lon="2.53837">
        <ele>102.12</ele>
        <time>2016-08-27T11:44:41Z</time>
      </trkpt>
      <trkpt lat="48.37036" lon="2.53796">
        <ele>102.59</ele>
        <time>2016-08-27T11:45:14Z</time>
      </trkpt>
      <trkpt lat="48.37034" lon="2.53767">
        <ele>105.64</ele>
        <time>2016-08-27T11:45:34Z</time>
      </trkpt>
      <trkpt lat="48.37025" lon="2.53752">
        <ele>108.8</ele>
        <time>2016-08-27T11:45:59Z</time>
      </trkpt>
      <trkpt lat="48.37025" lon="2.5375">
        <ele>109.4</ele>
        <time>2016-08-27T11:46:07Z</time>
      </trkpt>
      <trkpt lat="48.37029" lon="2.53747">
        <ele>110.48</ele>
        <time>2016-08-27T11:46:12Z</time>
      </trkpt>
      <trkpt lat="48.37027" lon="2.53742">
        <ele>109.79</ele>
        <time>2016-08-27T11:46:40Z</time>
      </trkpt>
      <trkpt lat="48.37023" lon="2.53737">
        <ele>109.85</ele>
        <time>2016-08-27T11:46:53Z</time>
      </trkpt>
      <trkpt lat="48.37018" lon="2.53736">
        <ele>108.8</ele>
        <time>2016-08-27T11:47:10Z</time>
      </trkpt>
      <trkpt lat="48.37018" lon="2.53734">
        <ele>108.7</ele>
        <time>2016-08-27T11:47:11Z</time>
      </trkpt>
      <trkpt lat="48.37012" lon="2.53721">
        <ele>105.93</ele>
        <time>2016-08-27T11:47:33Z</time>
      </trkpt>
      <trkpt lat="48.37013" lon="2.53718">
        <ele>105.48</ele>
        <time>2016-08-27T11:47:53Z</time>
      </trkpt>
      <trkpt lat="48.37017" lon="2.53701">
        <ele>107.11</ele>
        <time>2016-08-27T11:48:12Z</time>
      </trkpt>
      <trkpt lat="48.37018" lon="2.53695">
        <ele>107</ele>
        <time>2016-08-27T11:48:38Z</time>
      </trkpt>
      <trkpt lat="48.37019" lon="2.53693">
        <ele>107.02</ele>
        <time>2016-08-27T11:49:08Z</time>
      </trkpt>
      <trkpt lat="48.37016" lon="2.5367">
        <ele>103.77</ele>
        <time>2016-08-27T11:49:31Z</time>
      </trkpt>
      <trkpt lat="48.37004" lon="2.53649">
        <ele>100.72</ele>
        <time>2016-08-27T11:49:55Z</time>
      </trkpt>
      <trkpt lat="48.36991" lon="2.53654">
        <ele>100.12</ele>
        <time>2016-08-27T11:50:16Z</time>
      </trkpt>
      <trkpt lat="48.3699" lon="2.53645">
        <ele>97.02</ele>
        <time>2016-08-27T11:50:29Z</time>
      </trkpt>
      <trkpt lat="48.36989" lon="2.53634">
        <ele>94</ele>
        <time>2016-08-27T11:50:48Z</time>
      </trkpt>
      <trkpt lat="48.36995" lon="2.5362">
        <ele>90.82</ele>
        <time>2016-08-27T11:51:04Z</time>
      </trkpt>
      <trkpt lat="48.36996" lon="2.53612">
        <ele>90.1</ele>
        <time>2016-08-27T11:51:16Z</time>
      </trkpt>
      <trkpt lat="48.36979" lon="2.53606">
        <ele>90.63</ele>
        <time>2016-08-27T11:51:42Z</time>
      </trkpt>
      <trkpt lat="48.36965" lon="2.53608">
        <ele>93.12</ele>
        <time>2016-08-27T11:52:14Z</time>
      </trkpt>
      <trkpt lat="48.36955" lon="2.53607">
        <ele>95.84</ele>
        <time>2016-08-27T11:52:27Z</time>
      </trkpt>
      <trkpt lat="48.36951" lon="2.53603">
        <ele>96.1</ele>
        <time>2016-08-27T11:52:31Z</time>
      </trkpt>
      <trkpt lat="48.36948" lon="2.53606">
        <ele>96.68</ele>
        <time>2016-08-27T11:52:38Z</time>
      </trkpt>
      <trkpt lat="48.36946" lon="2.53601">
        <ele>96.93</ele>
        <time>2016-08-27T11:52:43Z</time>
      </trkpt>
      <trkpt lat="48.36936" lon="2.53597">
        <ele>95.48</ele>
        <time>2016-08-27T11:52:59Z</time>
      </trkpt>
      <trkpt lat="48.3694" lon="2.53592">
        <ele>93.38</ele>
        <time>2016-08-27T11:53:13Z</time>
      </trkpt>
      <trkpt lat="48.36936" lon="2.53577">
        <ele>91.09</ele>
        <time>2016-08-27T11:53:27Z</time>
      </trkpt>
      <trkpt lat="48.36931" lon="2.5357">
        <ele>89.71</ele>
        <time>2016-08-27T11:53:42Z</time>
      </trkpt>
      <trkpt lat="48.36933" lon="2.53555">
        <ele>87.15</ele>
        <time>2016-08-27T11:53:57Z</time>
      </trkpt>
      <trkpt lat="48.36935" lon="2.53553">
        <ele>86.27</ele>
        <time>2016-08-27T11:54:08Z</time>
      </trkpt>
      <trkpt lat="48.36932" lon="2.53542">
        <ele>84.4</ele>
        <time>2016-08-27T11:54:23Z</time>
      </trkpt>
      <trkpt lat="48.36928" lon="2.53539">
        <ele>82.96</ele>
        <time>2016-08-27T11:54:35Z</time>
      </trkpt>
      <trkpt lat="48.36929" lon="2.53538">
        <ele>81.97</ele>
        <time>2016-08-27T11:54:42Z</time>
      </trkpt>
      <trkpt lat="48.36931" lon="2.53531">
        <ele>81.07</ele>
        <time>2016-08-27T11:54:49Z</time>
      </trkpt>
      <trkpt lat="48.36929" lon="2.53523">
        <ele>80.52</ele>
        <time>2016-08-27T11:54:59Z</time>
      </trkpt>
      <trkpt lat="48.36936" lon="2.53514">
        <ele>79.12</ele>
        <time>2016-08-27T11:55:14Z</time>
      </trkpt>
      <trkpt lat="48.36936" lon="2.53512">
        <ele>79.34</ele>
        <time>2016-08-27T11:55:29Z</time>
      </trkpt>
      <trkpt lat="48.36933" lon="2.53507">
        <ele>79.04</ele>
        <time>2016-08-27T11:56:00Z</time>
      </trkpt>
      <trkpt lat="48.3693" lon="2.53507">
        <ele>78</ele>
        <time>2016-08-27T11:56:35Z</time>
      </trkpt>
      <trkpt lat="48.36931" lon="2.53507">
        <ele>78</ele>
        <time>2016-08-27T11:56:38Z</time>
      </trkpt>
      <trkpt lat="48.36931" lon="2.53508">
        <ele>79.01</ele>
        <time>2016-08-27T11:57:11Z</time>
      </trkpt>
      <trkpt lat="48.36931" lon="2.53507">
        <ele>78.42</ele>
        <time>2016-08-27T11:57:48Z</time>
      </trkpt>
      <trkpt lat="48.36931" lon="2.53509">
        <ele>79.68</ele>
        <time>2016-08-27T11:57:55Z</time>
      </trkpt>
      <trkpt lat="48.36932" lon="2.53512">
        <ele>79.72</ele>
        <time>2016-08-27T11:58:19Z</time>
      </trkpt>
      <trkpt lat="48.36932" lon="2.5351">
        <ele>79.03</ele>
        <time>2016-08-27T11:58:31Z</time>
      </trkpt>
      <trkpt lat="48.36928" lon="2.53511">
        <ele>78.88</ele>
        <time>2016-08-27T11:58:40Z</time>
      </trkpt>
      <trkpt lat="48.36932" lon="2.53506">
        <ele>78.83</ele>
        <time>2016-08-27T11:59:18Z</time>
      </trkpt>
      <trkpt lat="48.36914" lon="2.53504">
        <ele>78.74</ele>
        <time>2016-08-27T11:59:46Z</time>
      </trkpt>
      <trkpt lat="48.3691" lon="2.53504">
        <ele>78.56</ele>
        <time>2016-08-27T11:59:49Z</time>
      </trkpt>
      <trkpt lat="48.36886" lon="2.53488">
        <ele>78.59</ele>
        <time>2016-08-27T12:00:19Z</time>
      </trkpt>
      <trkpt lat="48.36873" lon="2.5349">
        <ele>81.73</ele>
        <time>2016-08-27T12:00:37Z</time>
      </trkpt>
      <trkpt lat="48.36861" lon="2.5349">
        <ele>84.83</ele>
        <time>2016-08-27T12:00:54Z</time>
      </trkpt>
      <trkpt lat="48.36854" lon="2.53496">
        <ele>87.9</ele>
        <time>2016-08-27T12:01:07Z</time>
      </trkpt>
      <trkpt lat="48.3685" lon="2.53503">
        <ele>91.01</ele>
        <time>2016-08-27T12:01:21Z</time>
      </trkpt>
      <trkpt lat="48.36837" lon="2.5351">
        <ele>94.01</ele>
        <time>2016-08-27T12:01:45Z</time>
      </trkpt>
      <trkpt lat="48.36818" lon="2.53517">
        <ele>96</ele>
        <time>2016-08-27T12:02:05Z</time>
      </trkpt>
      <trkpt lat="48.36798" lon="2.53517">
        <ele>96.89</ele>
        <time>2016-08-27T12:02:30Z</time>
      </trkpt>
      <trkpt lat="48.36789" lon="2.53514">
        <ele>96.52</ele>
        <time>2016-08-27T12:02:54Z</time>
      </trkpt>
      <trkpt lat="48.36774" lon="2.53522">
        <ele>96.89</ele>
        <time>2016-08-27T12:03:17Z</time>
      </trkpt>
      <trkpt lat="48.36754" lon="2.53506">
        <ele>94.22</ele>
        <time>2016-08-27T12:03:42Z</time>
      </trkpt>
      <trkpt lat="48.36748" lon="2.53509">
        <ele>92.51</ele>
        <time>2016-08-27T12:04:00Z</time>
      </trkpt>
      <trkpt lat="48.36741" lon="2.53502">
        <ele>89.7</ele>
        <time>2016-08-27T12:04:25Z</time>
      </trkpt>
      <trkpt lat="48.36736" lon="2.53489">
        <ele>87.97</ele>
        <time>2016-08-27T12:04:40Z</time>
      </trkpt>
      <trkpt lat="48.36727" lon="2.53462">
        <ele>85.56</ele>
        <time>2016-08-27T12:05:01Z</time>
      </trkpt>
      <trkpt lat="48.36715" lon="2.53436">
        <ele>82.46</ele>
        <time>2016-08-27T12:05:25Z</time>
      </trkpt>
      <trkpt lat="48.36711" lon="2.53439">
        <ele>82.98</ele>
        <time>2016-08-27T12:05:37Z</time>
      </trkpt>
      <trkpt lat="48.36715" lon="2.5343">
        <ele>82.57</ele>
        <time>2016-08-27T12:05:52Z</time>
      </trkpt>
      <trkpt lat="48.36709" lon="2.53416">
        <ele>81.91</ele>
        <time>2016-08-27T12:06:06Z</time>
      </trkpt>
      <trkpt lat="48.36708" lon="2.53417">
        <ele>82.04</ele>
        <time>2016-08-27T12:06:21Z</time>
      </trkpt>
      <trkpt lat="48.36704" lon="2.53414">
        <ele>82.76</ele>
        <time>2016-08-27T12:06:37Z</time>
      </trkpt>
      <trkpt lat="48.36703" lon="2.53424">
        <ele>81.62</ele>
        <time>2016-08-27T12:06:51Z</time>
      </trkpt>
      <trkpt lat="48.3669" lon="2.53423">
        <ele>78.86</ele>
        <time>2016-08-27T12:07:18Z</time>
      </trkpt>
      <trkpt lat="48.36685" lon="2.53418">
        <ele>78.26</ele>
        <time>2016-08-27T12:07:38Z</time>
      </trkpt>
      <trkpt lat="48.36682" lon="2.53411">
        <ele>77.89</ele>
        <time>2016-08-27T12:08:08Z</time>
      </trkpt>
      <trkpt lat="48.36687" lon="2.53418">
        <ele>79.31</ele>
        <time>2016-08-27T12:08:17Z</time>
      </trkpt>
      <trkpt lat="48.36692" lon="2.53427">
        <ele>79.58</ele>
        <time>2016-08-27T12:08:37Z</time>
      </trkpt>
      <trkpt lat="48.36688" lon="2.53431">
        <ele>78.94</ele>
        <time>2016-08-27T12:08:42Z</time>
      </trkpt>
      <trkpt lat="48.36675" lon="2.53468">
        <ele>79.08</ele>
        <time>2016-08-27T12:09:06Z</time>
      </trkpt>
      <trkpt lat="48.36668" lon="2.53505">
        <ele>82.07</ele>
        <time>2016-08-27T12:09:36Z</time>
      </trkpt>
      <trkpt lat="48.36668" lon="2.53519">
        <ele>85.08</ele>
        <time>2016-08-27T12:09:56Z</time>
      </trkpt>
      <trkpt lat="48.36655" lon="2.53526">
        <ele>88.26</ele>
        <time>2016-08-27T12:10:12Z</time>
      </trkpt>
      <trkpt lat="48.3665" lon="2.53539">
        <ele>91.42</ele>
        <time>2016-08-27T12:10:26Z</time>
      </trkpt>
      <trkpt lat="48.36646" lon="2.5355">
        <ele>94.5</ele>
        <time>2016-08-27T12:10:40Z</time>
      </trkpt>
      <trkpt lat="48.36648" lon="2.53564">
        <ele>97.51</ele>
        <time>2016-08-27T12:10:56Z</time>
      </trkpt>
      <trkpt lat="48.36649" lon="2.53579">
        <ele>100.61</ele>
        <time>2016-08-27T12:11:10Z</time>
      </trkpt>
      <trkpt lat="48.36648" lon="2.53597">
        <ele>103.87</ele>
        <time>2016-08-27T12:11:25Z</time>
      </trkpt>
      <trkpt lat="48.36639" lon="2.53607">
        <ele>105.14</ele>
        <time>2016-08-27T12:11:54Z</time>
      </trkpt>
      <trkpt lat="48.36619" lon="2.53586">
        <ele>105.55</ele>
        <time>2016-08-27T12:12:21Z</time>
      </trkpt>
      <trkpt lat="48.36605" lon="2.53572">
        <ele>105.9</ele>
        <time>2016-08-27T12:12:45Z</time>
      </trkpt>
      <trkpt lat="48.36583" lon="2.53568">
        <ele>104.19</ele>
        <time>2016-08-27T12:13:13Z</time>
      </trkpt>
      <trkpt lat="48.36575" lon="2.53576">
        <ele>101.98</ele>
        <time>2016-08-27T12:13:30Z</time>
      </trkpt>
      <trkpt lat="48.36573" lon="2.53587">
        <ele>99.87</ele>
        <time>2016-08-27T12:13:46Z</time>
      </trkpt>
      <trkpt lat="48.36561" lon="2.5358">
        <ele>98.09</ele>
        <time>2016-08-27T12:14:10Z</time>
      </trkpt>
      <trkpt lat="48.3655" lon="2.53573">
        <ele>98.77</ele>
        <time>2016-08-27T12:14:33Z</time>
      </trkpt>
      <trkpt lat="48.36534" lon="2.53549">
        <ele>99.56</ele>
        <time>2016-08-27T12:15:00Z</time>
      </trkpt>
      <trkpt lat="48.36532" lon="2.53538">
        <ele>99.9</ele>
        <time>2016-08-27T12:15:11Z</time>
      </trkpt>
      <trkpt lat="48.36525" lon="2.53534">
        <ele>98.15</ele>
        <time>2016-08-27T12:15:26Z</time>
      </trkpt>
      <trkpt lat="48.36518" lon="2.53524">
        <ele>97.05</ele>
        <time>2016-08-27T12:15:39Z</time>
      </trkpt>
      <trkpt lat="48.36512" lon="2.53524">
        <ele>96.8</ele>
        <time>2016-08-27T12:15:53Z</time>
      </trkpt>
      <trkpt lat="48.36512" lon="2.53523">
        <ele>97.71</ele>
        <time>2016-08-27T12:16:11Z</time>
      </trkpt>
      <trkpt lat="48.36513" lon="2.53516">
        <ele>96.75</ele>
        <time>2016-08-27T12:16:27Z</time>
      </trkpt>
      <trkpt lat="48.36512" lon="2.53515">
        <ele>96.62</ele>
        <time>2016-08-27T12:16:44Z</time>
      </trkpt>
      <trkpt lat="48.36513" lon="2.53515">
        <ele>96.8</ele>
        <time>2016-08-27T12:16:49Z</time>
      </trkpt>
      <trkpt lat="48.36515" lon="2.53518">
        <ele>96.86</ele>
        <time>2016-08-27T12:17:09Z</time>
      </trkpt>
      <trkpt lat="48.36513" lon="2.53516">
        <ele>97.75</ele>
        <time>2016-08-27T12:17:24Z</time>
      </trkpt>
      <trkpt lat="48.36511" lon="2.53513">
        <ele>98.41</ele>
        <time>2016-08-27T12:17:38Z</time>
      </trkpt>
      <trkpt lat="48.36513" lon="2.53515">
        <ele>98.54</ele>
        <time>2016-08-27T12:17:58Z</time>
      </trkpt>
      <trkpt lat="48.36509" lon="2.53508">
        <ele>97.86</ele>
        <time>2016-08-27T12:18:32Z</time>
      </trkpt>
      <trkpt lat="48.36511" lon="2.5351">
        <ele>98.05</ele>
        <time>2016-08-27T12:19:01Z</time>
      </trkpt>
      <trkpt lat="48.36511" lon="2.53512">
        <ele>97.91</ele>
        <time>2016-08-27T12:19:36Z</time>
      </trkpt>
      <trkpt lat="48.3651" lon="2.53512">
        <ele>97.77</ele>
        <time>2016-08-27T12:19:49Z</time>
      </trkpt>
      <trkpt lat="48.36495" lon="2.53481">
        <ele>95.66</ele>
        <time>2016-08-27T12:20:19Z</time>
      </trkpt>
      <trkpt lat="48.36486" lon="2.5345">
        <ele>95.5</ele>
        <time>2016-08-27T12:20:39Z</time>
      </trkpt>
      <trkpt lat="48.36489" lon="2.53417">
        <ele>95.97</ele>
        <time>2016-08-27T12:21:06Z</time>
      </trkpt>
      <trkpt lat="48.3649" lon="2.53416">
        <ele>95.87</ele>
        <time>2016-08-27T12:21:07Z</time>
      </trkpt>
      <trkpt lat="48.36495" lon="2.53395">
        <ele>93.43</ele>
        <time>2016-08-27T12:21:30Z</time>
      </trkpt>
      <trkpt lat="48.36489" lon="2.53385">
        <ele>91.08</ele>
        <time>2016-08-27T12:21:53Z</time>
      </trkpt>
      <trkpt lat="48.36489" lon="2.53384">
        <ele>90.67</ele>
        <time>2016-08-27T12:21:59Z</time>
      </trkpt>
      <trkpt lat="48.36489" lon="2.53372">
        <ele>89.8</ele>
        <time>2016-08-27T12:22:25Z</time>
      </trkpt>
      <trkpt lat="48.36483" lon="2.53357">
        <ele>86.64</ele>
        <time>2016-08-27T12:22:42Z</time>
      </trkpt>
      <trkpt lat="48.36475" lon="2.53354">
        <ele>83.58</ele>
        <time>2016-08-27T12:23:01Z</time>
      </trkpt>
      <trkpt lat="48.36457" lon="2.53359">
        <ele>86.59</ele>
        <time>2016-08-27T12:23:25Z</time>
      </trkpt>
      <trkpt lat="48.36453" lon="2.53366">
        <ele>89.37</ele>
        <time>2016-08-27T12:23:34Z</time>
      </trkpt>
      <trkpt lat="48.3645" lon="2.53368">
        <ele>89.34</ele>
        <time>2016-08-27T12:23:41Z</time>
      </trkpt>
      <trkpt lat="48.36442" lon="2.53368">
        <ele>92.78</ele>
        <time>2016-08-27T12:23:57Z</time>
      </trkpt>
      <trkpt lat="48.36435" lon="2.53371">
        <ele>94.03</ele>
        <time>2016-08-27T12:24:11Z</time>
      </trkpt>
      <trkpt lat="48.36431" lon="2.53375">
        <ele>93.59</ele>
        <time>2016-08-27T12:24:25Z</time>
      </trkpt>
      <trkpt lat="48.36431" lon="2.53373">
        <ele>93.54</ele>
        <time>2016-08-27T12:24:28Z</time>
      </trkpt>
      <trkpt lat="48.36423" lon="2.53363">
        <ele>92.23</ele>
        <time>2016-08-27T12:24:50Z</time>
      </trkpt>
      <trkpt lat="48.3641" lon="2.53357">
        <ele>89.22</ele>
        <time>2016-08-27T12:25:10Z</time>
      </trkpt>
      <trkpt lat="48.36399" lon="2.53348">
        <ele>86.18</ele>
        <time>2016-08-27T12:25:27Z</time>
      </trkpt>
      <trkpt lat="48.36396" lon="2.53346">
        <ele>85.54</ele>
        <time>2016-08-27T12:25:31Z</time>
      </trkpt>
      <trkpt lat="48.36386" lon="2.53342">
        <ele>82.51</ele>
        <time>2016-08-27T12:25:46Z</time>
      </trkpt>
      <trkpt lat="48.36377" lon="2.53332">
        <ele>81.36</ele>
        <time>2016-08-27T12:26:01Z</time>
      </trkpt>
      <trkpt lat="48.36374" lon="2.53334">
        <ele>81.33</ele>
        <time>2016-08-27T12:26:16Z</time>
      </trkpt>
      <trkpt lat="48.36374" lon="2.53332">
        <ele>81.51</ele>
        <time>2016-08-27T12:26:23Z</time>
      </trkpt>
      <trkpt lat="48.36372" lon="2.5333">
        <ele>81.46</ele>
        <time>2016-08-27T12:26:39Z</time>
      </trkpt>
      <trkpt lat="48.36372" lon="2.53332">
        <ele>81.44</ele>
        <time>2016-08-27T12:26:51Z</time>
      </trkpt>
      <trkpt lat="48.36374" lon="2.53335">
        <ele>81.32</ele>
        <time>2016-08-27T12:27:11Z</time>
      </trkpt>
      <trkpt lat="48.36375" lon="2.53335">
        <ele>81.31</ele>
        <time>2016-08-27T12:27:12Z</time>
      </trkpt>
      <trkpt lat="48.36371" lon="2.53333">
        <ele>81.78</ele>
        <time>2016-08-27T12:27:30Z</time>
      </trkpt>
      <trkpt lat="48.36368" lon="2.53332">
        <ele>81.86</ele>
        <time>2016-08-27T12:27:39Z</time>
      </trkpt>
      <trkpt lat="48.36368" lon="2.53328">
        <ele>81.53</ele>
        <time>2016-08-27T12:27:58Z</time>
      </trkpt>
      <trkpt lat="48.36373" lon="2.53331">
        <ele>81.62</ele>
        <time>2016-08-27T12:28:14Z</time>
      </trkpt>
      <trkpt lat="48.36369" lon="2.53329">
        <ele>82.56</ele>
        <time>2016-08-27T12:28:31Z</time>
      </trkpt>
      <trkpt lat="48.36361" lon="2.53325">
        <ele>84.88</ele>
        <time>2016-08-27T12:28:47Z</time>
      </trkpt>
      <trkpt lat="48.3635" lon="2.53328">
        <ele>87.96</ele>
        <time>2016-08-27T12:29:02Z</time>
      </trkpt>
      <trkpt lat="48.36341" lon="2.53326">
        <ele>90.31</ele>
        <time>2016-08-27T12:29:17Z</time>
      </trkpt>
      <trkpt lat="48.36334" lon="2.53319">
        <ele>92.13</ele>
        <time>2016-08-27T12:29:33Z</time>
      </trkpt>
      <trkpt lat="48.3632" lon="2.53323">
        <ele>92.54</ele>
        <time>2016-08-27T12:29:48Z</time>
      </trkpt>
      <trkpt lat="48.36314" lon="2.53337">
        <ele>94.31</ele>
        <time>2016-08-27T12:30:04Z</time>
      </trkpt>
      <trkpt lat="48.3631" lon="2.53351">
        <ele>94.93</ele>
        <time>2016-08-27T12:30:17Z</time>
      </trkpt>
      <trkpt lat="48.36308" lon="2.53354">
        <ele>94.8</ele>
        <time>2016-08-27T12:30:20Z</time>
      </trkpt>
      <trkpt lat="48.36304" lon="2.53362">
        <ele>94.9</ele>
        <time>2016-08-27T12:30:26Z</time>
      </trkpt>
      <trkpt lat="48.363" lon="2.53368">
        <ele>95.48</ele>
        <time>2016-08-27T12:30:32Z</time>
      </trkpt>
      <trkpt lat="48.3629" lon="2.53375">
        <ele>96.34</ele>
        <time>2016-08-27T12:30:47Z</time>
      </trkpt>
      <trkpt lat="48.36288" lon="2.53375">
        <ele>96.38</ele>
        <time>2016-08-27T12:30:49Z</time>
      </trkpt>
      <trkpt lat="48.36278" lon="2.53374">
        <ele>97.37</ele>
        <time>2016-08-27T12:31:02Z</time>
      </trkpt>
      <trkpt lat="48.36269" lon="2.53378">
        <ele>98.14</ele>
        <time>2016-08-27T12:31:14Z</time>
      </trkpt>
      <trkpt lat="48.36266" lon="2.53385">
        <ele>100.19</ele>
        <time>2016-08-27T12:31:37Z</time>
      </trkpt>
      <trkpt lat="48.36255" lon="2.53395">
        <ele>102.45</ele>
        <time>2016-08-27T12:31:59Z</time>
      </trkpt>
      <trkpt lat="48.36253" lon="2.53413">
        <ele>105.47</ele>
        <time>2016-08-27T12:32:19Z</time>
      </trkpt>
      <trkpt lat="48.3625" lon="2.53414">
        <ele>107.18</ele>
        <time>2016-08-27T12:32:26Z</time>
      </trkpt>
      <trkpt lat="48.36232" lon="2.53414">
        <ele>109.67</ele>
        <time>2016-08-27T12:32:52Z</time>
      </trkpt>
      <trkpt lat="48.36225" lon="2.53433">
        <ele>109.1</ele>
        <time>2016-08-27T12:33:12Z</time>
      </trkpt>
      <trkpt lat="48.36222" lon="2.53462">
        <ele>107</ele>
        <time>2016-08-27T12:33:38Z</time>
      </trkpt>
      <trkpt lat="48.36221" lon="2.53465">
        <ele>106.86</ele>
        <time>2016-08-27T12:33:40Z</time>
      </trkpt>
      <trkpt lat="48.36215" lon="2.53491">
        <ele>106.65</ele>
        <time>2016-08-27T12:34:00Z</time>
      </trkpt>
      <trkpt lat="48.36221" lon="2.53518">
        <ele>109.37</ele>
        <time>2016-08-27T12:34:27Z</time>
      </trkpt>
      <trkpt lat="48.36217" lon="2.53534">
        <ele>112.1</ele>
        <time>2016-08-27T12:34:47Z</time>
      </trkpt>
      <trkpt lat="48.3621" lon="2.5354">
        <ele>112.65</ele>
        <time>2016-08-27T12:35:09Z</time>
      </trkpt>
      <trkpt lat="48.36208" lon="2.53545">
        <ele>114.48</ele>
        <time>2016-08-27T12:35:16Z</time>
      </trkpt>
      <trkpt lat="48.3621" lon="2.53546">
        <ele>115.16</ele>
        <time>2016-08-27T12:35:37Z</time>
      </trkpt>
      <trkpt lat="48.36209" lon="2.53545">
        <ele>114.63</ele>
        <time>2016-08-27T12:36:08Z</time>
      </trkpt>
      <trkpt lat="48.36206" lon="2.53568">
        <ele>115.14</ele>
        <time>2016-08-27T12:36:28Z</time>
      </trkpt>
      <trkpt lat="48.3621" lon="2.53592">
        <ele>115.41</ele>
        <time>2016-08-27T12:36:51Z</time>
      </trkpt>
      <trkpt lat="48.36212" lon="2.53609">
        <ele>115.35</ele>
        <time>2016-08-27T12:37:11Z</time>
      </trkpt>
      <trkpt lat="48.36216" lon="2.53625">
        <ele>114.42</ele>
        <time>2016-08-27T12:37:31Z</time>
      </trkpt>
      <trkpt lat="48.36221" lon="2.53653">
        <ele>112.35</ele>
        <time>2016-08-27T12:37:51Z</time>
      </trkpt>
      <trkpt lat="48.3622" lon="2.53676">
        <ele>114.42</ele>
        <time>2016-08-27T12:38:14Z</time>
      </trkpt>
      <trkpt lat="48.3622" lon="2.53681">
        <ele>114.76</ele>
        <time>2016-08-27T12:38:35Z</time>
      </trkpt>
      <trkpt lat="48.36219" lon="2.53691">
        <ele>115.56</ele>
        <time>2016-08-27T12:39:01Z</time>
      </trkpt>
      <trkpt lat="48.36218" lon="2.53696">
        <ele>115.78</ele>
        <time>2016-08-27T12:39:21Z</time>
      </trkpt>
      <trkpt lat="48.36217" lon="2.53697">
        <ele>116.43</ele>
        <time>2016-08-27T12:39:32Z</time>
      </trkpt>
      <trkpt lat="48.36215" lon="2.53704">
        <ele>114.14</ele>
        <time>2016-08-27T12:39:51Z</time>
      </trkpt>
      <trkpt lat="48.36209" lon="2.5372">
        <ele>114.41</ele>
        <time>2016-08-27T12:40:12Z</time>
      </trkpt>
      <trkpt lat="48.36201" lon="2.53745">
        <ele>113.77</ele>
        <time>2016-08-27T12:40:35Z</time>
      </trkpt>
      <trkpt lat="48.36202" lon="2.53771">
        <ele>115.84</ele>
        <time>2016-08-27T12:41:00Z</time>
      </trkpt>
      <trkpt lat="48.36193" lon="2.5378">
        <ele>115.01</ele>
        <time>2016-08-27T12:41:17Z</time>
      </trkpt>
      <trkpt lat="48.36182" lon="2.5379">
        <ele>114.09</ele>
        <time>2016-08-27T12:41:37Z</time>
      </trkpt>
      <trkpt lat="48.36184" lon="2.53792">
        <ele>114.29</ele>
        <time>2016-08-27T12:41:47Z</time>
      </trkpt>
      <trkpt lat="48.36184" lon="2.53802">
        <ele>115.97</ele>
        <time>2016-08-27T12:42:09Z</time>
      </trkpt>
      <trkpt lat="48.36184" lon="2.53809">
        <ele>115.65</ele>
        <time>2016-08-27T12:42:15Z</time>
      </trkpt>
      <trkpt lat="48.36185" lon="2.53822">
        <ele>116.96</ele>
        <time>2016-08-27T12:42:36Z</time>
      </trkpt>
      <trkpt lat="48.36181" lon="2.53823">
        <ele>117.03</ele>
        <time>2016-08-27T12:42:54Z</time>
      </trkpt>
      <trkpt lat="48.36173" lon="2.5383">
        <ele>116.07</ele>
        <time>2016-08-27T12:43:15Z</time>
      </trkpt>
      <trkpt lat="48.36171" lon="2.53822">
        <ele>115.97</ele>
        <time>2016-08-27T12:43:44Z</time>
      </trkpt>
      <trkpt lat="48.36171" lon="2.53822">
        <ele>116.12</ele>
        <time>2016-08-27T12:43:46Z</time>
      </trkpt>
      <trkpt lat="48.36166" lon="2.53824">
        <ele>116.2</ele>
        <time>2016-08-27T12:44:15Z</time>
      </trkpt>
      <trkpt lat="48.36161" lon="2.53824">
        <ele>116.25</ele>
        <time>2016-08-27T12:44:21Z</time>
      </trkpt>
      <trkpt lat="48.36159" lon="2.53826">
        <ele>116.51</ele>
        <time>2016-08-27T12:44:34Z</time>
      </trkpt>
      <trkpt lat="48.36161" lon="2.53829">
        <ele>116.53</ele>
        <time>2016-08-27T12:45:06Z</time>
      </trkpt>
      <trkpt lat="48.36162" lon="2.53829">
        <ele>116.73</ele>
        <time>2016-08-27T12:45:31Z</time>
      </trkpt>
      <trkpt lat="48.36163" lon="2.53834">
        <ele>116.47</ele>
        <time>2016-08-27T12:45:42Z</time>
      </trkpt>
      <trkpt lat="48.3616" lon="2.53826">
        <ele>117.04</ele>
        <time>2016-08-27T12:46:05Z</time>
      </trkpt>
      <trkpt lat="48.36159" lon="2.53834">
        <ele>116.61</ele>
        <time>2016-08-27T12:46:26Z</time>
      </trkpt>
      <trkpt lat="48.36152" lon="2.53846">
        <ele>115.96</ele>
        <time>2016-08-27T12:46:42Z</time>
      </trkpt>
      <trkpt lat="48.36153" lon="2.53847">
        <ele>116.47</ele>
        <time>2016-08-27T12:47:02Z</time>
      </trkpt>
      <trkpt lat="48.36145" lon="2.53849">
        <ele>115.99</ele>
        <time>2016-08-27T12:47:22Z</time>
      </trkpt>
      <trkpt lat="48.36147" lon="2.53847">
        <ele>116.27</ele>
        <time>2016-08-27T12:47:52Z</time>
      </trkpt>
      <trkpt lat="48.36142" lon="2.53862">
        <ele>116.27</ele>
        <time>2016-08-27T12:48:12Z</time>
      </trkpt>
      <trkpt lat="48.36133" lon="2.53875">
        <ele>115.36</ele>
        <time>2016-08-27T12:48:35Z</time>
      </trkpt>
      <trkpt lat="48.36122" lon="2.53875">
        <ele>115.81</ele>
        <time>2016-08-27T12:48:59Z</time>
      </trkpt>
      <trkpt lat="48.36118" lon="2.53881">
        <ele>115.63</ele>
        <time>2016-08-27T12:49:22Z</time>
      </trkpt>
      <trkpt lat="48.36119" lon="2.53896">
        <ele>112.74</ele>
        <time>2016-08-27T12:49:48Z</time>
      </trkpt>
      <trkpt lat="48.36118" lon="2.53899">
        <ele>111.75</ele>
        <time>2016-08-27T12:49:57Z</time>
      </trkpt>
      <trkpt lat="48.36105" lon="2.53893">
        <ele>110.3</ele>
        <time>2016-08-27T12:50:25Z</time>
      </trkpt>
      <trkpt lat="48.36105" lon="2.53894">
        <ele>109.63</ele>
        <time>2016-08-27T12:50:39Z</time>
      </trkpt>
      <trkpt lat="48.36107" lon="2.53898">
        <ele>110.42</ele>
        <time>2016-08-27T12:51:09Z</time>
      </trkpt>
      <trkpt lat="48.36102" lon="2.53899">
        <ele>109.78</ele>
        <time>2016-08-27T12:51:39Z</time>
      </trkpt>
      <trkpt lat="48.36104" lon="2.53876">
        <ele>110.08</ele>
        <time>2016-08-27T12:52:04Z</time>
      </trkpt>
      <trkpt lat="48.36115" lon="2.53853">
        <ele>107.77</ele>
        <time>2016-08-27T12:52:28Z</time>
      </trkpt>
      <trkpt lat="48.36117" lon="2.53845">
        <ele>107.74</ele>
        <time>2016-08-27T12:52:34Z</time>
      </trkpt>
      <trkpt lat="48.36114" lon="2.53821">
        <ele>104.44</ele>
        <time>2016-08-27T12:52:55Z</time>
      </trkpt>
      <trkpt lat="48.361" lon="2.53801">
        <ele>102.06</ele>
        <time>2016-08-27T12:53:19Z</time>
      </trkpt>
      <trkpt lat="48.36096" lon="2.53782">
        <ele>100.95</ele>
        <time>2016-08-27T12:53:33Z</time>
      </trkpt>
      <trkpt lat="48.36101" lon="2.53733">
        <ele>99.3</ele>
        <time>2016-08-27T12:54:01Z</time>
      </trkpt>
      <trkpt lat="48.36114" lon="2.53714">
        <ele>99.8</ele>
        <time>2016-08-27T12:54:31Z</time>
      </trkpt>
      <trkpt lat="48.3612" lon="2.53726">
        <ele>98.79</ele>
        <time>2016-08-27T12:54:42Z</time>
      </trkpt>
      <trkpt lat="48.36134" lon="2.53735">
        <ele>96.32</ele>
        <time>2016-08-27T12:55:06Z</time>
      </trkpt>
      <trkpt lat="48.36144" lon="2.53727">
        <ele>95.22</ele>
        <time>2016-08-27T12:55:18Z</time>
      </trkpt>
      <trkpt lat="48.36163" lon="2.53699">
        <ele>96.47</ele>
        <time>2016-08-27T12:55:45Z</time>
      </trkpt>
      <trkpt lat="48.36177" lon="2.53667">
        <ele>97.52</ele>
        <time>2016-08-27T12:56:08Z</time>
      </trkpt>
      <trkpt lat="48.36185" lon="2.53645">
        <ele>100.69</ele>
        <time>2016-08-27T12:56:36Z</time>
      </trkpt>
      <trkpt lat="48.36189" lon="2.53634">
        <ele>104</ele>
        <time>2016-08-27T12:56:57Z</time>
      </trkpt>
      <trkpt lat="48.36187" lon="2.53637">
        <ele>104.84</ele>
        <time>2016-08-27T12:57:04Z</time>
      </trkpt>
      <trkpt lat="48.36176" lon="2.53607">
        <ele>103.12</ele>
        <time>2016-08-27T12:57:34Z</time>
      </trkpt>
      <trkpt lat="48.36176" lon="2.53599">
        <ele>103.88</ele>
        <time>2016-08-27T12:57:43Z</time>
      </trkpt>
      <trkpt lat="48.36178" lon="2.53598">
        <ele>103.57</ele>
        <time>2016-08-27T12:58:08Z</time>
      </trkpt>
      <trkpt lat="48.36179" lon="2.53575">
        <ele>106.38</ele>
        <time>2016-08-27T12:58:34Z</time>
      </trkpt>
      <trkpt lat="48.36174" lon="2.53543">
        <ele>107.36</ele>
        <time>2016-08-27T12:59:05Z</time>
      </trkpt>
      <trkpt lat="48.36169" lon="2.53534">
        <ele>108.58</ele>
        <time>2016-08-27T12:59:19Z</time>
      </trkpt>
      <trkpt lat="48.36161" lon="2.53521">
        <ele>110.04</ele>
        <time>2016-08-27T12:59:33Z</time>
      </trkpt>
      <trkpt lat="48.36154" lon="2.53513">
        <ele>111.8</ele>
        <time>2016-08-27T12:59:57Z</time>
      </trkpt>
      <trkpt lat="48.36153" lon="2.53509">
        <ele>113.39</ele>
        <time>2016-08-27T13:00:27Z</time>
      </trkpt>
      <trkpt lat="48.36148" lon="2.53479">
        <ele>113.25</ele>
        <time>2016-08-27T13:00:52Z</time>
      </trkpt>
      <trkpt lat="48.36147" lon="2.53478">
        <ele>113.51</ele>
        <time>2016-08-27T13:01:21Z</time>
      </trkpt>
      <trkpt lat="48.36146" lon="2.53477">
        <ele>113.04</ele>
        <time>2016-08-27T13:01:46Z</time>
      </trkpt>
      <trkpt lat="48.36148" lon="2.53477">
        <ele>113.72</ele>
        <time>2016-08-27T13:02:16Z</time>
      </trkpt>
      <trkpt lat="48.36149" lon="2.5347">
        <ele>113.8</ele>
        <time>2016-08-27T13:02:43Z</time>
      </trkpt>
      <trkpt lat="48.3615" lon="2.53447">
        <ele>114.2</ele>
        <time>2016-08-27T13:03:07Z</time>
      </trkpt>
      <trkpt lat="48.36151" lon="2.53442">
        <ele>114.28</ele>
        <time>2016-08-27T13:03:11Z</time>
      </trkpt>
      <trkpt lat="48.36156" lon="2.53419">
        <ele>115.32</ele>
        <time>2016-08-27T13:03:33Z</time>
      </trkpt>
      <trkpt lat="48.36165" lon="2.53408">
        <ele>115.05</ele>
        <time>2016-08-27T13:03:55Z</time>
      </trkpt>
      <trkpt lat="48.36163" lon="2.53405">
        <ele>115.1</ele>
        <time>2016-08-27T13:04:16Z</time>
      </trkpt>
      <trkpt lat="48.36163" lon="2.53405">
        <ele>115.71</ele>
        <time>2016-08-27T13:04:42Z</time>
      </trkpt>
      <trkpt lat="48.36166" lon="2.53404">
        <ele>115.28</ele>
        <time>2016-08-27T13:05:07Z</time>
      </trkpt>
      <trkpt lat="48.36166" lon="2.53402">
        <ele>115.27</ele>
        <time>2016-08-27T13:05:33Z</time>
      </trkpt>
      <trkpt lat="48.36163" lon="2.53405">
        <ele>115.11</ele>
        <time>2016-08-27T13:06:02Z</time>
      </trkpt>
      <trkpt lat="48.36164" lon="2.53404">
        <ele>115.13</ele>
        <time>2016-08-27T13:06:26Z</time>
      </trkpt>
      <trkpt lat="48.36162" lon="2.53404">
        <ele>115.48</ele>
        <time>2016-08-27T13:06:45Z</time>
      </trkpt>
      <trkpt lat="48.36163" lon="2.53401">
        <ele>113.78</ele>
        <time>2016-08-27T13:07:17Z</time>
      </trkpt>
      <trkpt lat="48.36163" lon="2.53403">
        <ele>115.49</ele>
        <time>2016-08-27T13:07:44Z</time>
      </trkpt>
      <trkpt lat="48.3617" lon="2.53404">
        <ele>114.71</ele>
        <time>2016-08-27T13:08:02Z</time>
      </trkpt>
      <trkpt lat="48.36167" lon="2.53402">
        <ele>114.52</ele>
        <time>2016-08-27T13:08:23Z</time>
      </trkpt>
      <trkpt lat="48.36164" lon="2.53387">
        <ele>111.84</ele>
        <time>2016-08-27T13:08:49Z</time>
      </trkpt>
      <trkpt lat="48.36166" lon="2.53377">
        <ele>108.81</ele>
        <time>2016-08-27T13:09:02Z</time>
      </trkpt>
      <trkpt lat="48.36166" lon="2.5338">
        <ele>108.39</ele>
        <time>2016-08-27T13:09:21Z</time>
      </trkpt>
      <trkpt lat="48.36168" lon="2.53382">
        <ele>108.39</ele>
        <time>2016-08-27T13:09:45Z</time>
      </trkpt>
      <trkpt lat="48.3617" lon="2.53375">
        <ele>107.14</ele>
        <time>2016-08-27T13:10:14Z</time>
      </trkpt>
      <trkpt lat="48.36173" lon="2.5337">
        <ele>105.5</ele>
        <time>2016-08-27T13:10:41Z</time>
      </trkpt>
      <trkpt lat="48.36177" lon="2.53371">
        <ele>105.25</ele>
        <time>2016-08-27T13:10:45Z</time>
      </trkpt>
      <trkpt lat="48.36185" lon="2.5336">
        <ele>102.34</ele>
        <time>2016-08-27T13:11:03Z</time>
      </trkpt>
      <trkpt lat="48.36195" lon="2.53348">
        <ele>99.08</ele>
        <time>2016-08-27T13:11:19Z</time>
      </trkpt>
      <trkpt lat="48.36202" lon="2.53345">
        <ele>97.3</ele>
        <time>2016-08-27T13:11:27Z</time>
      </trkpt>
      <trkpt lat="48.36207" lon="2.53319">
        <ele>95.18</ele>
        <time>2016-08-27T13:11:46Z</time>
      </trkpt>
      <trkpt lat="48.36219" lon="2.53283">
        <ele>92.13</ele>
        <time>2016-08-27T13:12:10Z</time>
      </trkpt>
      <trkpt lat="48.36227" lon="2.53261">
        <ele>89.88</ele>
        <time>2016-08-27T13:12:26Z</time>
      </trkpt>
      <trkpt lat="48.36234" lon="2.5324">
        <ele>87.93</ele>
        <time>2016-08-27T13:12:41Z</time>
      </trkpt>
      <trkpt lat="48.36244" lon="2.53226">
        <ele>85.89</ele>
        <time>2016-08-27T13:12:56Z</time>
      </trkpt>
      <trkpt lat="48.36246" lon="2.53223">
        <ele>85.41</ele>
        <time>2016-08-27T13:12:59Z</time>
      </trkpt>
      <trkpt lat="48.36258" lon="2.53203">
        <ele>83.57</ele>
        <time>2016-08-27T13:13:19Z</time>
      </trkpt>
      <trkpt lat="48.36275" lon="2.53173">
        <ele>81.57</ele>
        <time>2016-08-27T13:13:46Z</time>
      </trkpt>
      <trkpt lat="48.3628" lon="2.53168">
        <ele>80.82</ele>
        <time>2016-08-27T13:13:53Z</time>
      </trkpt>
      <trkpt lat="48.36299" lon="2.53141">
        <ele>78.44</ele>
        <time>2016-08-27T13:14:19Z</time>
      </trkpt>
      <trkpt lat="48.36319" lon="2.53106">
        <ele>76.82</ele>
        <time>2016-08-27T13:14:47Z</time>
      </trkpt>
      <trkpt lat="48.36325" lon="2.53067">
        <ele>75.93</ele>
        <time>2016-08-27T13:15:16Z</time>
      </trkpt>
      <trkpt lat="48.36333" lon="2.53066">
        <ele>75.86</ele>
        <time>2016-08-27T13:15:40Z</time>
      </trkpt>
      <trkpt lat="48.36348" lon="2.53101">
        <ele>76.21</ele>
        <time>2016-08-27T13:16:10Z</time>
      </trkpt>
      <trkpt lat="48.36363" lon="2.53122">
        <ele>76.7</ele>
        <time>2016-08-27T13:16:35Z</time>
      </trkpt>
      <trkpt lat="48.36363" lon="2.5314">
        <ele>77.09</ele>
        <time>2016-08-27T13:16:58Z</time>
      </trkpt>
      <trkpt lat="48.36364" lon="2.5314">
        <ele>77.4</ele>
        <time>2016-08-27T13:17:02Z</time>
      </trkpt>
      <trkpt lat="48.36365" lon="2.53139">
        <ele>78.1</ele>
        <time>2016-08-27T13:17:28Z</time>
      </trkpt>
      <trkpt lat="48.36363" lon="2.53146">
        <ele>77.39</ele>
        <time>2016-08-27T13:17:45Z</time>
      </trkpt>
      <trkpt lat="48.36363" lon="2.53142">
        <ele>78.05</ele>
        <time>2016-08-27T13:18:04Z</time>
      </trkpt>
      <trkpt lat="48.36364" lon="2.53144">
        <ele>77.55</ele>
        <time>2016-08-27T13:18:19Z</time>
      </trkpt>
      <trkpt lat="48.36367" lon="2.53141">
        <ele>77.31</ele>
        <time>2016-08-27T13:18:35Z</time>
      </trkpt>
      <trkpt lat="48.36367" lon="2.53138">
        <ele>77.53</ele>
        <time>2016-08-27T13:18:54Z</time>
      </trkpt>
      <trkpt lat="48.36367" lon="2.53135">
        <ele>78.23</ele>
        <time>2016-08-27T13:19:16Z</time>
      </trkpt>
      <trkpt lat="48.36377" lon="2.53132">
        <ele>77.56</ele>
        <time>2016-08-27T13:19:48Z</time>
      </trkpt>
      <trkpt lat="48.36389" lon="2.53134">
        <ele>79.62</ele>
        <time>2016-08-27T13:20:14Z</time>
      </trkpt>
      <trkpt lat="48.36396" lon="2.53144">
        <ele>80.02</ele>
        <time>2016-08-27T13:20:43Z</time>
      </trkpt>
      <trkpt lat="48.36394" lon="2.53142">
        <ele>79.96</ele>
        <time>2016-08-27T13:21:13Z</time>
      </trkpt>
      <trkpt lat="48.36398" lon="2.53137">
        <ele>81.36</ele>
        <time>2016-08-27T13:21:40Z</time>
      </trkpt>
      <trkpt lat="48.36396" lon="2.53134">
        <ele>80.28</ele>
        <time>2016-08-27T13:21:50Z</time>
      </trkpt>
      <trkpt lat="48.36391" lon="2.53133">
        <ele>80.65</ele>
        <time>2016-08-27T13:22:08Z</time>
      </trkpt>
      <trkpt lat="48.3639" lon="2.53133">
        <ele>80.26</ele>
        <time>2016-08-27T13:22:24Z</time>
      </trkpt>
      <trkpt lat="48.36392" lon="2.53135">
        <ele>80.62</ele>
        <time>2016-08-27T13:22:43Z</time>
      </trkpt>
      <trkpt lat="48.36395" lon="2.53138">
        <ele>80.6</ele>
        <time>2016-08-27T13:23:01Z</time>
      </trkpt>
      <trkpt lat="48.36395" lon="2.53141">
        <ele>80.69</ele>
        <time>2016-08-27T13:23:15Z</time>
      </trkpt>
      <trkpt lat="48.36391" lon="2.53139">
        <ele>80.2</ele>
        <time>2016-08-27T13:23:31Z</time>
      </trkpt>
      <trkpt lat="48.36394" lon="2.53139">
        <ele>80.11</ele>
        <time>2016-08-27T13:24:01Z</time>
      </trkpt>
      <trkpt lat="48.36404" lon="2.53138">
        <ele>80.56</ele>
        <time>2016-08-27T13:24:32Z</time>
      </trkpt>
      <trkpt lat="48.36424" lon="2.53127">
        <ele>83.16</ele>
        <time>2016-08-27T13:24:59Z</time>
      </trkpt>
      <trkpt lat="48.3644" lon="2.53116">
        <ele>85.77</ele>
        <time>2016-08-27T13:25:24Z</time>
      </trkpt>
      <trkpt lat="48.36442" lon="2.53114">
        <ele>85.89</ele>
        <time>2016-08-27T13:25:29Z</time>
      </trkpt>
      <trkpt lat="48.3644" lon="2.53096">
        <ele>86.13</ele>
        <time>2016-08-27T13:25:55Z</time>
      </trkpt>
      <trkpt lat="48.36443" lon="2.53072">
        <ele>85.48</ele>
        <time>2016-08-27T13:26:18Z</time>
      </trkpt>
      <trkpt lat="48.36464" lon="2.53047">
        <ele>83.45</ele>
        <time>2016-08-27T13:26:49Z</time>
      </trkpt>
      <trkpt lat="48.36475" lon="2.53034">
        <ele>81.81</ele>
        <time>2016-08-27T13:27:16Z</time>
      </trkpt>
      <trkpt lat="48.36482" lon="2.53016">
        <ele>79.96</ele>
        <time>2016-08-27T13:27:39Z</time>
      </trkpt>
      <trkpt lat="48.36489" lon="2.53017">
        <ele>79.79</ele>
        <time>2016-08-27T13:27:46Z</time>
      </trkpt>
      <trkpt lat="48.36496" lon="2.53007">
        <ele>79.13</ele>
        <time>2016-08-27T13:27:53Z</time>
      </trkpt>
      <trkpt lat="48.36508" lon="2.52981">
        <ele>75.87</ele>
        <time>2016-08-27T13:28:18Z</time>
      </trkpt>
      <trkpt lat="48.36516" lon="2.52946">
        <ele>74.98</ele>
        <time>2016-08-27T13:28:46Z</time>
      </trkpt>
      <trkpt lat="48.36533" lon="2.52914">
        <ele>74.65</ele>
        <time>2016-08-27T13:29:13Z</time>
      </trkpt>
      <trkpt lat="48.3655" lon="2.52869">
        <ele>75.42</ele>
        <time>2016-08-27T13:29:43Z</time>
      </trkpt>
      <trkpt lat="48.36566" lon="2.52847">
        <ele>75.52</ele>
        <time>2016-08-27T13:30:11Z</time>
      </trkpt>
      <trkpt lat="48.36581" lon="2.52819">
        <ele>75.28</ele>
        <time>2016-08-27T13:30:34Z</time>
      </trkpt>
      <trkpt lat="48.36582" lon="2.52816">
        <ele>75.27</ele>
        <time>2016-08-27T13:30:36Z</time>
      </trkpt>
      <trkpt lat="48.36581" lon="2.52798">
        <ele>75.75</ele>
        <time>2016-08-27T13:30:50Z</time>
      </trkpt>
      <trkpt lat="48.36574" lon="2.52777">
        <ele>77.67</ele>
        <time>2016-08-27T13:31:04Z</time>
      </trkpt>
      <trkpt lat="48.36577" lon="2.52761">
        <ele>76.82</ele>
        <time>2016-08-27T13:31:17Z</time>
      </trkpt>
      <trkpt lat="48.36583" lon="2.52747">
        <ele>77.19</ele>
        <time>2016-08-27T13:31:32Z</time>
      </trkpt>
      <trkpt lat="48.36586" lon="2.52727">
        <ele>76.76</ele>
        <time>2016-08-27T13:31:46Z</time>
      </trkpt>
      <trkpt lat="48.36593" lon="2.52708">
        <ele>76.95</ele>
        <time>2016-08-27T13:32:01Z</time>
      </trkpt>
      <trkpt lat="48.36595" lon="2.52691">
        <ele>76.69</ele>
        <time>2016-08-27T13:32:14Z</time>
      </trkpt>
      <trkpt lat="48.36592" lon="2.52683">
        <ele>76.19</ele>
        <time>2016-08-27T13:32:28Z</time>
      </trkpt>
      <trkpt lat="48.36591" lon="2.52672">
        <ele>76.37</ele>
        <time>2016-08-27T13:32:44Z</time>
      </trkpt>
      <trkpt lat="48.36616" lon="2.52654">
        <ele>76.29</ele>
        <time>2016-08-27T13:33:12Z</time>
      </trkpt>
      <trkpt lat="48.36638" lon="2.52652">
        <ele>75.49</ele>
        <time>2016-08-27T13:33:33Z</time>
      </trkpt>
      <trkpt lat="48.36672" lon="2.52648">
        <ele>75.42</ele>
        <time>2016-08-27T13:34:02Z</time>
      </trkpt>
      <trkpt lat="48.367" lon="2.52657">
        <ele>75.78</ele>
        <time>2016-08-27T13:34:28Z</time>
      </trkpt>
      <trkpt lat="48.36727" lon="2.5266">
        <ele>76.06</ele>
        <time>2016-08-27T13:34:54Z</time>
      </trkpt>
      <trkpt lat="48.3674" lon="2.52648">
        <ele>76.39</ele>
        <time>2016-08-27T13:35:07Z</time>
      </trkpt>
      <trkpt lat="48.36764" lon="2.52613">
        <ele>76.78</ele>
        <time>2016-08-27T13:35:39Z</time>
      </trkpt>
      <trkpt lat="48.36787" lon="2.5259">
        <ele>77.68</ele>
        <time>2016-08-27T13:36:07Z</time>
      </trkpt>
      <trkpt lat="48.36803" lon="2.52563">
        <ele>78.86</ele>
        <time>2016-08-27T13:36:33Z</time>
      </trkpt>
      <trkpt lat="48.36792" lon="2.52542">
        <ele>78.24</ele>
        <time>2016-08-27T13:36:57Z</time>
      </trkpt>
      <trkpt lat="48.36769" lon="2.52521">
        <ele>79.39</ele>
        <time>2016-08-27T13:37:26Z</time>
      </trkpt>
      <trkpt lat="48.36749" lon="2.52496">
        <ele>81.46</ele>
        <time>2016-08-27T13:37:56Z</time>
      </trkpt>
      <trkpt lat="48.36735" lon="2.52472">
        <ele>84.55</ele>
        <time>2016-08-27T13:38:18Z</time>
      </trkpt>
      <trkpt lat="48.36719" lon="2.52471">
        <ele>85.94</ele>
        <time>2016-08-27T13:38:44Z</time>
      </trkpt>
      <trkpt lat="48.36696" lon="2.52464">
        <ele>89.01</ele>
        <time>2016-08-27T13:39:07Z</time>
      </trkpt>
      <trkpt lat="48.36676" lon="2.52453">
        <ele>91.81</ele>
        <time>2016-08-27T13:39:35Z</time>
      </trkpt>
      <trkpt lat="48.36678" lon="2.52442">
        <ele>94.97</ele>
        <time>2016-08-27T13:39:50Z</time>
      </trkpt>
      <trkpt lat="48.36679" lon="2.52431">
        <ele>98.1</ele>
        <time>2016-08-27T13:40:12Z</time>
      </trkpt>
      <trkpt lat="48.3667" lon="2.52421">
        <ele>101.13</ele>
        <time>2016-08-27T13:40:26Z</time>
      </trkpt>
      <trkpt lat="48.36672" lon="2.52404">
        <ele>104.14</ele>
        <time>2016-08-27T13:40:43Z</time>
      </trkpt>
      <trkpt lat="48.36672" lon="2.52395">
        <ele>107.37</ele>
        <time>2016-08-27T13:40:58Z</time>
      </trkpt>
      <trkpt lat="48.3667" lon="2.52393">
        <ele>108.16</ele>
        <time>2016-08-27T13:41:01Z</time>
      </trkpt>
      <trkpt lat="48.36659" lon="2.5238">
        <ele>111.42</ele>
        <time>2016-08-27T13:41:22Z</time>
      </trkpt>
      <trkpt lat="48.36649" lon="2.52375">
        <ele>113.93</ele>
        <time>2016-08-27T13:41:46Z</time>
      </trkpt>
      <trkpt lat="48.36636" lon="2.52362">
        <ele>114.38</ele>
        <time>2016-08-27T13:42:09Z</time>
      </trkpt>
      <trkpt lat="48.36635" lon="2.52354">
        <ele>112.03</ele>
        <time>2016-08-27T13:42:34Z</time>
      </trkpt>
      <trkpt lat="48.36634" lon="2.52358">
        <ele>111.59</ele>
        <time>2016-08-27T13:42:53Z</time>
      </trkpt>
      <trkpt lat="48.36636" lon="2.52356">
        <ele>111.2</ele>
        <time>2016-08-27T13:42:55Z</time>
      </trkpt>
      <trkpt lat="48.36642" lon="2.5235">
        <ele>110.07</ele>
        <time>2016-08-27T13:43:19Z</time>
      </trkpt>
      <trkpt lat="48.36639" lon="2.52349">
        <ele>109.49</ele>
        <time>2016-08-27T13:43:45Z</time>
      </trkpt>
      <trkpt lat="48.36642" lon="2.52349">
        <ele>109.48</ele>
        <time>2016-08-27T13:44:10Z</time>
      </trkpt>
      <trkpt lat="48.36654" lon="2.52354">
        <ele>111.23</ele>
        <time>2016-08-27T13:44:40Z</time>
      </trkpt>
      <trkpt lat="48.36653" lon="2.52354">
        <ele>111.26</ele>
        <time>2016-08-27T13:44:43Z</time>
      </trkpt>
      <trkpt lat="48.36652" lon="2.52354">
        <ele>111.22</ele>
        <time>2016-08-27T13:44:45Z</time>
      </trkpt>
      <trkpt lat="48.36643" lon="2.52358">
        <ele>111.25</ele>
        <time>2016-08-27T13:45:09Z</time>
      </trkpt>
      <trkpt lat="48.36639" lon="2.52367">
        <ele>110.95</ele>
        <time>2016-08-27T13:45:32Z</time>
      </trkpt>
      <trkpt lat="48.36634" lon="2.52365">
        <ele>110.98</ele>
        <time>2016-08-27T13:45:36Z</time>
      </trkpt>
      <trkpt lat="48.36631" lon="2.52347">
        <ele>109.43</ele>
        <time>2016-08-27T13:45:55Z</time>
      </trkpt>
      <trkpt lat="48.36653" lon="2.52345">
        <ele>110.34</ele>
        <time>2016-08-27T13:46:23Z</time>
      </trkpt>
      <trkpt lat="48.36652" lon="2.52345">
        <ele>109.87</ele>
        <time>2016-08-27T13:46:29Z</time>
      </trkpt>
      <trkpt lat="48.36649" lon="2.52342">
        <ele>109.52</ele>
        <time>2016-08-27T13:46:34Z</time>
      </trkpt>
      <trkpt lat="48.36641" lon="2.52337">
        <ele>108.31</ele>
        <time>2016-08-27T13:47:00Z</time>
      </trkpt>
      <trkpt lat="48.36641" lon="2.52337">
        <ele>108.22</ele>
        <time>2016-08-27T13:47:01Z</time>
      </trkpt>
      <trkpt lat="48.36644" lon="2.52338">
        <ele>106.85</ele>
        <time>2016-08-27T13:47:05Z</time>
      </trkpt>
      <trkpt lat="48.36648" lon="2.52338">
        <ele>104.9</ele>
        <time>2016-08-27T13:47:26Z</time>
      </trkpt>
      <trkpt lat="48.3666" lon="2.52343">
        <ele>103.93</ele>
        <time>2016-08-27T13:47:49Z</time>
      </trkpt>
      <trkpt lat="48.36666" lon="2.5234">
        <ele>101.11</ele>
        <time>2016-08-27T13:48:17Z</time>
      </trkpt>
      <trkpt lat="48.3667" lon="2.52329">
        <ele>98.02</ele>
        <time>2016-08-27T13:48:44Z</time>
      </trkpt>
      <trkpt lat="48.36671" lon="2.52324">
        <ele>95.84</ele>
        <time>2016-08-27T13:49:08Z</time>
      </trkpt>
      <trkpt lat="48.36671" lon="2.52316">
        <ele>93.66</ele>
        <time>2016-08-27T13:49:33Z</time>
      </trkpt>
      <trkpt lat="48.3667" lon="2.52308">
        <ele>91.82</ele>
        <time>2016-08-27T13:49:45Z</time>
      </trkpt>
      <trkpt lat="48.3667" lon="2.52295">
        <ele>89.59</ele>
        <time>2016-08-27T13:50:11Z</time>
      </trkpt>
      <trkpt lat="48.3667" lon="2.52294">
        <ele>88.37</ele>
        <time>2016-08-27T13:50:16Z</time>
      </trkpt>
      <trkpt lat="48.36667" lon="2.52282">
        <ele>85.39</ele>
        <time>2016-08-27T13:50:43Z</time>
      </trkpt>
      <trkpt lat="48.36667" lon="2.52278">
        <ele>84.41</ele>
        <time>2016-08-27T13:50:51Z</time>
      </trkpt>
      <trkpt lat="48.36668" lon="2.52277">
        <ele>83.97</ele>
        <time>2016-08-27T13:50:55Z</time>
      </trkpt>
      <trkpt lat="48.3667" lon="2.52277">
        <ele>83.62</ele>
        <time>2016-08-27T13:50:59Z</time>
      </trkpt>
      <trkpt lat="48.36684" lon="2.52265">
        <ele>82.01</ele>
        <time>2016-08-27T13:51:17Z</time>
      </trkpt>
      <trkpt lat="48.36698" lon="2.5225">
        <ele>81.61</ele>
        <time>2016-08-27T13:51:33Z</time>
      </trkpt>
      <trkpt lat="48.36705" lon="2.52232">
        <ele>81.17</ele>
        <time>2016-08-27T13:51:47Z</time>
      </trkpt>
      <trkpt lat="48.36709" lon="2.52221">
        <ele>80.54</ele>
        <time>2016-08-27T13:51:55Z</time>
      </trkpt>
      <trkpt lat="48.36716" lon="2.52208">
        <ele>79.92</ele>
        <time>2016-08-27T13:52:06Z</time>
      </trkpt>
      <trkpt lat="48.36723" lon="2.52196">
        <ele>79.36</ele>
        <time>2016-08-27T13:52:21Z</time>
      </trkpt>
      <trkpt lat="48.36733" lon="2.5218">
        <ele>78.64</ele>
        <time>2016-08-27T13:52:38Z</time>
      </trkpt>
      <trkpt lat="48.36749" lon="2.52163">
        <ele>77.36</ele>
        <time>2016-08-27T13:52:59Z</time>
      </trkpt>
      <trkpt lat="48.3676" lon="2.52153">
        <ele>77.49</ele>
        <time>2016-08-27T13:53:15Z</time>
      </trkpt>
      <trkpt lat="48.36774" lon="2.52151">
        <ele>77.28</ele>
        <time>2016-08-27T13:53:34Z</time>
      </trkpt>
      <trkpt lat="48.36792" lon="2.5215">
        <ele>77.1</ele>
        <time>2016-08-27T13:53:49Z</time>
      </trkpt>
      <trkpt lat="48.3681" lon="2.52149">
        <ele>76.53</ele>
        <time>2016-08-27T13:54:07Z</time>
      </trkpt>
      <trkpt lat="48.36828" lon="2.52149">
        <ele>76.74</ele>
        <time>2016-08-27T13:54:27Z</time>
      </trkpt>
      <trkpt lat="48.36843" lon="2.52149">
        <ele>76.52</ele>
        <time>2016-08-27T13:54:41Z</time>
      </trkpt>
      <trkpt lat="48.36862" lon="2.52157">
        <ele>76.67</ele>
        <time>2016-08-27T13:54:55Z</time>
      </trkpt>
      <trkpt lat="48.36872" lon="2.52162">
        <ele>76.37</ele>
        <time>2016-08-27T13:55:03Z</time>
      </trkpt>
      <trkpt lat="48.36884" lon="2.52171">
        <ele>76.74</ele>
        <time>2016-08-27T13:55:19Z</time>
      </trkpt>
      <trkpt lat="48.36889" lon="2.52177">
        <ele>76.46</ele>
        <time>2016-08-27T13:55:27Z</time>
      </trkpt>
      <trkpt lat="48.36899" lon="2.52202">
        <ele>76.19</ele>
        <time>2016-08-27T13:55:42Z</time>
      </trkpt>
      <trkpt lat="48.36899" lon="2.52204">
        <ele>76.18</ele>
        <time>2016-08-27T13:55:43Z</time>
      </trkpt>
      <trkpt lat="48.36912" lon="2.52224">
        <ele>76.38</ele>
        <time>2016-08-27T13:56:01Z</time>
      </trkpt>
      <trkpt lat="48.36914" lon="2.5223">
        <ele>76.82</ele>
        <time>2016-08-27T13:56:09Z</time>
      </trkpt>
      <trkpt lat="48.3692" lon="2.52241">
        <ele>76.66</ele>
        <time>2016-08-27T13:56:18Z</time>
      </trkpt>
      <trkpt lat="48.36927" lon="2.52265">
        <ele>77.15</ele>
        <time>2016-08-27T13:56:36Z</time>
      </trkpt>
      <trkpt lat="48.36935" lon="2.5228">
        <ele>77.3</ele>
        <time>2016-08-27T13:56:48Z</time>
      </trkpt>
      <trkpt lat="48.36944" lon="2.52303">
        <ele>77.31</ele>
        <time>2016-08-27T13:57:05Z</time>
      </trkpt>
      <trkpt lat="48.36958" lon="2.52316">
        <ele>77.45</ele>
        <time>2016-08-27T13:57:21Z</time>
      </trkpt>
      <trkpt lat="48.36964" lon="2.52321">
        <ele>77.38</ele>
        <time>2016-08-27T13:57:31Z</time>
      </trkpt>
      <trkpt lat="48.36975" lon="2.5232">
        <ele>77.34</ele>
        <time>2016-08-27T13:57:46Z</time>
      </trkpt>
      <trkpt lat="48.36988" lon="2.52312">
        <ele>77.27</ele>
        <time>2016-08-27T13:58:02Z</time>
      </trkpt>
      <trkpt lat="48.36999" lon="2.523">
        <ele>77.48</ele>
        <time>2016-08-27T13:58:19Z</time>
      </trkpt>
      <trkpt lat="48.37004" lon="2.52295">
        <ele>77.45</ele>
        <time>2016-08-27T13:58:24Z</time>
      </trkpt>
      <trkpt lat="48.37014" lon="2.52282">
        <ele>77.45</ele>
        <time>2016-08-27T13:58:41Z</time>
      </trkpt>
      <trkpt lat="48.37027" lon="2.52274">
        <ele>77.46</ele>
        <time>2016-08-27T13:58:58Z</time>
      </trkpt>
      <trkpt lat="48.37033" lon="2.5227">
        <ele>77.54</ele>
        <time>2016-08-27T13:59:06Z</time>
      </trkpt>
      <trkpt lat="48.37049" lon="2.52258">
        <ele>77.48</ele>
        <time>2016-08-27T13:59:20Z</time>
      </trkpt>
      <trkpt lat="48.37068" lon="2.52239">
        <ele>77.59</ele>
        <time>2016-08-27T13:59:38Z</time>
      </trkpt>
      <trkpt lat="48.37084" lon="2.52231">
        <ele>77.83</ele>
        <time>2016-08-27T13:59:55Z</time>
      </trkpt>
      <trkpt lat="48.37094" lon="2.52217">
        <ele>77.84</ele>
        <time>2016-08-27T14:00:11Z</time>
      </trkpt>
      <trkpt lat="48.37109" lon="2.52205">
        <ele>77.16</ele>
        <time>2016-08-27T14:00:29Z</time>
      </trkpt>
      <trkpt lat="48.37127" lon="2.52202">
        <ele>77.52</ele>
        <time>2016-08-27T14:00:46Z</time>
      </trkpt>
      <trkpt lat="48.37138" lon="2.5219">
        <ele>77.61</ele>
        <time>2016-08-27T14:01:01Z</time>
      </trkpt>
      <trkpt lat="48.3716" lon="2.52176">
        <ele>77.41</ele>
        <time>2016-08-27T14:01:18Z</time>
      </trkpt>
      <trkpt lat="48.37173" lon="2.52166">
        <ele>77.18</ele>
        <time>2016-08-27T14:01:36Z</time>
      </trkpt>
      <trkpt lat="48.37171" lon="2.52156">
        <ele>77.4</ele>
        <time>2016-08-27T14:01:43Z</time>
      </trkpt>
      <trkpt lat="48.37169" lon="2.52131">
        <ele>77.32</ele>
        <time>2016-08-27T14:01:59Z</time>
      </trkpt>
      <trkpt lat="48.37169" lon="2.52104">
        <ele>77.25</ele>
        <time>2016-08-27T14:02:16Z</time>
      </trkpt>
      <trkpt lat="48.37167" lon="2.52088">
        <ele>77.14</ele>
        <time>2016-08-27T14:02:27Z</time>
      </trkpt>
      <trkpt lat="48.37165" lon="2.52072">
        <ele>77.14</ele>
        <time>2016-08-27T14:02:36Z</time>
      </trkpt>
      <trkpt lat="48.37168" lon="2.5204">
        <ele>77.32</ele>
        <time>2016-08-27T14:02:56Z</time>
      </trkpt>
      <trkpt lat="48.37162" lon="2.5203">
        <ele>77.46</ele>
        <time>2016-08-27T14:03:13Z</time>
      </trkpt>
      <trkpt lat="48.37162" lon="2.5203">
        <ele>77.51</ele>
        <time>2016-08-27T14:03:28Z</time>
      </trkpt>
      <trkpt lat="48.37162" lon="2.52032">
        <ele>77.6</ele>
        <time>2016-08-27T14:03:44Z</time>
      </trkpt>
      <trkpt lat="48.37162" lon="2.52036">
        <ele>77.66</ele>
        <time>2016-08-27T14:03:59Z</time>
      </trkpt>
      <trkpt lat="48.37156" lon="2.52031">
        <ele>77.86</ele>
        <time>2016-08-27T14:04:14Z</time>
      </trkpt>
      <trkpt lat="48.37153" lon="2.52029">
        <ele>77.85</ele>
        <time>2016-08-27T14:04:16Z</time>
      </trkpt>
      <trkpt lat="48.37154" lon="2.52023">
        <ele>77.99</ele>
        <time>2016-08-27T14:04:34Z</time>
      </trkpt>
      <trkpt lat="48.37161" lon="2.52027">
        <ele>77.88</ele>
        <time>2016-08-27T14:04:43Z</time>
      </trkpt>
      <trkpt lat="48.37165" lon="2.52027">
        <ele>77.76</ele>
        <time>2016-08-27T14:05:02Z</time>
      </trkpt>
      <trkpt lat="48.37176" lon="2.5202">
        <ele>77.8</ele>
        <time>2016-08-27T14:05:20Z</time>
      </trkpt>
      <trkpt lat="48.37183" lon="2.52009">
        <ele>77.75</ele>
        <time>2016-08-27T14:05:38Z</time>
      </trkpt>
      <trkpt lat="48.37198" lon="2.52005">
        <ele>77.72</ele>
        <time>2016-08-27T14:05:54Z</time>
      </trkpt>
      <trkpt lat="48.37202" lon="2.52">
        <ele>77.58</ele>
        <time>2016-08-27T14:05:59Z</time>
      </trkpt>
      <trkpt lat="48.37219" lon="2.51993">
        <ele>77.45</ele>
        <time>2016-08-27T14:06:18Z</time>
      </trkpt>
      <trkpt lat="48.37234" lon="2.51982">
        <ele>77</ele>
        <time>2016-08-27T14:06:37Z</time>
      </trkpt>
      <trkpt lat="48.37244" lon="2.51972">
        <ele>77.16</ele>
        <time>2016-08-27T14:06:54Z</time>
      </trkpt>
      <trkpt lat="48.37268" lon="2.51957">
        <ele>77.27</ele>
        <time>2016-08-27T14:07:11Z</time>
      </trkpt>
      <trkpt lat="48.37282" lon="2.51943">
        <ele>77.96</ele>
        <time>2016-08-27T14:07:28Z</time>
      </trkpt>
      <trkpt lat="48.37291" lon="2.51935">
        <ele>78.75</ele>
        <time>2016-08-27T14:07:43Z</time>
      </trkpt>
      <trkpt lat="48.37301" lon="2.51927">
        <ele>79.91</ele>
        <time>2016-08-27T14:07:59Z</time>
      </trkpt>
      <trkpt lat="48.37309" lon="2.51923">
        <ele>80.93</ele>
        <time>2016-08-27T14:08:12Z</time>
      </trkpt>
      <trkpt lat="48.37312" lon="2.51921">
        <ele>81.16</ele>
        <time>2016-08-27T14:08:15Z</time>
      </trkpt>
      <trkpt lat="48.37325" lon="2.51914">
        <ele>82.04</ele>
        <time>2016-08-27T14:08:33Z</time>
      </trkpt>
      <trkpt lat="48.37337" lon="2.51903">
        <ele>82.63</ele>
        <time>2016-08-27T14:08:50Z</time>
      </trkpt>
      <trkpt lat="48.37337" lon="2.5189">
        <ele>83.78</ele>
        <time>2016-08-27T14:09:01Z</time>
      </trkpt>
      <trkpt lat="48.3734" lon="2.51876">
        <ele>85.65</ele>
        <time>2016-08-27T14:09:18Z</time>
      </trkpt>
      <trkpt lat="48.37336" lon="2.51863">
        <ele>87.12</ele>
        <time>2016-08-27T14:09:34Z</time>
      </trkpt>
      <trkpt lat="48.37336" lon="2.51853">
        <ele>88.14</ele>
        <time>2016-08-27T14:09:51Z</time>
      </trkpt>
      <trkpt lat="48.37338" lon="2.5185">
        <ele>88.49</ele>
        <time>2016-08-27T14:09:54Z</time>
      </trkpt>
      <trkpt lat="48.37339" lon="2.51848">
        <ele>89.28</ele>
        <time>2016-08-27T14:09:59Z</time>
      </trkpt>
      <trkpt lat="48.3734" lon="2.51835">
        <ele>91.15</ele>
        <time>2016-08-27T14:10:18Z</time>
      </trkpt>
      <trkpt lat="48.37344" lon="2.51824">
        <ele>93.89</ele>
        <time>2016-08-27T14:10:35Z</time>
      </trkpt>
      <trkpt lat="48.37347" lon="2.51816">
        <ele>95.49</ele>
        <time>2016-08-27T14:10:50Z</time>
      </trkpt>
      <trkpt lat="48.3735" lon="2.5181">
        <ele>97.43</ele>
        <time>2016-08-27T14:11:04Z</time>
      </trkpt>
      <trkpt lat="48.37353" lon="2.51811">
        <ele>99.36</ele>
        <time>2016-08-27T14:11:16Z</time>
      </trkpt>
      <trkpt lat="48.37361" lon="2.5181">
        <ele>102.39</ele>
        <time>2016-08-27T14:11:40Z</time>
      </trkpt>
      <trkpt lat="48.37368" lon="2.51805">
        <ele>105.4</ele>
        <time>2016-08-27T14:12:02Z</time>
      </trkpt>
      <trkpt lat="48.37373" lon="2.51796">
        <ele>106.7</ele>
        <time>2016-08-27T14:12:30Z</time>
      </trkpt>
      <trkpt lat="48.37376" lon="2.51796">
        <ele>106.84</ele>
        <time>2016-08-27T14:13:09Z</time>
      </trkpt>
      <trkpt lat="48.37373" lon="2.51792">
        <ele>106.83</ele>
        <time>2016-08-27T14:13:40Z</time>
      </trkpt>
      <trkpt lat="48.37373" lon="2.51799">
        <ele>106.79</ele>
        <time>2016-08-27T14:14:15Z</time>
      </trkpt>
      <trkpt lat="48.37372" lon="2.51794">
        <ele>109.03</ele>
        <time>2016-08-27T14:14:51Z</time>
      </trkpt>
      <trkpt lat="48.37378" lon="2.51795">
        <ele>112.34</ele>
        <time>2016-08-27T14:15:14Z</time>
      </trkpt>
      <trkpt lat="48.37395" lon="2.51771">
        <ele>113.43</ele>
        <time>2016-08-27T14:15:45Z</time>
      </trkpt>
      <trkpt lat="48.37421" lon="2.51754">
        <ele>115.05</ele>
        <time>2016-08-27T14:16:13Z</time>
      </trkpt>
      <trkpt lat="48.37425" lon="2.51755">
        <ele>114.85</ele>
        <time>2016-08-27T14:16:17Z</time>
      </trkpt>
      <trkpt lat="48.37451" lon="2.51775">
        <ele>113.87</ele>
        <time>2016-08-27T14:16:43Z</time>
      </trkpt>
      <trkpt lat="48.37459" lon="2.51799">
        <ele>113.41</ele>
        <time>2016-08-27T14:17:03Z</time>
      </trkpt>
      <trkpt lat="48.37467" lon="2.51811">
        <ele>113.53</ele>
        <time>2016-08-27T14:17:18Z</time>
      </trkpt>
      <trkpt lat="48.37479" lon="2.51823">
        <ele>113.41</ele>
        <time>2016-08-27T14:17:45Z</time>
      </trkpt>
      <trkpt lat="48.37492" lon="2.51819">
        <ele>113.27</ele>
        <time>2016-08-27T14:18:09Z</time>
      </trkpt>
      <trkpt lat="48.37494" lon="2.51798">
        <ele>113.3</ele>
        <time>2016-08-27T14:18:24Z</time>
      </trkpt>
      <trkpt lat="48.37495" lon="2.51777">
        <ele>112.86</ele>
        <time>2016-08-27T14:18:40Z</time>
      </trkpt>
      <trkpt lat="48.37495" lon="2.51768">
        <ele>112.96</ele>
        <time>2016-08-27T14:18:47Z</time>
      </trkpt>
      <trkpt lat="48.37497" lon="2.5176">
        <ele>113</ele>
        <time>2016-08-27T14:18:53Z</time>
      </trkpt>
      <trkpt lat="48.37507" lon="2.51742">
        <ele>112.77</ele>
        <time>2016-08-27T14:19:08Z</time>
      </trkpt>
      <trkpt lat="48.3751" lon="2.51725">
        <ele>111.04</ele>
        <time>2016-08-27T14:19:22Z</time>
      </trkpt>
      <trkpt lat="48.37506" lon="2.51712">
        <ele>108.99</ele>
        <time>2016-08-27T14:19:35Z</time>
      </trkpt>
      <trkpt lat="48.37502" lon="2.51699">
        <ele>107.49</ele>
        <time>2016-08-27T14:19:48Z</time>
      </trkpt>
      <trkpt lat="48.37496" lon="2.5169">
        <ele>105.41</ele>
        <time>2016-08-27T14:20:00Z</time>
      </trkpt>
      <trkpt lat="48.37486" lon="2.51676">
        <ele>103.49</ele>
        <time>2016-08-27T14:20:15Z</time>
      </trkpt>
      <trkpt lat="48.37483" lon="2.5167">
        <ele>103.06</ele>
        <time>2016-08-27T14:20:23Z</time>
      </trkpt>
      <trkpt lat="48.37475" lon="2.51651">
        <ele>101.35</ele>
        <time>2016-08-27T14:20:38Z</time>
      </trkpt>
      <trkpt lat="48.37471" lon="2.51644">
        <ele>100.75</ele>
        <time>2016-08-27T14:20:47Z</time>
      </trkpt>
      <trkpt lat="48.37459" lon="2.51629">
        <ele>99.75</ele>
        <time>2016-08-27T14:21:02Z</time>
      </trkpt>
      <trkpt lat="48.37449" lon="2.51614">
        <ele>98.7</ele>
        <time>2016-08-27T14:21:16Z</time>
      </trkpt>
      <trkpt lat="48.37442" lon="2.51603">
        <ele>97.89</ele>
        <time>2016-08-27T14:21:34Z</time>
      </trkpt>
      <trkpt lat="48.37437" lon="2.51594">
        <ele>97.44</ele>
        <time>2016-08-27T14:21:51Z</time>
      </trkpt>
      <trkpt lat="48.37437" lon="2.51575">
        <ele>95.67</ele>
        <time>2016-08-27T14:22:06Z</time>
      </trkpt>
      <trkpt lat="48.37422" lon="2.51558">
        <ele>94.06</ele>
        <time>2016-08-27T14:22:23Z</time>
      </trkpt>
      <trkpt lat="48.37415" lon="2.51537">
        <ele>92.46</ele>
        <time>2016-08-27T14:22:41Z</time>
      </trkpt>
      <trkpt lat="48.37406" lon="2.51523">
        <ele>91.07</ele>
        <time>2016-08-27T14:22:56Z</time>
      </trkpt>
      <trkpt lat="48.37407" lon="2.51504">
        <ele>90.2</ele>
        <time>2016-08-27T14:23:11Z</time>
      </trkpt>
      <trkpt lat="48.37411" lon="2.51498">
        <ele>89.97</ele>
        <time>2016-08-27T14:23:17Z</time>
      </trkpt>
      <trkpt lat="48.37418" lon="2.51482">
        <ele>89.52</ele>
        <time>2016-08-27T14:23:28Z</time>
      </trkpt>
      <trkpt lat="48.37432" lon="2.51468">
        <ele>88.3</ele>
        <time>2016-08-27T14:23:42Z</time>
      </trkpt>
      <trkpt lat="48.37439" lon="2.51454">
        <ele>88.48</ele>
        <time>2016-08-27T14:23:57Z</time>
      </trkpt>
      <trkpt lat="48.37445" lon="2.51442">
        <ele>89.02</ele>
        <time>2016-08-27T14:24:11Z</time>
      </trkpt>
      <trkpt lat="48.37448" lon="2.51442">
        <ele>89.2</ele>
        <time>2016-08-27T14:24:14Z</time>
      </trkpt>
      <trkpt lat="48.37463" lon="2.51437">
        <ele>89.03</ele>
        <time>2016-08-27T14:24:31Z</time>
      </trkpt>
      <trkpt lat="48.37481" lon="2.51432">
        <ele>88.72</ele>
        <time>2016-08-27T14:24:49Z</time>
      </trkpt>
      <trkpt lat="48.37487" lon="2.51427">
        <ele>88.62</ele>
        <time>2016-08-27T14:25:04Z</time>
      </trkpt>
      <trkpt lat="48.37491" lon="2.51426">
        <ele>88.37</ele>
        <time>2016-08-27T14:25:19Z</time>
      </trkpt>
      <trkpt lat="48.37494" lon="2.51419">
        <ele>88.18</ele>
        <time>2016-08-27T14:25:33Z</time>
      </trkpt>
      <trkpt lat="48.37494" lon="2.5141">
        <ele>87.48</ele>
        <time>2016-08-27T14:25:44Z</time>
      </trkpt>
      <trkpt lat="48.37497" lon="2.51396">
        <ele>86.31</ele>
        <time>2016-08-27T14:25:58Z</time>
      </trkpt>
      <trkpt lat="48.37492" lon="2.51387">
        <ele>86.43</ele>
        <time>2016-08-27T14:26:11Z</time>
      </trkpt>
      <trkpt lat="48.37493" lon="2.51367">
        <ele>86.1</ele>
        <time>2016-08-27T14:26:25Z</time>
      </trkpt>
      <trkpt lat="48.37493" lon="2.51364">
        <ele>85.57</ele>
        <time>2016-08-27T14:26:28Z</time>
      </trkpt>
      <trkpt lat="48.37493" lon="2.5135">
        <ele>84.7</ele>
        <time>2016-08-27T14:26:44Z</time>
      </trkpt>
      <trkpt lat="48.37495" lon="2.5133">
        <ele>82.5</ele>
        <time>2016-08-27T14:27:01Z</time>
      </trkpt>
      <trkpt lat="48.37502" lon="2.51307">
        <ele>81.71</ele>
        <time>2016-08-27T14:27:18Z</time>
      </trkpt>
      <trkpt lat="48.37499" lon="2.51283">
        <ele>80.95</ele>
        <time>2016-08-27T14:27:33Z</time>
      </trkpt>
      <trkpt lat="48.37506" lon="2.5127">
        <ele>80.49</ele>
        <time>2016-08-27T14:27:46Z</time>
      </trkpt>
      <trkpt lat="48.37509" lon="2.51256">
        <ele>79.34</ele>
        <time>2016-08-27T14:28:00Z</time>
      </trkpt>
      <trkpt lat="48.3751" lon="2.51247">
        <ele>78.72</ele>
        <time>2016-08-27T14:28:09Z</time>
      </trkpt>
      <trkpt lat="48.37507" lon="2.51228">
        <ele>78.6</ele>
        <time>2016-08-27T14:28:25Z</time>
      </trkpt>
      <trkpt lat="48.375" lon="2.51218">
        <ele>78.64</ele>
        <time>2016-08-27T14:28:41Z</time>
      </trkpt>
      <trkpt lat="48.37483" lon="2.51208">
        <ele>78.91</ele>
        <time>2016-08-27T14:28:57Z</time>
      </trkpt>
      <trkpt lat="48.37468" lon="2.51193">
        <ele>79.25</ele>
        <time>2016-08-27T14:29:15Z</time>
      </trkpt>
      <trkpt lat="48.37451" lon="2.51184">
        <ele>79.54</ele>
        <time>2016-08-27T14:29:30Z</time>
      </trkpt>
      <trkpt lat="48.37438" lon="2.51176">
        <ele>80.36</ele>
        <time>2016-08-27T14:29:48Z</time>
      </trkpt>
      <trkpt lat="48.37422" lon="2.51168">
        <ele>80.64</ele>
        <time>2016-08-27T14:30:04Z</time>
      </trkpt>
      <trkpt lat="48.37408" lon="2.51164">
        <ele>80.73</ele>
        <time>2016-08-27T14:30:18Z</time>
      </trkpt>
      <trkpt lat="48.37391" lon="2.51164">
        <ele>81.27</ele>
        <time>2016-08-27T14:30:34Z</time>
      </trkpt>
      <trkpt lat="48.37372" lon="2.51155">
        <ele>81.72</ele>
        <time>2016-08-27T14:30:51Z</time>
      </trkpt>
      <trkpt lat="48.37356" lon="2.51153">
        <ele>81.69</ele>
        <time>2016-08-27T14:31:03Z</time>
      </trkpt>
      <trkpt lat="48.37339" lon="2.51144">
        <ele>81.62</ele>
        <time>2016-08-27T14:31:19Z</time>
      </trkpt>
      <trkpt lat="48.37329" lon="2.51129">
        <ele>81.38</ele>
        <time>2016-08-27T14:31:33Z</time>
      </trkpt>
      <trkpt lat="48.37316" lon="2.51106">
        <ele>81.48</ele>
        <time>2016-08-27T14:31:50Z</time>
      </trkpt>
      <trkpt lat="48.37313" lon="2.51099">
        <ele>81.49</ele>
        <time>2016-08-27T14:31:53Z</time>
      </trkpt>
      <trkpt lat="48.37307" lon="2.51092">
        <ele>81.47</ele>
        <time>2016-08-27T14:32:01Z</time>
      </trkpt>
      <trkpt lat="48.37295" lon="2.51078">
        <ele>80.71</ele>
        <time>2016-08-27T14:32:14Z</time>
      </trkpt>
      <trkpt lat="48.37286" lon="2.51068">
        <ele>80.36</ele>
        <time>2016-08-27T14:32:25Z</time>
      </trkpt>
      <trkpt lat="48.37275" lon="2.51061">
        <ele>80.11</ele>
        <time>2016-08-27T14:32:39Z</time>
      </trkpt>
    </trkseg>
  </trk>
</gpx>